[[{"header":{"parameterUnit":"m.s-1","parameterCategory":1,"la1":30.6,"la2":29.2853,"lo1":-89.7004,"lo2":-87.6739,"dy":0.0162,"dx":0.0183,"nx":112,"ny":82,"refTime":"2026-04-02T12:00:00:Z","depth":0,"parameterNumber":2,"parameterNumberName":"U-component_of_WINDS"},"data":[0.0,0.0,0.0,0.0,0.0,0.0,0.0,0.0,0.0,0.0,0.0,0.0,0.0,0.0,0.0,0.0,0.0,0.0,0.0,0.0,0.0,0.0,0.0,0.0,0.0,0.0,0.0,0.0,0.0,0.0,0.0,0.0,0.0,0.0,0.0,0.0,0.0,0.0,0.0,0.0,0.0,0.0,0.0,0.0,0.0,0.0,0.0,0.0,0.0,0.0,0.0,0.0,0.0,0.0,0.0,0.0,0.0,0.0,0.0,0.0,0.0,0.0,0.0,0.0,0.0,0.0,0.0,0.0,0.0,0.0,0.0,0.0,0.0,0.0,0.0,0.0,0.0,0.0,0.0,0.0,0.0,0.0,0.0,0.0,0.0,0.0,0.0,0.0,0.0,0.0,0.0,4.8235,5.5499,5.9218,5.7401,5.5899,5.2737,4.7404,0.0,0.0,0.0,0.0,0.0,0.0,0.0,0.0,0.0,0.0,0.0,0.0,0.0,0.0,0.0,0.0,0.0,0.0,0.0,0.0,0.0,0.0,0.0,0.0,0.0,0.0,0.0,0.0,0.0,0.0,0.0,0.0,0.0,0.0,0.0,0.0,0.0,0.0,0.0,0.0,0.0,0.0,0.0,0.0,0.0,0.0,0.0,0.0,0.0,0.0,0.0,0.0,0.0,0.0,0.0,0.0,0.0,0.0,0.0,0.0,0.0,0.0,0.0,0.0,0.0,0.0,0.0,0.0,0.0,0.0,0.0,0.0,0.0,0.0,0.0,0.0,0.0,0.0,0.0,0.0,0.0,0.0,0.0,0.0,0.0,0.0,0.0,0.0,0.0,0.0,0.0,0.0,0.0,0.0,0.0,0.0,0.0,0.0,0.0,0.0,0.0,0.0,0.0,0.0,4.5311,5.3591,5.8177,6.0301,5.9408,5.7586,5.4414,4.9549,0.0,0.0,0.0,0.0,0.0,0.0,0.0,0.0,0.0,0.0,0.0,0.0,0.0,0.0,0.0,0.0,0.0,0.0,0.0,0.0,0.0,0.0,0.0,0.0,0.0,0.0,0.0,0.0,0.0,0.0,0.0,0.0,0.0,0.0,0.0,0.0,0.0,0.0,0.0,0.0,0.0,0.0,0.0,0.0,0.0,0.0,0.0,0.0,0.0,0.0,0.0,0.0,0.0,0.0,0.0,0.0,0.0,0.0,0.0,0.0,0.0,0.0,0.0,0.0,0.0,0.0,0.0,0.0,0.0,0.0,0.0,0.0,0.0,0.0,0.0,0.0,0.0,0.0,0.0,0.0,0.0,0.0,0.0,0.0,0.0,0.0,0.0,0.0,0.0,0.0,0.0,0.0,0.0,0.0,0.0,0.0,0.0,0.0,0.0,0.0,0.0,0.0,0.0,4.6254,5.2135,5.6878,5.9747,6.064,5.8879,5.6823,5.3468,4.8327,4.2017,0.0,0.0,0.0,0.0,0.0,0.0,0.0,0.0,0.0,0.0,0.0,0.0,0.0,0.0,0.0,0.0,0.0,0.0,0.0,0.0,0.0,0.0,0.0,0.0,0.0,0.0,0.0,0.0,0.0,0.0,0.0,0.0,0.0,0.0,0.0,0.0,0.0,0.0,0.0,0.0,0.0,0.0,0.0,0.0,0.0,0.0,0.0,0.0,0.0,0.0,0.0,0.0,0.0,0.0,0.0,0.0,0.0,0.0,0.0,0.0,0.0,0.0,0.0,0.0,0.0,0.0,0.0,0.0,0.0,0.0,0.0,0.0,0.0,0.0,0.0,0.0,0.0,0.0,0.0,0.0,0.0,0.0,0.0,0.0,0.0,0.0,0.0,0.0,0.0,0.0,0.0,0.0,0.0,0.0,0.0,0.0,0.0,0.0,0.0,0.0,0.0,0.0,5.3152,5.7771,5.9126,6.0794,6.0701,5.8017,5.5592,5.1845,4.6254,4.094,0.0,0.0,0.0,0.0,0.0,0.0,0.0,0.0,0.0,0.0,0.0,0.0,0.0,0.0,0.0,0.0,0.0,0.0,0.0,0.0,0.0,0.0,0.0,0.0,0.0,0.0,0.0,0.0,0.0,0.0,0.0,0.0,0.0,0.0,0.0,0.0,0.0,0.0,0.0,0.0,0.0,0.0,0.0,0.0,0.0,0.0,0.0,0.0,0.0,0.0,0.0,0.0,0.0,0.0,0.0,0.0,0.0,0.0,0.0,0.0,0.0,0.0,0.0,0.0,0.0,0.0,0.0,0.0,0.0,0.0,0.0,0.0,0.0,0.0,0.0,0.0,0.0,0.0,0.0,0.0,0.0,0.0,0.0,0.0,0.0,0.0,0.0,0.0,0.0,0.0,0.0,0.0,0.0,0.0,0.0,0.0,0.0,0.0,0.0,0.0,0.0,0.0,5.4845,5.9187,6.0517,6.1348,6.0701,5.8017,5.476,5.0266,4.419,3.9294,0.0,0.0,0.0,0.0,0.0,0.0,0.0,0.0,0.0,0.0,0.0,0.0,0.0,0.0,0.0,0.0,0.0,0.0,0.0,0.0,0.0,0.0,0.0,0.0,0.0,0.0,0.0,0.0,0.0,0.0,0.0,0.0,0.0,0.0,0.0,0.0,0.0,0.0,0.0,0.0,0.0,0.0,0.0,0.0,0.0,0.0,0.0,0.0,0.0,0.0,0.0,0.0,0.0,0.0,0.0,0.0,0.0,0.0,0.0,0.0,0.0,0.0,0.0,0.0,0.0,0.0,0.0,0.0,0.0,0.0,0.0,0.0,0.0,0.0,0.0,0.0,0.0,0.0,0.0,0.0,0.0,0.0,0.0,0.0,0.0,0.0,0.0,0.0,0.0,0.0,0.0,0.0,0.0,0.0,0.0,0.0,0.0,0.0,0.0,0.0,0.0,0.0,5.6361,6.0855,0.0,6.2025,6.1163,5.8048,5.4668,5.0266,4.456,0.0,0.0,0.0,0.0,0.0,0.0,0.0,0.0,0.0,0.0,0.0,0.0,0.0,0.0,0.0,0.0,0.0,0.0,0.0,0.0,0.0,0.0,0.0,0.0,0.0,0.0,0.0,0.0,0.0,0.0,0.0,0.0,0.0,0.0,0.0,0.0,0.0,0.0,0.0,0.0,0.0,0.0,0.0,0.0,0.0,0.0,0.0,0.0,0.0,0.0,0.0,0.0,0.0,0.0,0.0,0.0,0.0,0.0,0.0,0.0,0.0,0.0,0.0,0.0,0.0,0.0,0.0,0.0,0.0,0.0,0.0,0.0,0.0,0.0,0.0,0.0,0.0,0.0,0.0,0.0,0.0,0.0,0.0,0.0,0.0,0.0,0.0,0.0,0.0,0.0,0.0,0.0,0.0,0.0,0.0,0.0,0.0,0.0,0.0,0.0,0.0,0.0,5.0513,5.7469,6.1963,0.0,6.2829,6.1779,5.8387,5.4976,5.0513,4.4652,0.0,0.0,0.0,0.0,0.0,0.0,0.0,0.0,0.0,0.0,0.0,0.0,0.0,0.0,0.0,0.0,0.0,0.0,0.0,0.0,0.0,0.0,0.0,0.0,0.0,0.0,0.0,0.0,0.0,0.0,0.0,0.0,0.0,0.0,0.0,0.0,0.0,0.0,0.0,0.0,0.0,0.0,0.0,0.0,0.0,0.0,0.0,0.0,0.0,0.0,0.0,0.0,0.0,0.0,0.0,0.0,0.0,0.0,0.0,0.0,0.0,0.0,0.0,0.0,0.0,0.0,0.0,0.0,0.0,0.0,0.0,0.0,0.0,0.0,0.0,0.0,0.0,0.0,0.0,0.0,0.0,0.0,0.0,0.0,0.0,0.0,0.0,0.0,0.0,0.0,0.0,0.0,0.0,0.0,0.0,0.0,0.0,0.0,0.0,0.0,0.0,0.0,5.1722,5.8054,6.2306,6.366,6.3814,6.2429,5.9126,5.5715,5.0851,0.0,0.0,0.0,0.0,0.0,0.0,0.0,0.0,0.0,0.0,0.0,0.0,0.0,0.0,0.0,0.0,0.0,0.0,0.0,0.0,0.0,0.0,0.0,0.0,0.0,0.0,0.0,0.0,0.0,0.0,0.0,0.0,0.0,0.0,0.0,0.0,0.0,0.0,0.0,0.0,0.0,0.0,0.0,0.0,0.0,0.0,0.0,0.0,0.0,0.0,0.0,0.0,0.0,0.0,0.0,0.0,0.0,0.0,0.0,0.0,0.0,0.0,0.0,0.0,0.0,0.0,0.0,0.0,0.0,0.0,0.0,0.0,0.0,0.0,0.0,0.0,0.0,0.0,0.0,0.0,0.0,0.0,0.0,0.0,0.0,0.0,0.0,0.0,0.0,0.0,0.0,0.0,0.0,0.0,0.0,0.0,0.0,0.0,0.0,0.0,0.0,0.0,0.0,0.0,5.8429,6.2829,6.3722,6.3814,6.2829,6.0393,5.7555,5.3398,4.7496,0.0,0.0,0.0,0.0,0.0,0.0,0.0,0.0,0.0,0.0,0.0,0.0,0.0,0.0,0.0,0.0,0.0,0.0,0.0,0.0,0.0,0.0,0.0,0.0,0.0,0.0,0.0,0.0,0.0,0.0,0.0,0.0,0.0,0.0,0.0,0.0,0.0,0.0,0.0,0.0,0.0,0.0,0.0,0.0,0.0,0.0,0.0,0.0,0.0,0.0,0.0,0.0,0.0,0.0,0.0,0.0,0.0,0.0,0.0,0.0,0.0,0.0,0.0,0.0,0.0,0.0,0.0,0.0,0.0,0.0,0.0,0.0,0.0,0.0,0.0,0.0,0.0,0.0,0.0,0.0,0.0,0.0,0.0,0.0,0.0,0.0,0.0,0.0,0.0,0.0,0.0,0.0,0.0,0.0,0.0,0.0,0.0,0.0,0.0,0.0,0.0,0.0,5.2282,5.8864,6.3183,6.4131,6.461,6.4114,6.2392,6.0269,5.6462,5.0506,0.0,0.0,0.0,0.0,0.0,0.0,0.0,0.0,0.0,0.0,0.0,0.0,0.0,0.0,0.0,0.0,0.0,0.0,0.0,0.0,0.0,0.0,0.0,0.0,0.0,0.0,0.0,0.0,0.0,0.0,0.0,0.0,0.0,0.0,0.0,0.0,0.0,0.0,0.0,0.0,0.0,0.0,0.0,0.0,0.0,0.0,0.0,0.0,0.0,0.0,0.0,0.0,0.0,0.0,0.0,0.0,0.0,0.0,0.0,0.0,0.0,0.0,0.0,0.0,0.0,0.0,0.0,0.0,0.0,0.0,0.0,0.0,0.0,0.0,0.0,0.0,0.0,0.0,0.0,0.0,0.0,0.0,0.0,0.0,0.0,0.0,0.0,0.0,0.0,0.0,0.0,0.0,0.0,0.0,0.0,0.0,0.0,0.0,0.0,0.0,0.0,0.0,5.2966,5.9227,6.3419,6.4754,6.5801,6.5822,6.445,6.3192,5.9643,5.307,0.0,0.0,0.0,0.0,0.0,0.0,0.0,0.0,0.0,0.0,0.0,0.0,0.0,0.0,0.0,0.0,0.0,0.0,0.0,0.0,0.0,0.0,0.0,0.0,0.0,0.0,0.0,0.0,0.0,0.0,0.0,0.0,0.0,0.0,0.0,0.0,0.0,0.0,0.0,0.0,0.0,0.0,0.0,0.0,0.0,0.0,0.0,0.0,0.0,0.0,0.0,0.0,0.0,0.0,0.0,0.0,0.0,0.0,0.0,0.0,3.932,0.0,0.0,0.0,0.0,0.0,0.0,0.0,0.0,0.0,0.0,0.0,0.0,0.0,0.0,0.0,0.0,0.0,0.0,0.0,0.0,0.0,0.0,0.0,0.0,0.0,0.0,0.0,0.0,0.0,0.0,0.0,0.0,0.0,0.0,0.0,0.0,0.0,0.0,0.0,0.0,0.0,5.3004,5.9227,6.3419,6.4754,6.5801,6.5736,6.4138,6.351,6.0665,5.4752,0.0,0.0,0.0,0.0,0.0,0.0,0.0,0.0,0.0,0.0,0.0,0.0,0.0,0.0,0.0,0.0,0.0,0.0,0.0,0.0,0.0,0.0,0.0,0.0,0.0,0.0,0.0,0.0,0.0,0.0,0.0,0.0,0.0,0.0,0.0,0.0,0.0,0.0,0.0,0.0,0.0,0.0,0.0,0.0,0.0,0.0,0.0,0.0,0.0,0.0,0.0,0.0,0.0,0.0,0.0,0.0,0.0,0.0,0.0,0.0,0.0,4.2312,0.0,0.0,0.0,0.0,0.0,0.0,0.0,0.0,0.0,0.0,0.0,0.0,0.0,0.0,0.0,0.0,0.0,0.0,0.0,0.0,0.0,0.0,0.0,0.0,0.0,0.0,0.0,0.0,0.0,0.0,0.0,0.0,0.0,0.0,0.0,0.0,0.0,0.0,0.0,0.0,5.3139,5.956,6.384,6.4865,6.6154,6.6454,6.5248,6.4422,6.1871,5.699,5.1689,0.0,0.0,0.0,0.0,0.0,0.0,0.0,0.0,0.0,0.0,0.0,0.0,0.0,0.0,0.0,0.0,0.0,0.0,0.0,0.0,0.0,0.0,0.0,0.0,0.0,0.0,0.0,0.0,0.0,0.0,0.0,0.0,0.0,0.0,0.0,0.0,0.0,0.0,0.0,0.0,0.0,0.0,0.0,0.0,0.0,0.0,0.0,0.0,0.0,0.0,0.0,0.0,0.0,0.0,5.4995,5.5144,5.6346,5.7274,5.7629,5.2695,4.9553,4.7796,0.0,0.0,0.0,0.0,0.0,0.0,0.0,0.0,0.0,0.0,0.0,0.0,0.0,0.0,0.0,0.0,0.0,0.0,0.0,0.0,0.0,0.0,0.0,0.0,0.0,5.0854,4.9815,0.0,0.0,0.0,0.0,0.0,0.0,0.0,0.0,0.0,0.0,0.0,0.0,5.3327,5.9783,6.3981,6.4755,6.619,6.6822,6.6132,6.5083,6.2804,5.8913,5.4022,4.9253,0.0,0.0,0.0,0.0,0.0,0.0,0.0,0.0,0.0,0.0,0.0,0.0,0.0,0.0,0.0,0.0,0.0,0.0,0.0,0.0,0.0,0.0,0.0,0.0,0.0,0.0,0.0,0.0,0.0,0.0,0.0,0.0,3.5968,3.6669,0.0,0.0,0.0,0.0,0.0,0.0,0.0,0.0,0.0,0.0,0.0,0.0,0.0,0.0,5.4875,5.6825,5.8441,5.967,6.1104,6.209,6.26,6.3349,6.4067,6.4665,6.3887,0.0,5.3952,5.3294,0.0,0.0,0.0,0.0,0.0,0.0,0.0,0.0,0.0,0.0,0.0,0.0,0.0,0.0,0.0,0.0,0.0,0.0,0.0,0.0,0.0,0.0,5.4477,5.5022,5.511,5.5106,0.0,5.2053,4.8636,4.5967,0.0,0.0,0.0,0.0,0.0,0.0,0.0,0.0,5.3541,5.9043,6.2803,6.3996,6.5038,6.5308,6.4412,6.4396,6.2873,5.9277,5.6388,5.2895,4.8628,4.4095,0.0,0.0,0.0,0.0,0.0,0.0,0.0,0.0,0.0,0.0,0.0,0.0,0.0,0.0,0.0,0.0,0.0,0.0,0.0,0.0,0.0,0.0,0.0,0.0,0.0,0.0,0.0,0.0,0.0,3.7032,3.9619,4.0588,4.0427,3.9966,0.0,0.0,0.0,0.0,0.0,0.0,0.0,0.0,0.0,5.3144,5.5538,5.8145,6.1134,6.3857,6.5682,6.664,6.8345,6.9303,6.9572,7.026,7.0709,7.1009,7.1398,6.9123,6.4814,6.0446,5.6735,5.3503,0.0,0.0,0.0,0.0,0.0,5.1558,5.3234,5.3384,0.0,0.0,0.0,0.0,0.0,0.0,0.0,0.0,0.0,0.0,0.0,0.0,0.0,5.7052,5.7076,5.7122,5.7506,5.6668,5.4783,0.0,4.9047,4.6492,4.1791,0.0,0.0,0.0,0.0,0.0,5.3633,5.8783,6.2149,6.2719,6.3479,6.3769,6.335,6.3076,6.2102,6.0176,5.7729,5.4883,5.1579,4.7531,4.383,0.0,0.0,0.0,0.0,0.0,0.0,0.0,0.0,0.0,0.0,0.0,0.0,0.0,0.0,0.0,0.0,0.0,0.0,0.0,0.0,0.0,0.0,0.0,0.0,0.0,0.0,0.0,0.0,4.0766,4.3266,4.4676,4.4629,4.4184,0.0,0.0,0.0,0.0,0.0,0.0,5.1148,5.3282,5.5682,5.8466,6.0986,6.3535,6.6144,6.8818,7.0631,7.1578,7.3095,7.3897,7.4045,7.455,7.4758,7.4788,7.5322,7.4491,7.2353,6.6875,6.2929,6.0086,5.6971,5.5743,5.5743,5.5743,5.6701,5.8231,6.0027,6.0296,5.9757,5.8976,0.0,5.2818,4.9814,0.0,0.0,0.0,0.0,5.1999,5.5052,0.0,5.8404,5.8586,5.8554,5.8463,5.8402,5.9316,5.8924,0.0,5.3124,5.0821,4.5946,0.0,0.0,0.0,0.0,4.9327,5.4153,5.8578,6.134,6.1507,6.1958,6.227,6.227,6.1819,6.1257,6.0584,5.8491,5.6151,5.3708,5.035,4.6876,0.0,0.0,0.0,0.0,0.0,0.0,0.0,0.0,0.0,0.0,0.0,0.0,0.0,0.0,0.0,0.0,0.0,0.0,0.0,0.0,0.0,0.0,0.0,0.0,0.0,0.0,0.0,0.0,0.0,0.0,4.889,4.9642,0.0,0.0,0.0,0.0,5.0662,5.3232,5.5227,5.6527,5.9015,6.1011,6.2463,6.4434,6.6726,6.934,7.0158,7.1498,7.3363,7.3486,7.3799,7.4372,7.4401,7.4438,7.4438,7.443,7.3741,7.2459,7.1696,6.9482,6.6281,6.3647,6.2599,6.2599,6.2599,6.3797,6.5652,6.7029,6.7479,6.7239,6.5922,6.0699,5.4629,5.3148,5.039,0.0,0.0,5.2684,5.4323,5.691,5.85,5.9582,6.0135,6.017,5.9988,5.9597,6.0023,5.9603,0.0,5.558,5.3808,4.9387,0.0,4.4789,4.7352,4.8812,5.1225,5.555,5.8352,6.0118,6.0688,6.0804,6.0831,6.0831,6.0742,6.0498,5.99,5.8651,5.6981,5.4801,5.2285,4.9337,4.5956,4.2175,0.0,0.0,0.0,0.0,0.0,0.0,0.0,0.0,0.0,0.0,0.0,0.0,0.0,0.0,0.0,0.0,0.0,0.0,0.0,0.0,0.0,0.0,0.0,0.0,0.0,0.0,0.0,0.0,5.2683,5.3782,0.0,0.0,5.2939,5.3529,5.5695,5.8597,6.0801,6.2139,6.4233,6.5793,6.6675,6.7855,6.9116,7.0392,7.1154,7.2015,7.3056,7.3492,7.3804,7.4003,7.4003,7.4003,7.4003,7.4003,7.352,7.2639,7.2147,7.0425,6.7917,6.6126,6.5421,6.5421,6.5421,6.6126,6.7301,6.8591,6.8767,6.8144,6.6342,6.2595,5.8614,5.7679,5.5416,5.3495,5.522,5.6318,5.735,5.8777,5.9647,6.0161,6.0552,6.0392,6.0121,5.9871,5.9861,5.949,5.8067,5.7386,5.6007,5.291,5.051,4.9432,5.0703,5.1575,5.3065,5.5664,5.7736,5.9033,5.9245,5.9272,5.9272,5.9272,5.9272,5.9192,5.8981,5.7868,5.671,5.5556,5.3248,5.0758,4.8081,4.4518,4.1258,0.0,0.0,0.0,0.0,0.0,0.0,0.0,0.0,0.0,0.0,0.0,0.0,0.0,0.0,0.0,0.0,0.0,0.0,0.0,0.0,0.0,0.0,0.0,0.0,0.0,0.0,5.3223,5.5648,5.7103,5.7755,5.7311,5.722,5.7912,5.9571,6.2199,6.4149,6.5056,6.6668,6.7755,6.8207,6.8891,6.9687,7.0453,7.114,7.1751,7.2322,7.2778,7.2984,7.2984,7.2984,7.2984,7.2984,7.2984,7.2611,7.1989,7.1651,7.0483,6.8918,6.7936,6.7684,6.7827,6.7627,6.7942,6.8636,6.9502,6.9353,6.8618,6.6964,6.4551,6.2194,6.1439,5.9602,5.7918,5.8666,5.9047,5.9387,6.0164,6.0509,6.0717,6.1106,6.1007,6.0661,6.0129,5.9589,5.9051,5.8469,5.8119,5.7294,5.5368,5.3787,5.2981,5.3556,5.4001,5.4785,5.6301,5.7686,5.8523,5.8523,5.8523,5.8523,5.8523,5.834,5.8235,5.8235,5.6981,5.5961,5.536,5.3504,5.1413,4.9139,4.517,4.1467,3.8072,0.0,0.0,0.0,0.0,0.0,0.0,0.0,0.0,0.0,0.0,0.0,0.0,0.0,0.0,0.0,0.0,0.0,0.0,0.0,0.0,0.0,0.0,0.0,4.5979,5.1024,5.5321,5.7731,5.9535,6.0581,6.0581,6.0608,6.1129,6.2326,6.4055,6.5119,6.5129,6.6249,6.6872,6.6872,6.7479,6.8384,6.955,7.0133,7.0729,7.1298,7.1298,7.1298,7.1298,7.1298,7.1298,7.1298,7.1298,7.1,7.0459,7.0431,7.0079,6.9532,6.9272,6.9548,7.0033,6.9435,6.9576,7.009,7.009,6.9688,6.9101,6.8327,6.6751,6.4994,6.4241,6.2661,6.1099,6.1099,6.0655,6.0352,6.0917,6.1099,6.1293,6.1868,6.2063,6.1711,6.0535,5.9385,5.8392,5.7852,5.7837,5.7629,5.6701,5.5778,5.5386,5.5909,5.5987,0.0,5.7564,5.8183,5.8523,5.8549,5.8549,5.8549,5.8549,5.8026,5.7695,5.7669,5.6013,5.4811,5.421,5.3086,5.1387,4.9143,4.4202,3.9773,3.5839,0.0,0.0,0.0,0.0,0.0,0.0,0.0,0.0,0.0,0.0,0.0,0.0,0.0,0.0,0.0,0.0,0.0,0.0,0.0,0.0,0.0,0.0,4.7241,4.9261,5.4035,5.8042,6.0002,6.1769,6.2798,6.2798,6.3193,6.3747,6.4486,6.5752,6.6371,6.6015,6.6279,6.6464,6.6464,6.6239,6.6847,6.8391,6.8576,6.8972,6.9527,6.9527,6.9527,6.9527,6.9527,6.9527,6.9527,6.9527,6.9406,6.9221,6.884,6.8576,6.8501,6.9209,6.9598,6.9707,6.9571,6.9598,6.9735,6.9735,6.9625,6.9357,6.8419,6.723,6.5914,6.463,6.3042,6.1659,6.1241,6.0655,6.0352,6.0917,6.1424,6.1894,6.2443,6.2914,6.2926,6.1775,6.0588,5.9568,5.9055,5.8595,5.8123,5.7502,5.7468,5.7634,5.7765,0.0,0.0,5.8235,5.8418,5.8679,5.9133,5.916,5.916,5.916,5.8601,5.7921,0.0,5.5412,5.421,5.3635,5.2485,5.076,4.8515,4.5484,4.2315,0.0,0.0,0.0,0.0,0.0,0.0,0.0,0.0,0.0,0.0,0.0,0.0,0.0,0.0,0.0,0.0,0.0,0.0,0.0,0.0,0.0,0.0,4.8068,5.1858,5.4112,5.719,5.9846,6.1596,6.3358,6.4404,6.4404,6.5136,6.5737,6.6076,6.6939,6.7122,6.6338,6.6286,6.6286,6.6286,6.6181,6.6834,6.8324,6.8847,6.9239,6.9537,6.9537,6.9537,6.9537,6.9276,6.9171,0.0,6.891,6.8805,6.8779,6.844,6.835,0.0,0.0,0.0,0.0,0.0,6.8546,6.8546,6.8546,6.8546,6.8399,6.7614,6.6939,6.62,6.4805,6.3261,6.188,6.1293,6.029,5.9663,6.0535,6.1189,6.1816,6.2588,6.3254,6.3437,6.2522,6.1215,6.0117,5.9777,0.0,0.0,5.8427,5.8862,5.9192,5.9192,5.9192,5.9192,0.0,5.9192,5.9359,5.9699,5.9725,5.962,5.9421,5.8836,0.0,0.0,0.0,5.3844,5.306,5.2093,0.0,0.0,0.0,0.0,0.0,0.0,0.0,0.0,4.0063,4.1568,0.0,0.0,0.0,0.0,0.0,0.0,0.0,0.0,0.0,0.0,0.0,0.0,0.0,0.0,0.0,0.0,5.2485,5.6379,5.929,6.0326,6.1372,6.2902,6.456,6.558,6.558,6.6495,6.7122,6.72,6.7697,6.7514,6.6442,0.0,0.0,0.0,0.0,6.7682,6.8884,7.0049,7.0598,7.0598,7.0598,7.0598,7.0572,7.0049,6.9788,6.9762,6.9223,6.8988,6.8988,6.8988,6.8988,6.8884,6.7749,6.7279,6.7279,6.7279,6.7279,0.0,0.0,0.0,0.0,6.6652,6.6442,6.6155,6.4979,6.3437,6.1947,6.1372,6.0013,5.8967,6.0117,6.0875,6.157,6.2719,6.3463,6.3724,6.3149,6.1726,6.0551,6.0535,5.9699,5.915,5.963,5.996,6.0185,6.0185,6.0185,6.0185,6.0185,6.0185,6.0211,6.0263,0.0,0.0,5.963,5.8967,5.8131,5.6981,5.5151,5.3635,5.2537,5.1988,5.1727,5.1805,5.0812,4.9531,4.7986,4.8038,4.8262,4.8469,4.5684,4.5762,0.0,0.0,0.0,0.0,0.0,0.0,0.0,0.0,0.0,0.0,0.0,0.0,0.0,0.0,0.0,5.1779,5.5106,5.8218,6.1095,6.3149,6.4508,6.4848,6.5998,6.6756,6.6768,6.6965,6.7279,6.7775,6.7932,6.7671,6.6965,6.6521,0.0,6.6913,6.7044,6.788,6.9527,7.0232,7.0598,7.0598,0.0,0.0,7.0598,7.0468,7.0415,7.0415,7.0311,7.0259,7.0259,7.0259,7.0259,7.0128,6.8936,6.8466,6.8466,6.8466,6.8466,6.8466,6.8466,6.8466,6.8361,6.7854,6.7331,6.673,6.558,6.4012,0.0,6.1973,6.0875,6.0169,6.1319,6.2051,6.2745,6.3894,6.4639,6.49,6.4286,6.3567,6.2862,6.2379,6.2118,6.1894,6.1566,6.0771,6.0185,6.0185,6.0185,6.0185,6.0185,6.0185,6.0368,6.0864,6.0917,6.0901,6.0797,5.9803,5.8741,5.7617,5.502,5.3243,5.2537,5.238,5.2537,5.3034,5.2825,5.2563,5.2223,5.2668,5.3144,5.3569,5.0254,4.985,0.0,0.0,0.0,0.0,0.0,0.0,0.0,0.0,0.0,0.0,0.0,4.3618,4.6503,0.0,5.1192,5.4063,5.6711,5.931,6.1836,6.4165,6.5673,6.5827,6.6834,6.754,6.7566,6.7802,6.8089,6.8403,6.869,6.8586,6.7985,6.7985,6.8115,6.8377,6.869,6.9396,7.0546,7.1147,7.1461,7.1461,7.1461,7.1461,7.1435,7.1147,7.099,7.099,7.0703,7.0598,7.0598,7.0598,7.0598,7.0546,6.9945,6.971,6.971,6.971,6.971,6.9684,6.937,6.9265,6.9135,6.8272,6.7775,6.7331,6.6181,6.4822,6.3529,6.2992,6.2037,6.1293,6.2182,6.2809,6.3463,6.4286,6.4979,6.5318,6.5031,6.4508,6.4012,6.3685,6.3437,6.3149,6.2926,6.2104,6.1424,6.1136,6.1084,6.1084,6.1084,6.1084,6.1215,6.1502,6.1555,6.1424,6.1099,6.0039,5.8924,5.7773,5.6066,5.4837,5.4236,5.4497,5.4942,5.555,5.5804,5.5961,5.5961,5.6223,5.6667,5.719,5.5472,5.4884,0.0,0.0,0.0,0.0,0.0,0.0,0.0,0.0,4.0463,4.357,4.5821,4.8025,5.0627,5.2102,5.3681,5.596,5.7969,6.0057,6.2274,6.4453,6.5878,6.6172,6.7216,6.7893,6.7893,6.8268,6.8581,6.8711,6.9127,6.9231,6.8893,6.9394,6.9792,6.9896,7.0451,7.1017,7.1565,7.2062,7.2297,7.2297,7.2297,7.2297,7.2271,7.1801,7.1565,7.1565,7.1121,7.0938,7.0938,7.0938,7.0938,7.0938,7.0938,7.0938,7.0886,7.0677,7.0598,7.0494,6.9893,6.9684,6.9527,6.8481,6.8089,6.7828,6.6887,6.5789,6.477,6.4325,6.3475,6.2795,6.3358,6.375,6.4168,6.4743,6.5214,6.5528,6.5423,6.5109,6.4809,6.4678,6.4325,6.3959,6.3855,6.3463,6.2914,6.2234,6.2089,6.201,6.201,6.201,6.201,6.201,6.201,6.1738,6.1163,6.0248,5.9238,5.8087,5.7556,5.7033,5.6432,5.6981,5.7529,5.8009,5.8549,5.8836,5.8836,5.8836,5.9072,5.9578,5.9813,5.9343,3.1646,3.3796,3.7717,4.0617,4.2134,4.3258,0.0,0.0,4.6128,4.8173,5.0385,5.2426,5.4005,5.4808,5.5976,5.8254,5.9264,6.0583,6.2864,6.4709,6.5826,6.5832,6.6875,6.7569,6.7569,6.762,6.7851,6.8322,6.8399,6.863,6.9024,6.9584,7.0101,7.0568,7.1062,7.1592,7.2193,7.2271,7.2297,7.2297,7.2297,7.2297,7.2297,7.2219,7.2193,7.2193,7.214,7.2114,7.2114,7.2114,7.2114,7.2114,7.2114,7.2114,7.1984,7.0964,7.0598,7.0494,6.9893,6.9684,6.9579,6.891,6.8403,6.7958,6.7828,6.6991,6.6076,6.6024,6.5501,6.5136,6.5737,6.5554,6.5345,6.5946,6.6129,6.6024,6.5501,6.5763,6.592,6.5397,6.524,6.5031,6.4495,6.4339,6.3947,6.285,6.2287,6.201,6.201,6.201,6.201,6.201,6.201,6.1738,6.1163,6.1006,6.0431,5.929,5.916,5.8846,5.8235,5.8784,5.9133,5.9212,5.9751,6.0002,6.0002,6.0002,6.0028,6.0143,6.1189,6.1346,3.5249,3.7482,4.1131,4.4332,4.6679,4.8507,4.9667,5.0621,5.1666,5.313,5.4799,5.6208,5.6779,5.6928,5.7339,0.0,5.93,6.0313,6.2263,6.3747,6.4608,6.4608,6.4431,6.4891,6.6359,6.6503,6.6861,6.7758,6.845,6.9065,6.9586,7.0426,7.0973,7.1206,7.1713,7.2036,7.2297,7.2297,7.2297,7.2297,7.2297,7.2297,7.2297,7.2297,7.2297,7.2297,7.2297,7.2297,7.2297,7.2297,7.2297,7.2297,7.2297,7.2297,7.2245,7.1775,7.1592,7.1513,7.0886,7.0703,7.0546,6.9631,6.9187,6.8926,6.8586,6.81,6.7734,6.7734,6.7552,6.7383,6.7305,6.7096,6.6887,6.6782,6.6756,6.6678,6.6442,6.6573,6.6599,6.6024,6.5894,6.5711,6.5136,6.4704,6.4339,6.3842,6.3332,6.3004,6.3004,6.3004,6.3004,6.3004,6.3004,6.29,6.2626,6.26,6.226,6.1424,6.1372,6.1136,6.0561,6.1084,6.1372,6.1372,6.1947,6.2234,6.2234,6.2234,6.2234,6.2234,6.2731,6.3018,3.86,4.0927,4.4098,4.7504,5.0314,5.2557,5.369,5.4713,5.5625,5.6372,5.7393,5.8147,5.8036,5.7963,5.8127,5.883,5.9633,6.0713,6.2245,6.3425,6.4028,6.3726,6.2697,6.2664,6.4353,6.4776,6.5566,6.7035,6.8165,6.9108,6.9777,7.0699,7.1214,7.1214,7.1682,7.1902,7.1902,7.1902,7.1902,7.1902,7.1902,7.1902,7.1902,7.1902,7.199,7.2122,7.2122,7.2166,7.2297,7.2297,7.2297,7.2297,7.2297,7.2297,7.2297,7.2297,7.2297,7.2219,7.1618,7.1409,7.12,7.0076,6.9684,6.9579,6.8962,6.8805,6.8805,6.8805,6.8805,6.8701,6.8324,6.8115,6.788,6.7436,6.7331,6.7305,6.7122,6.7227,6.7174,6.6625,6.639,6.6155,6.5711,6.5162,6.477,6.477,6.4404,6.4077,6.3763,6.371,6.371,6.371,6.371,6.371,6.371,6.371,6.3489,6.3097,6.3071,6.2862,6.2481,6.2835,6.3071,6.3071,6.3463,6.371,6.371,6.371,6.371,6.371,6.3829,6.4142,4.1004,4.4021,4.6985,5.0416,5.3007,5.5004,5.6044,5.6785,5.7148,5.6848,5.7232,5.7516,5.7109,5.7524,5.8252,5.9307,6.0839,6.232,6.3475,6.4555,6.4856,6.3827,6.2697,6.1818,0.0,6.2285,6.3818,6.6004,6.721,6.8315,6.9351,6.9921,7.0235,7.0235,7.0681,7.0948,7.0948,7.0948,7.0948,7.0948,7.0948,7.0948,7.0948,7.0948,7.117,7.1638,7.1638,7.1902,7.2297,7.2297,7.2297,7.2297,7.2297,7.2297,7.2297,7.2297,7.2297,7.2219,7.1618,7.1409,7.12,7.0076,6.9684,6.9579,6.8962,6.8805,6.8805,6.8805,6.8805,6.8805,6.8779,6.8403,6.7985,6.7958,6.7958,6.7802,6.7227,6.754,6.7802,6.7186,6.6652,6.6286,6.63,6.5763,6.5345,6.5345,6.5345,6.4926,6.3867,6.371,6.371,6.371,6.371,6.371,6.371,6.371,6.371,6.3684,6.3684,6.3684,6.3658,6.3684,6.3684,6.3684,6.371,6.371,6.371,6.371,6.371,6.3698,6.4247,6.4469,4.2474,4.5961,4.9198,5.2178,5.5158,5.7582,5.829,5.887,5.9034,5.8215,5.7333,5.6742,5.6972,5.7161,5.7926,5.9734,6.1466,6.2822,6.3576,6.4346,6.4329,6.3249,6.2144,0.0,0.0,0.0,0.0,6.4831,6.6061,6.7342,6.8779,6.9744,7.019,7.019,7.0637,7.0904,7.0904,7.0904,7.0904,7.0904,7.0904,7.0904,7.0904,7.0904,7.1151,7.1594,7.1594,7.1858,7.2297,7.2297,7.2297,7.2297,7.2297,7.2297,7.2297,7.2297,7.2297,7.2271,7.2062,7.201,7.1879,7.1069,7.0834,7.0729,7.018,6.9997,6.9997,6.9997,6.9997,6.9997,6.9997,6.9866,6.9605,6.9213,6.9135,6.8952,6.8377,6.8361,6.8377,6.7802,6.754,6.7279,6.6887,6.6652,6.6521,6.6521,6.5867,6.524,6.4874,6.4861,6.4861,6.4861,6.4861,6.4861,6.4861,6.4861,6.4861,6.4861,6.4861,6.4861,6.4861,6.4861,6.4861,6.4861,6.4861,6.4861,6.4861,6.4861,6.4861,6.4822,6.5423,6.5684,4.503,4.8687,5.2,5.4561,5.7273,5.9382,5.9709,5.991,5.9608,5.8127,5.6194,5.4913,5.5429,5.568,5.6646,5.9056,6.1517,6.3324,6.3877,6.4605,6.4655,6.355,6.2621,6.1642,0.0,0.0,0.0,6.3425,6.4781,6.6338,6.8221,6.9338,6.9921,6.9921,7.019,7.0369,7.0369,7.0369,7.0471,7.0674,7.0674,7.0674,7.0674,7.0674,7.0841,7.1081,7.1081,7.1373,7.1814,7.1814,7.1814,7.1814,7.1814,7.1814,7.1814,7.1814,7.1814,7.1858,7.2166,7.2297,7.2193,7.1592,7.1409,7.1304,7.0755,7.0598,7.0598,7.0598,7.0598,7.0598,7.0598,7.0598,7.0442,6.984,6.9684,6.9527,6.8936,6.8805,6.8701,6.8377,6.8115,6.7854,6.7488,6.7227,6.7096,6.7096,6.6469,6.5998,6.5998,6.5998,6.5998,6.5998,6.5998,6.5998,6.5998,6.5998,6.5998,6.5998,6.5998,6.5998,6.5998,6.5998,6.5998,6.5998,6.5998,6.5998,6.5998,6.5998,6.5998,6.5998,6.639,6.6573,4.8699,5.2285,5.5326,5.7474,5.9232,6.0387,6.0362,5.991,5.8855,5.6595,5.3858,5.2026,0.0,0.0,5.4361,5.7323,6.1065,6.3802,6.4421,6.5409,6.571,0.0,0.0,0.0,0.0,0.0,0.0,6.1969,0.0,6.5476,6.7693,6.8804,6.9406,6.9406,6.9406,6.9406,6.9406,6.9431,6.9752,7.03,7.0325,7.0325,7.03,7.03,7.0271,7.019,7.019,7.0458,7.0904,7.0904,7.0904,7.0904,7.0904,7.0904,7.0904,7.0904,7.0904,7.1037,7.1902,7.221,7.2105,7.1557,7.1348,7.127,7.0748,7.0634,7.0634,7.0634,7.0634,7.0634,7.0634,7.0634,7.0434,6.9834,6.9746,6.9589,6.8973,6.8884,6.8884,6.8884,6.8481,6.8115,6.8115,6.7619,6.7227,6.7227,6.72,6.7148,6.7096,6.7096,6.7096,6.7096,6.7096,6.7096,6.7096,6.7122,6.7081,6.7096,6.7096,6.7096,6.7096,6.7096,6.7096,6.7096,6.7096,6.7096,6.7096,6.7096,6.7096,6.7096,6.7122,6.7148,5.2135,5.5451,5.7989,5.9357,6.0638,6.1466,6.1065,6.0211,5.8629,5.5652,5.1473,4.8654,0.0,0.0,0.0,5.5842,5.991,0.0,6.432,6.5409,0.0,6.5157,0.0,6.4279,6.2772,6.1994,0.0,0.0,6.3776,6.5476,6.7693,6.8804,6.9406,6.9406,6.9406,6.9406,6.9406,6.9853,7.0175,7.03,7.0727,7.0702,7.03,7.03,7.0271,7.019,7.019,7.0458,7.0904,7.0904,7.0904,7.0904,7.0904,7.0904,7.0904,7.0904,7.0904,7.0904,7.1196,7.1259,7.1259,7.1104,7.1052,7.1027,7.0828,7.1066,7.1329,7.1329,7.1329,7.1329,7.1329,7.111,7.0648,7.0081,7.0187,7.0291,6.9746,6.9899,7.0154,7.0154,7.0023,6.9919,6.9919,6.9422,6.903,6.903,6.8664,6.8048,6.72,6.7096,6.7096,6.7096,6.7096,6.7122,6.7096,6.7096,6.7096,6.7096,6.7096,6.7096,6.7096,6.7096,6.7096,6.7096,6.7096,6.7096,6.7096,6.7096,6.7096,6.7096,6.754,6.7749,5.5049,5.7888,5.9985,6.0839,6.1542,6.1702,6.0491,5.8723,5.6301,5.2749,4.823,4.5261,4.6387,4.6674,4.8458,5.38,0.0,0.0,6.2987,6.4132,6.4619,0.0,6.3888,0.0,6.2394,6.2049,6.2155,0.0,6.3918,6.5376,6.7317,6.8678,6.9406,6.9406,6.9677,6.9928,7.0154,7.0455,7.0803,7.0983,7.1309,7.1158,7.0677,7.0677,7.0361,6.9856,0.0,6.9991,7.0235,7.0235,7.0235,7.0235,7.0235,7.0235,7.0235,7.0235,7.0235,7.0235,7.0235,7.0235,7.028,7.077,7.0904,7.0904,7.0904,7.124,7.155,7.1347,7.1461,7.155,7.1373,7.1081,7.0731,7.0123,7.0364,7.0533,7.0015,7.0298,7.0598,7.0598,7.0598,7.0598,7.0598,7.0102,6.9684,6.9684,6.9171,6.857,6.7932,6.7854,6.7854,6.7854,6.7839,6.7839,6.7854,6.7854,6.7958,6.822,6.822,6.835,6.8612,6.8638,6.8638,6.8638,6.8638,6.8638,6.8638,6.8638,6.8638,6.8638,6.8978,6.9135,5.76,5.9784,6.1416,6.1893,6.1943,6.1296,5.9103,5.6141,5.2759,4.8854,4.4495,4.1738,4.2946,4.3953,4.6291,5.1407,5.6368,5.9933,6.0965,6.2111,6.2628,6.2147,6.1705,6.1432,6.1489,6.1613,6.2047,6.293,6.3785,6.4967,6.6698,6.822,6.9114,6.9325,6.9867,7.0485,7.1083,7.1158,7.1435,7.1912,7.1987,7.1686,7.1083,7.1083,7.048,6.9406,0.0,0.0,6.9406,6.9406,6.9406,6.9406,6.9406,6.9406,6.9406,6.9406,6.9406,6.9406,6.9406,6.9406,6.9541,7.0414,7.0681,7.0681,7.0681,7.1037,7.1329,7.0904,7.1081,7.1329,7.0904,7.0726,7.0579,7.0049,7.0292,7.0513,7.0049,7.0291,7.0636,7.0636,7.0636,7.0636,7.0722,7.0226,6.9834,6.9919,6.9448,6.904,6.904,6.891,6.8805,6.8805,6.8805,6.8805,6.8805,6.8805,6.904,6.9657,6.9684,6.9971,7.0572,7.0598,7.0598,7.0598,7.0598,7.0598,7.0598,7.0598,7.0598,7.0598,7.0598,7.0598,5.9985,6.1215,6.1893,6.1994,6.1667,6.0505,5.7318,5.3479,4.9463,4.5473,4.0869,3.8026,3.9555,4.0781,4.3361,4.8899,5.3921,5.7585,5.9016,6.0172,6.0701,0.0,5.9756,5.9745,6.0466,6.1232,0.0,0.0,0.0,6.3727,6.5754,6.6594,6.7569,6.8841,6.9355,7.0092,7.1083,7.1535,7.1811,7.1912,7.2364,7.2062,7.1083,7.1083,7.048,6.9406,0.0,0.0,6.9406,6.9406,6.9406,6.9406,6.9406,6.9406,6.9406,6.9406,6.9406,6.9406,6.9406,6.9406,6.9451,6.9631,6.9676,6.9676,6.9676,7.0011,7.0414,7.0324,7.0369,7.0414,7.0324,6.9966,6.9651,6.9551,6.9929,7.0235,7.0159,7.0533,7.0843,7.0843,7.0843,7.0975,7.1371,7.0922,7.0663,7.1052,7.0651,7.0285,7.0285,6.9406,6.8805,6.8805,6.8805,6.8805,6.8805,6.8805,6.904,6.9657,6.9684,6.9971,7.0572,7.0598,7.0598,7.0598,7.0598,7.0598,7.0598,7.0598,7.0598,7.0598,7.0598,7.0598,6.0861,6.1509,6.1538,6.0765,5.9616,5.7628,5.3775,4.9229,4.4714,4.0803,3.6861,3.4519,3.5819,3.7328,4.0059,4.5243,4.9961,5.3527,5.5138,5.653,5.7264,5.7043,5.6849,5.7178,5.8297,5.9503,6.0353,0.0,0.0,6.1881,6.3898,6.5329,6.6889,6.8674,6.9522,7.0614,7.1937,7.2213,7.2339,7.2339,7.2568,7.2163,7.1083,7.1083,7.048,6.9406,6.9406,0.0,6.9406,6.9406,6.9406,6.9406,6.9406,6.9406,6.9406,6.9406,6.9406,6.9406,6.9406,6.9406,6.9406,6.9406,6.9406,6.9406,6.9406,6.9741,7.01,6.9586,6.9426,6.929,6.8767,6.8267,6.788,6.788,6.8267,6.8722,6.8969,6.9195,6.9331,6.9331,6.9511,6.9761,7.003,6.9797,6.9636,6.9856,6.9439,6.9168,6.9428,6.8939,6.8887,6.9677,6.9762,6.9762,6.9762,6.9762,6.9997,7.0546,7.0572,7.086,7.1461,7.1487,7.1487,7.1487,7.1487,7.1487,7.1487,7.1487,7.1487,7.1487,7.1775,7.1905,6.1048,6.1261,6.0871,5.9008,5.6997,5.4223,4.9651,4.4613,3.9837,3.6241,3.3001,3.1197,3.2364,3.3967,3.6589,4.1263,4.5588,4.9011,5.0749,5.2468,5.3606,5.3686,5.3866,0.0,5.6081,5.7613,0.0,0.0,0.0,0.0,6.2081,6.4001,6.5961,6.7987,6.9141,7.0483,7.2051,7.2051,7.2051,7.2051,7.2051,7.1479,7.0481,7.0481,6.9837,6.8792,6.8792,0.0,0.0,6.8792,6.8792,6.8792,6.8792,6.8792,6.8792,6.8792,6.8792,6.8792,6.8792,6.8792,6.8792,6.8792,6.9089,6.9406,6.9406,6.9696,6.9786,6.8817,6.8358,6.7968,6.6957,6.6262,6.5797,6.5797,6.6123,6.647,6.6838,6.693,6.693,6.693,6.7207,6.7507,6.7598,6.7574,6.7575,6.771,6.7454,6.7379,6.7735,6.7993,6.8556,6.9724,7.0093,7.0272,7.0272,7.0272,7.055,7.1183,7.1149,7.1409,7.214,7.2034,7.199,7.199,7.1902,7.1858,7.1858,7.17,7.1734,7.1864,7.2278,7.2537,6.0848,6.0827,6.0135,5.699,5.4435,5.1231,4.5701,4.0304,3.5675,3.2834,2.9815,2.8163,2.9662,3.0967,3.3195,3.7427,4.1517,4.4768,4.6507,4.8763,5.0405,5.0738,5.1553,5.2724,5.4533,5.63,5.736,0.0,0.0,0.0,6.1113,6.2259,6.3806,6.589,6.7037,6.8319,6.9841,6.989,6.989,6.989,6.989,6.9358,6.8391,6.8391,6.7764,6.6774,6.6774,0.0,0.0,6.6774,6.6774,6.6774,6.6774,6.6774,6.6774,6.6774,6.6774,6.6774,6.6774,6.6774,6.6774,6.6774,6.7971,6.9406,6.9406,6.9451,6.927,6.8337,6.7372,6.6354,6.5375,6.4365,6.3585,6.3585,6.3632,6.368,6.3704,6.3704,6.3704,6.3704,6.3752,6.3941,6.4413,6.4531,6.4672,6.507,6.5488,6.5789,6.5836,6.6663,6.7256,6.7395,6.8508,6.9255,6.9255,6.9255,6.9659,7.0706,7.0364,7.0604,7.1612,7.1284,7.1037,7.1037,7.0522,7.0299,7.0299,6.9896,6.9923,7.0382,7.0407,7.0709,5.8504,5.8698,5.7975,5.4676,5.139,4.7649,4.2624,3.7314,3.2773,3.0406,2.8306,2.7142,2.805,2.9314,3.1309,3.4697,3.7861,4.0658,4.2997,4.5335,4.7197,4.8202,4.9423,5.088,0.0,0.0,5.6449,0.0,0.0,0.0,5.993,6.0993,6.2383,6.4153,6.5229,6.6416,6.7667,6.7667,6.7527,6.7248,6.7248,6.6733,6.5749,6.5749,6.5303,6.4554,6.4554,0.0,0.0,6.4554,6.4554,6.4554,6.4554,6.4554,6.4554,6.4554,6.4554,6.4554,6.4554,6.4554,6.4554,6.4554,6.5118,6.5958,6.7258,6.765,6.7467,6.6472,6.5423,6.4341,6.3346,6.2342,6.1523,6.1523,6.1523,6.1523,6.1523,6.1523,6.1523,6.1523,6.1765,6.2031,6.2271,6.2559,6.2869,6.3037,6.3228,6.3608,6.4224,6.4856,6.5516,6.6133,6.744,6.833,6.833,6.8904,6.9732,7.0749,7.096,7.1133,7.1149,7.072,7.0034,6.9042,6.8832,6.8553,6.825,6.8063,6.788,6.7767,6.8104,6.8417,5.5328,5.6119,5.5728,5.2197,4.8536,4.4583,3.988,3.4787,3.0584,2.882,2.7258,2.6371,2.6962,2.7891,2.9479,3.2169,3.4413,3.6788,3.9635,4.2151,4.4264,4.5807,4.7319,4.9038,0.0,5.3613,5.5993,0.0,0.0,0.0,5.945,6.0217,6.1272,6.2703,6.3623,6.4515,6.5428,6.5428,6.5229,6.478,6.478,6.4282,6.3259,6.3259,6.2987,6.2463,0.0,0.0,0.0,6.2463,6.2463,6.2463,6.2463,6.2463,6.2463,6.2463,6.2463,6.2463,6.2463,6.2463,6.2463,6.2463,6.2463,6.2703,6.4223,6.5095,6.5352,6.4365,6.3083,6.1787,6.077,5.9962,5.9444,5.9444,5.9444,5.9444,5.9444,5.9444,5.9444,5.9444,5.9717,5.9941,5.9941,6.0234,6.05,6.05,6.0624,6.1013,6.1739,6.247,6.3242,6.3922,6.5175,6.6353,6.7345,6.8224,6.9167,7.017,7.0524,7.057,7.0263,6.9636,6.8697,6.7392,6.7058,6.6747,6.634,6.6051,6.5734,6.5511,6.593,6.6037,5.138,5.3182,5.3648,4.9494,4.6001,4.2311,3.7281,3.2602,2.9063,2.8086,2.6473,2.5502,2.6436,2.6625,2.7368,2.9668,3.1174,3.3174,3.639,3.9219,4.1622,4.3428,4.5211,4.7279,4.9599,5.31,5.6138,0.0,0.0,0.0,5.9926,5.9988,6.049,6.156,6.2159,6.2673,6.3237,6.3237,6.3018,6.2639,6.2639,6.2136,6.1102,6.1102,6.0861,0.0,0.0,0.0,0.0,6.0424,6.0424,6.0424,6.0424,6.0424,6.0424,6.0424,6.0424,6.0424,6.0424,6.0424,6.0424,6.0424,6.0424,6.0424,6.0473,6.1813,6.3157,6.2175,6.0429,5.8627,5.7535,5.7235,5.7235,5.7235,5.7235,5.7235,5.7235,5.7235,5.7235,5.7235,5.7235,5.7235,5.7235,5.7235,5.7235,5.7235,5.7713,5.8032,5.8082,5.9312,6.0237,6.0237,6.1089,6.2974,6.6141,6.6914,6.7631,6.8674,6.8297,6.8249,6.8721,6.7774,6.6962,6.6433,6.5395,6.486,6.4811,6.3734,6.3509,6.4029,6.4029,6.3745,4.6572,4.8456,4.919,4.5987,4.2748,3.9337,3.5583,3.1671,2.8566,2.7679,2.6788,2.625,2.654,2.6851,2.7513,2.8835,3.0222,3.223,3.5418,3.8502,4.1338,4.3801,4.6803,4.9576,0.0,0.0,0.0,0.0,0.0,0.0,5.9015,5.9057,5.9481,6.049,6.0647,6.0855,6.1011,6.1011,6.0611,5.9883,5.9883,5.9347,5.8421,5.8421,0.0,0.0,0.0,0.0,0.0,5.821,5.821,5.821,5.821,5.821,5.821,5.821,5.821,5.821,5.821,5.821,5.821,5.821,5.821,5.821,5.821,5.9668,6.111,6.006,5.9051,5.8082,5.7385,5.7185,5.7185,5.7185,5.7185,5.7185,5.7185,5.7185,5.7185,5.7185,5.7484,5.7691,5.7691,5.796,5.8167,5.8167,5.8319,5.8522,5.8926,5.9624,6.0238,6.0646,6.125,6.2,6.3054,6.3946,6.4925,6.5923,6.6216,6.6216,6.5972,6.5351,6.4448,6.3111,6.2756,6.24,6.2095,6.1759,6.1486,6.1296,6.1296,6.1153,4.1053,4.3207,4.4175,4.2108,3.9536,3.6772,3.3948,3.0739,2.8193,2.7659,2.7037,2.6643,2.6809,2.7102,2.7513,2.821,2.9228,3.1133,3.4672,3.791,4.1405,4.5374,4.8459,0.0,0.0,5.4048,0.0,0.0,0.0,0.0,5.8581,5.8601,5.8871,5.945,5.9471,5.9471,5.9471,5.9471,5.9098,5.8353,5.8353,5.796,5.7185,5.7185,0.0,0.0,0.0,0.0,0.0,5.7185,5.7185,5.7185,5.7185,5.7185,5.7185,5.7185,5.7185,5.7185,5.7185,5.7185,5.7185,5.7185,5.7185,5.7185,5.7185,5.8111,5.9051,5.838,5.7983,5.7634,5.7285,5.7185,5.7185,5.7185,5.7185,5.7185,5.7185,5.7185,5.7185,5.7185,5.7608,5.7918,5.7918,5.8312,5.8601,5.8601,5.8601,5.8704,5.9082,5.953,5.9904,6.0265,6.0737,6.1011,6.1011,6.2159,6.3244,6.4065,6.4515,6.4515,6.4167,6.363,6.2805,6.1612,6.1405,6.1146,6.0782,6.0595,6.0334,5.9988,5.9988,5.9988,0.0,3.76,3.8944,3.8109,3.6535,3.458,3.2367,2.9803,0.0,2.7858,2.72,2.6768,2.7226,2.733,2.7472,2.7879,2.8417,3.0243,3.435,3.7943,4.2253,4.7982,5.0218,0.0,5.2599,0.0,0.0,0.0,0.0,0.0,5.8498,5.8519,5.8519,5.8519,5.8519,5.8539,5.8601,5.8601,5.8374,5.7918,5.7918,5.767,5.7185,5.7185,0.0,0.0,0.0,0.0,0.0,5.7185,5.7185,5.7185,5.7185,5.7185,5.7185,5.7185,5.7185,5.7185,5.7185,5.7185,5.7185,5.7185,5.7185,5.7185,5.7185,5.7185,5.7185,5.7185,5.7206,5.7227,5.7227,5.7247,5.7268,5.7268,5.7268,5.7268,5.7268,5.7268,5.7268,5.7268,5.7691,5.8022,5.8022,5.8394,5.8705,5.8705,5.8705,5.8705,5.8705,5.9078,5.9347,5.9347,5.974,5.9988,5.9988,6.1353,6.2468,6.3003,6.3003,6.3003,6.3003,6.2519,6.2004,6.1509,6.099,6.073,6.073,6.0229,5.9988,5.9988,5.9988,5.9988,2.8943,0.0,3.578,3.52,3.3927,3.2388,0.0,2.9145,2.7796,2.7513,2.7265,2.7185,2.7289,2.7555,2.7924,2.8355,2.9725,3.2043,3.579,4.2083,4.761,5.1108,5.2516,5.3504,5.4461,0.0,0.0,0.0,0.0,5.7442,5.7496,5.7546,5.7546,5.7546,5.7546,5.7898,5.8601,5.8601,5.8374,5.7918,5.7918,5.767,5.7185,5.7185,0.0,0.0,0.0,0.0,5.7185,5.7185,5.7185,5.7185,5.7185,5.7185,5.7185,5.7185,5.7185,5.7185,5.7185,5.7185,5.7185,5.7185,5.7185,5.7185,5.7185,5.7185,5.7185,5.7185,5.7484,5.7753,5.7753,5.8022,5.8291,5.8291,5.8291,5.8291,5.8291,5.8291,5.8291,5.8291,5.8664,5.8974,5.8974,5.9367,5.9657,5.9657,5.9657,5.9657,5.9657,5.9761,5.9823,5.9823,5.9926,5.9988,5.9988,6.0334,6.0741,6.1254,6.0961,6.0919,6.1275,6.0835,6.049,6.0407,6.025,6.0198,6.0198,6.0041,5.9988,5.9988,5.9988,5.9988,2.7138,2.973,3.1968,3.1926,3.1319,3.0506,2.958,2.8297,2.7282,2.7286,2.7143,2.7099,2.7513,2.7945,2.85,2.9415,3.1091,3.433,4.0075,4.6119,5.0963,5.3716,5.4855,5.5531,0.0,0.0,0.0,0.0,0.0,5.7185,5.7185,5.7185,5.7185,5.7185,5.7185,5.7413,5.796,5.798,5.7856,5.7608,5.7608,5.7463,5.7185,5.7185,5.7185,0.0,0.0,0.0,5.7185,5.7185,5.7185,5.7185,5.7185,5.7185,5.7185,5.7185,5.7185,5.7185,5.7185,5.7185,5.7185,5.7185,5.7185,5.7185,5.7185,5.733,5.7504,5.7247,5.7566,5.7918,5.7918,5.827,5.8601,5.8601,5.8601,5.8601,5.8601,5.8601,5.8601,5.8601,5.8995,5.9305,5.9305,5.9678,5.9988,5.9988,5.9988,5.9988,5.9988,5.9988,5.9988,5.9988,5.9988,5.9988,5.9988,5.9988,6.0195,6.0651,6.0257,6.0195,6.0671,6.0237,5.9988,5.9988,5.9988,5.9988,5.9988,5.9988,5.9988,5.9988,5.9988,5.9988,2.7217,2.8189,2.8856,2.9373,2.9518,2.9415,2.9021,2.7986,2.7203,2.7534,2.7286,2.7265,2.8065,2.8706,2.9642,3.1174,3.348,3.7707,4.525,4.9597,5.2992,5.5711,5.6718,0.0,0.0,0.0,0.0,0.0,0.0,5.7185,5.7185,5.7185,5.7185,5.7185,5.7185,5.7185,5.7185,5.7185,5.7185,5.7185,5.7185,5.7185,5.7185,5.7185,5.7185,0.0,0.0,0.0,5.7185,5.7185,5.7185,5.7185,5.7185,5.7185,5.7185,5.7185,5.7185,5.7185,5.7185,5.7185,5.7185,5.7185,5.7185,5.7185,5.7185,5.7546,5.7836,5.7442,5.7711,5.8125,5.8125,5.8477,5.8829,5.8829,5.8829,5.8829,5.8829,5.8829,5.8829,5.8829,5.914,5.9409,5.9409,5.974,5.9988,5.9988,5.9988,5.9988,5.9988,5.9988,5.9988,5.9988,5.9988,5.9988,5.9988,5.9988,6.0216,6.0754,6.0278,6.0175,6.0568,6.0195,5.9988,5.9988,5.9988,5.9988,5.9988,5.9988,5.9988,5.9988,5.9988,5.9988,2.6415,2.7966,2.9415,3.0263,3.0497,3.0476,3.0387,2.9911,2.9373,2.9063,2.8938,2.9042,2.958,3.0651,3.2181,3.4311,3.9164,4.4153,4.8563,5.1357,5.384,5.6229,0.0,5.7185,0.0,0.0,0.0,0.0,0.0,5.7185,5.7185,5.7185,5.7185,5.7185,5.7185,5.7185,5.7185,5.7185,5.7185,5.7185,5.7185,5.7185,5.7185,5.7185,5.7185,0.0,0.0,5.7185,5.7185,5.7185,5.7185,5.7185,5.7185,5.7185,5.7185,5.7185,5.7185,5.7185,5.7185,5.7185,5.7185,5.7185,5.7185,5.7185,5.7185,5.7546,5.7898,5.7836,5.8436,5.9098,5.9098,5.9429,5.9781,5.9781,5.9781,5.9781,5.9781,5.9781,5.9781,5.9781,5.9843,5.9885,5.9885,5.9947,5.9988,5.9988,5.9988,5.9988,5.9988,5.9988,5.9988,5.9988,5.9988,5.9988,5.9988,5.9988,6.034,6.1136,6.0464,6.003,6.0092,6.003,5.9988,5.9988,5.9988,5.9988,5.9988,5.9988,5.9988,5.9988,5.9988,5.9988,2.6291,2.7552,2.8959,3.0636,3.1823,3.2548,3.2548,3.2175,3.1692,3.123,3.076,3.0719,3.165,3.2934,3.5325,3.9868,4.4132,4.7941,5.0863,5.2992,5.4882,0.0,0.0,0.0,0.0,0.0,0.0,0.0,0.0,0.0,5.7185,5.7185,5.7185,5.7185,5.7185,5.7185,5.7185,5.7185,5.7185,5.7185,5.7185,5.7185,5.7185,5.7185,5.7185,5.7185,0.0,5.7185,5.7185,5.7185,5.7185,5.7185,5.7185,5.7185,5.7185,5.7185,5.7185,5.7185,5.7185,5.7401,5.7608,5.7608,5.7773,5.798,5.798,5.8291,5.8664,5.8664,5.8974,5.9305,5.9305,5.9636,5.9988,5.9988,5.9988,5.9988,5.9988,5.9988,5.9988,5.9988,5.9988,5.9988,5.9988,5.9988,5.9988,5.9988,5.9988,5.9988,5.9988,5.9988,5.9988,5.9988,5.9988,5.9988,5.9988,5.9988,6.0175,6.0589,6.0671,6.0506,6.0009,5.9988,5.9988,5.9988,5.9988,5.9988,5.9988,5.9988,6.0113,6.0361,6.0361,6.0485,2.6478,2.7324,2.8458,3.0801,3.2672,3.4019,3.435,3.4392,3.4217,3.3782,3.3223,3.319,3.433,3.6059,3.9123,4.4588,4.7755,5.0342,5.264,5.4337,0.0,0.0,0.0,0.0,0.0,0.0,0.0,0.0,0.0,0.0,5.7185,5.7185,5.7185,5.7185,5.7185,5.7185,5.7185,5.7185,5.7185,5.7185,5.7185,5.7185,5.7185,5.7185,5.7185,5.7185,5.7185,5.7185,5.7185,5.7185,5.7185,5.7185,5.7185,5.7185,5.7185,5.7185,5.7185,5.7185,5.7185,5.7525,5.7918,5.7918,5.8229,5.8601,5.8601,5.8933,5.9305,5.9305,5.9367,5.9471,5.9471,5.9719,5.9988,5.9988,5.9988,5.9988,5.9988,5.9988,5.9988,5.9988,5.9988,5.9988,5.9988,5.9988,5.9988,5.9988,5.9988,5.9988,5.9988,5.9988,5.9988,5.9988,5.9988,5.9988,5.9988,6.0195,6.0257,6.0154,6.1003,6.1053,6.0195,6.0154,6.0113,5.9988,5.9988,5.9988,5.9988,6.0092,6.034,6.0671,6.0796,6.1023,2.6871,2.7552,2.8458,3.0801,3.2444,3.3791,3.5024,3.6287,3.7074,3.6597,3.6804,3.7218,3.7769,4.0675,4.3825,4.6431,4.9183,5.1771,5.4021,0.0,0.0,0.0,0.0,0.0,0.0,0.0,0.0,0.0,0.0,0.0,5.7185,5.7185,5.7185,5.7185,5.7185,5.7185,5.7185,5.7185,5.7185,5.7185,5.7185,5.7185,5.7185,5.7185,5.7185,5.7185,5.7185,5.7185,5.7185,5.7185,5.7185,5.7185,5.7185,5.7185,5.7185,5.7185,5.7185,5.7185,5.7185,5.7525,5.7918,5.7918,5.8229,5.8601,5.8601,5.8933,5.9305,5.9305,5.9616,5.9947,5.9947,5.9968,5.9988,5.9988,5.9988,5.9988,5.9988,5.9988,5.9988,5.9988,5.9988,5.9988,5.9988,5.9988,5.9988,5.9988,5.9988,5.9988,5.9988,5.9988,5.9988,5.9988,5.9988,5.9988,5.9988,6.0754,6.1065,6.0651,6.1479,6.1582,6.0671,6.063,6.0423,5.9988,5.9988,5.9988,5.9988,6.0423,6.0651,6.0692,6.1106,6.126,2.6726,2.7182,2.8094,3.0393,3.2424,3.4413,3.6639,3.8647,4.0137,4.053,4.0986,4.1172,4.0835,4.3052,4.5643,4.7941,5.0611,5.3095,5.5082,5.6138,0.0,0.0,0.0,0.0,0.0,0.0,0.0,0.0,0.0,0.0,5.7185,5.7185,5.7185,5.7185,5.7185,5.7185,5.7185,5.7185,5.7185,5.7185,5.7185,5.7185,5.7185,5.7185,5.738,5.7649,5.7649,5.7649,5.7649,5.7649,5.7484,5.7185,5.7185,5.7185,5.7185,5.7185,5.7185,5.7185,5.7185,5.7711,5.8353,5.8353,5.885,5.9471,5.9471,5.9595,5.9719,5.9719,5.9843,5.9988,5.9988,5.9988,5.9988,5.9988,5.9988,5.9988,5.9988,5.9988,5.9988,5.9988,5.9988,5.9988,5.9988,5.9988,5.9988,5.9988,5.9988,5.9988,5.9988,5.9988,5.9988,5.9988,5.9988,5.9988,5.9988,6.0816,6.1218,6.1106,6.1632,6.1624,6.0713,6.0671,6.0464,5.9988,5.9988,6.0133,6.0423,6.0589,6.0961,6.152,6.1632,6.1859,2.6768,2.6957,2.7659,3.0103,3.232,3.4786,3.8266,4.0939,4.2911,4.3783,4.4484,4.4588,4.357,4.4999,4.7009,0.0,5.1526,5.382,5.5669,5.6656,0.0,0.0,0.0,0.0,0.0,0.0,0.0,0.0,0.0,0.0,0.0,5.7185,5.7185,5.7185,5.7185,5.7185,5.7185,5.7185,5.7185,5.7185,5.7185,5.7185,5.7185,5.7185,5.7484,5.7918,5.7918,5.7918,5.7918,5.7918,5.7599,5.7185,5.7185,5.7185,5.7185,5.7185,5.7185,5.7185,5.7185,5.7836,5.8601,5.8601,5.9243,5.9988,5.9988,5.9988,5.9988,5.9988,5.9988,5.9988,5.9988,5.9988,5.9988,5.9988,5.9988,5.9988,5.9988,5.9988,5.9988,5.9988,5.9988,5.9988,5.9988,5.9988,5.9988,5.9988,5.9988,5.9988,5.9988,5.9988,5.9988,5.9988,5.9988,5.9988,5.9988,6.0692,6.1127,6.1127,6.1508,6.1603,6.1127,6.1106,6.0899,6.0423,6.0423,6.0568,6.0899,6.1044,6.1437,6.1984,6.2183,6.239,2.7161,2.6978,2.7286,3.0041,3.2113,3.4765,3.9799,4.3073,4.5271,4.6162,4.7113,4.7299,4.5954,4.6803,0.0,4.9578,5.1733,5.382,5.5669,5.6656,5.7185,0.0,0.0,0.0,0.0,0.0,0.0,0.0,0.0,0.0,0.0,5.7185,5.7185,5.7185,5.7185,5.7185,5.7185,5.7185,5.7185,5.7185,5.7185,5.7185,5.7185,5.7185,5.7484,5.7918,5.7918,5.7918,5.7918,5.7918,5.7649,5.7235,5.7185,5.7185,5.7185,5.7185,5.7185,5.7185,5.7185,5.7836,5.8601,5.8601,5.9243,5.9988,5.9988,5.9988,5.9988,5.9988,5.9988,5.9988,5.9988,5.9988,5.9988,5.9988,5.9988,5.9988,5.9988,5.9988,5.9988,5.9988,5.9988,5.9988,5.9988,5.9988,5.9988,5.9988,5.9988,5.9988,5.9988,5.9988,5.9988,5.9988,5.9988,5.9988,5.9988,6.0423,6.0671,6.0671,6.1106,6.1487,6.1942,6.1963,6.1756,6.128,6.128,6.128,6.1301,6.1756,6.1984,6.2004,6.2472,6.2679,2.7924,2.8359,2.9228,3.232,3.4951,3.7819,4.1876,4.4383,4.6803,5.0011,5.0363,4.9576,4.7921,4.848,0.0,0.0,0.0,0.0,5.5662,5.6656,5.7185,0.0,0.0,0.0,0.0,0.0,0.0,0.0,0.0,0.0,0.0,5.7185,5.7185,5.7185,5.7185,5.7185,5.7185,5.7185,5.7185,5.7185,5.7185,5.7185,5.7185,5.7185,5.7484,5.7918,5.7918,5.8105,5.8374,5.8043,5.7836,5.767,5.7359,5.7185,5.7185,5.7185,5.7185,5.7185,5.7185,5.7836,5.8601,5.8601,5.9243,5.9988,5.9988,5.9988,5.9988,5.9988,5.9988,5.9988,5.9988,5.9988,5.9988,5.9988,5.9988,5.9988,5.9988,5.9988,5.9988,5.9988,5.9988,5.9988,5.9988,5.9988,5.9988,5.9988,5.9988,5.9988,5.9988,5.9988,5.9988,5.9988,5.9988,5.9988,5.9988,6.0423,6.0671,6.0671,6.1106,6.1218,6.1085,6.1085,6.0858,6.0402,6.0402,6.0713,6.1301,6.1425,6.1872,6.2493,6.2617,6.2679,2.8193,2.9352,3.0988,3.4578,3.7757,4.1358,4.6285,4.7982,4.9326,5.2412,5.2454,5.1481,5.0011,5.0197,0.0,5.0863,0.0,0.0,0.0,5.6511,5.7028,0.0,0.0,0.0,0.0,0.0,0.0,0.0,0.0,0.0,0.0,5.7185,5.7185,5.7185,5.7185,5.7185,5.7185,5.7185,5.7185,5.7185,5.7185,5.7185,5.7185,5.7185,5.7484,5.7939,5.8105,5.8353,5.8581,5.8105,5.7918,5.7877,5.7351,5.7185,5.7185,5.7185,5.7185,5.7185,5.7185,5.7711,5.8332,5.8332,5.8953,5.9719,5.9719,5.9843,5.9988,5.9988,5.9988,5.9988,5.9988,5.9988,5.9988,5.9988,5.9988,5.9988,5.9988,5.9988,5.9988,5.9988,5.9988,5.9988,5.9988,5.9988,5.9988,5.9988,5.9988,5.9988,5.9988,5.9988,5.9988,5.9988,5.9988,5.9988,5.9988,6.0257,6.0485,6.0671,6.0941,6.1044,6.0941,6.0941,6.0816,6.0527,6.0527,6.0899,6.157,6.157,6.1976,6.2679,6.2679,6.2679,2.8255,3.018,3.2652,3.6825,4.0758,4.5291,5.1708,5.2557,5.2371,5.3711,5.3716,5.3137,5.2226,5.2081,5.2226,5.2557,0.0,0.0,0.0,0.0,5.6656,0.0,0.0,0.0,0.0,0.0,0.0,0.0,0.0,0.0,0.0,5.7185,5.7165,5.7173,5.7194,5.7165,5.7173,5.7165,5.7185,5.7185,5.7185,5.7185,5.7185,5.7185,5.7413,5.7877,5.8353,5.8539,5.8519,5.8105,5.7918,5.7877,5.7351,5.7185,5.7185,5.7185,5.7256,5.7247,5.7247,5.7629,5.8043,5.8043,5.8643,5.9367,5.9367,5.9657,5.9988,5.9988,5.9988,5.9988,5.9988,5.9988,5.9988,5.9988,5.9988,5.9988,5.9988,5.9988,5.9988,5.9988,5.9988,5.9988,5.9988,5.9988,5.9988,5.9988,5.9988,5.9988,5.9988,5.9988,5.9988,5.9988,5.9988,5.9988,5.9988,5.9988,6.0195,6.0651,6.0671,6.0878,6.128,6.126,6.1239,6.1301,6.1239,6.1487,6.1984,6.1984,6.2265,6.2679,6.2679,6.2679,2.9352,3.1864,3.4682,3.9509,4.4774,4.9576,5.2516,5.3302,5.3799,5.5165,5.5372,5.502,5.4062,5.4234,5.4255,5.3607,5.4317,0.0,0.0,0.0,0.0,0.0,0.0,0.0,0.0,0.0,0.0,0.0,0.0,0.0,5.7185,5.7185,5.707,5.6718,5.7049,5.7049,5.6718,5.7049,5.7185,0.0,5.7185,5.7185,5.7185,5.7185,5.7277,5.7401,5.7877,5.8063,5.8063,5.796,5.7918,5.7877,5.7351,5.7185,5.7185,5.7185,5.7413,5.7773,5.7773,5.8312,5.8995,5.8995,5.9388,5.9843,5.9843,5.9906,5.9988,5.9988,5.9988,5.9988,5.9988,5.9988,5.9988,5.9988,5.9988,5.9988,5.9988,5.9988,5.9988,5.9988,5.9988,5.9988,5.9988,5.9988,5.9988,5.9988,5.9988,5.9988,5.9988,5.9988,5.9988,5.9988,5.9988,5.9988,5.9988,5.9988,6.0195,6.0651,6.0671,6.0878,6.128,6.1003,6.0982,6.128,6.1003,6.123,6.1984,6.1984,6.2265,6.2679,6.2679,6.2679,2.9642,3.3004,3.7053,4.4049,4.8624,5.1895,5.3716,5.4317,5.4813,5.5973,5.5897,5.5393,5.4938,5.502,5.4958,5.4249,5.4565,5.4938,0.0,0.0,0.0,0.0,0.0,0.0,0.0,0.0,0.0,0.0,0.0,5.7185,5.7185,5.7028,5.6801,5.6622,5.6573,5.6469,5.6291,5.6469,5.6697,5.6904,5.6904,5.7028,5.7185,5.7185,5.7185,5.7256,5.7711,5.7918,5.7918,5.7918,5.7918,5.7877,5.7351,5.7185,5.7185,5.7185,5.7525,5.7918,5.7918,5.8374,5.8974,5.8974,5.9285,5.9657,5.9657,5.9823,5.9988,5.9988,5.9988,5.9988,5.9988,5.9988,5.9988,5.9988,5.9988,5.9988,5.9988,5.9988,5.9988,5.9988,5.9988,5.9988,5.9988,5.9988,5.9988,5.9988,5.9988,5.9988,5.9988,5.9988,5.9988,5.9988,5.9988,6.0071,6.0299,6.032,6.0609,6.1292,6.1334,6.152,6.1976,6.1562,6.1334,6.1301,6.0899,6.1127,6.1984,6.1984,6.2265,6.2679,6.2679,6.2679,2.9642,3.4424,4.0199,4.8479,5.1584,5.3033,5.4689,5.5082,5.5331,5.6311,5.5939,5.5393,5.531,5.531,5.5145,5.4579,5.4497,5.4668,5.502,0.0,0.0,0.0,0.0,0.0,0.0,0.0,0.0,0.0,0.0,5.6987,5.6987,5.6635,5.6457,5.6374,5.6084,5.5876,5.5794,5.5876,5.6076,5.6498,5.6581,5.6801,5.7185,5.7185,5.7185,5.7206,5.7629,5.7794,5.7794,5.7794,5.7794,5.7753,5.733,5.7227,5.7289,5.7289,5.7691,5.8146,5.8146,5.8457,5.885,5.885,5.9098,5.9409,5.9409,5.9678,5.9988,5.9988,5.9988,5.9988,5.9988,5.9988,5.9988,5.9988,5.9988,5.9988,5.9988,5.9988,5.9988,5.9988,5.9988,5.9988,5.9988,5.9988,5.9988,5.9988,5.9988,5.9988,5.9988,5.9988,5.9988,5.9988,5.9988,6.0175,6.0651,6.0671,6.1065,6.1921,6.1984,6.2224,6.2679,6.2265,6.1839,6.1529,6.1148,6.1313,6.2141,6.2141,6.2327,6.2679,6.2679,6.2679,2.9906,3.7413,4.5043,4.9825,5.206,5.3364,5.4379,5.4579,5.4875,5.5786,5.6229,5.6311,5.5897,5.5835,5.5496,5.4621,5.4497,5.4517,5.4559,5.4579,5.46,0.0,0.0,0.0,0.0,0.0,0.0,0.0,5.6055,5.6055,5.6055,5.5993,5.5835,5.5372,5.5703,5.5683,5.5269,5.5731,5.5959,5.6021,5.6415,5.6801,5.7185,5.7185,5.7185,5.7185,5.7297,5.7268,5.7268,5.7268,5.7268,5.7268,5.7206,5.7463,5.7836,5.7836,5.8374,5.9119,5.9119,5.9409,5.9802,5.9802,5.9843,5.9906,5.9906,5.9947,5.9988,5.9988,5.9988,5.9988,5.9988,5.9988,5.9988,5.9988,5.9988,5.9988,5.9988,5.9988,5.9988,5.9988,5.9988,5.9988,5.9988,5.9988,5.9988,5.9988,5.9988,5.9988,5.9988,5.9988,5.9988,5.9988,5.9988,6.0175,6.0651,6.0671,6.1065,6.1921,6.1984,6.2224,6.2679,6.2265,6.2183,6.2493,6.2079,6.21,6.2617,6.2617,6.2617,6.2679,6.2679,6.2679,3.2078,3.8985,4.5271,4.9638,5.1771,5.3033,5.3897,5.4311,5.4793,5.5683,5.6084,5.6249,5.6291,5.6104,5.5662,5.5,5.4641,5.4497,5.4497,5.4497,5.4497,5.4497,0.0,0.0,0.0,0.0,0.0,0.0,5.5918,5.5918,5.5918,5.5621,5.5393,5.5186,5.5145,5.502,5.4813,5.502,5.5248,5.5496,5.627,5.6676,5.6863,5.7111,5.7185,5.7185,5.7185,5.7185,5.7185,5.7185,5.7185,5.7185,5.7185,5.7504,5.7918,5.7918,5.8498,5.9305,5.9305,5.9595,5.9947,5.9678,5.9595,5.9595,5.9595,5.9595,5.9657,5.9926,5.9988,5.9988,5.9988,5.9988,5.9988,5.9988,5.9988,5.9988,5.9988,5.9988,5.9988,5.9988,5.9988,5.9988,5.9988,5.9988,5.9988,5.9988,5.9988,5.9988,5.9988,5.9988,5.9988,5.9988,5.9988,6.0278,6.1003,6.1065,6.1437,6.2348,6.239,6.2472,6.2679,6.2493,6.2493,6.2679,6.2265,6.2245,6.2679,6.2679,6.2679,6.2679,6.2679,6.2679,3.3277,3.8833,4.3615,4.7962,5.0156,5.1564,5.2677,5.3463,5.4317,5.5331,5.5621,5.5897,5.6353,5.6166,5.5773,5.5269,5.4813,5.4497,5.4497,5.4497,5.4497,5.4497,5.4497,0.0,0.0,0.0,0.0,0.0,5.5538,5.5538,5.5538,5.5207,5.502,5.502,5.4662,5.4497,5.4497,5.4497,5.4751,5.5186,5.5939,5.6394,5.6622,5.6904,5.7111,5.7185,5.7185,5.7185,5.7185,5.7185,5.7185,5.7185,5.7309,5.7691,5.8105,5.8229,5.8788,5.9471,5.9471,5.9699,5.9926,5.9595,5.9471,5.9471,5.9471,5.9471,5.9554,5.9906,5.9988,5.9988,5.9988,5.9988,5.9988,5.9988,5.9988,5.9988,5.9988,5.9988,5.9988,5.9988,5.9988,5.9988,5.9988,5.9988,5.9988,5.9988,5.9988,5.9988,5.9988,5.9988,5.9988,5.9988,6.0092,6.0485,6.1218,6.1404,6.1851,6.2672,6.2679,6.2679,6.2679,6.2679,6.2679,6.2679,6.2369,6.2348,6.2679,6.2679,6.2679,6.2679,6.2679,6.2679,3.2057,3.6214,4.0598,4.436,4.6616,4.8396,5.0197,5.1646,5.2992,5.429,5.4938,5.5352,5.5876,5.5939,5.5773,5.5269,5.4813,5.4497,5.4497,5.4497,5.4497,5.4497,5.4497,5.4497,0.0,0.0,0.0,0.0,5.4559,5.4559,5.4559,5.4538,5.4517,5.4517,5.4497,5.4497,5.4497,5.4497,5.4751,5.5186,5.5227,5.5724,5.6622,5.6643,5.6821,5.7185,5.7185,5.7185,5.7185,5.7185,5.7185,5.7227,5.7711,5.8167,5.8622,5.9057,5.9533,5.9947,5.9947,5.9968,5.9988,5.9968,5.9947,5.9947,5.9947,5.9947,5.9968,5.9988,5.9988,5.9988,5.9988,5.9988,5.9988,5.9988,5.9988,5.9988,5.9988,5.9988,5.9988,5.9988,5.9988,5.9988,5.9988,5.9988,5.9988,5.9988,5.9988,5.9988,5.9988,5.9988,5.9988,5.9988,6.0382,6.0837,6.1239,6.1694,6.2203,6.2679,6.2679,6.2679,6.2679,6.2679,6.2679,6.2679,6.2679,6.2679,6.2679,6.2679,6.2679,6.2679,6.2679,6.2679,2.9389,3.2768,3.6359,3.9501,4.2344,4.4935,4.7401,4.9458,5.145,5.3595,5.417,5.4498,5.5257,5.5426,5.5372,5.5207,5.4813,5.4497,5.4497,5.4497,5.4497,5.4497,5.4497,5.4497,5.4497,0.0,0.0,0.0,0.0,5.4497,5.4497,5.4497,5.4497,5.4497,5.4497,5.4497,5.4497,5.4497,5.4559,5.4772,5.5041,5.5517,5.6187,5.6477,5.6801,5.7185,5.7185,5.7185,5.7185,5.7185,5.7185,5.7277,5.7732,5.8208,5.8664,5.914,5.9595,5.9988,5.9988,5.9988,5.9947,5.9636,5.9554,5.9554,5.9554,5.9554,5.9616,5.9906,5.9988,5.9988,5.9988,5.9988,5.9988,5.9988,5.9988,5.9988,5.9988,5.9988,5.9988,5.9988,5.9988,5.9988,5.9988,5.9988,6.0092,6.0382,6.0444,6.0547,6.0816,6.0805,6.0805,6.0805,6.0949,6.1292,6.1694,6.188,6.2224,6.2679,6.2679,6.2679,6.2679,6.2679,6.2679,6.2679,6.2679,6.2679,6.2679,6.2679,6.2679,6.2679,6.2679,6.2679,2.72,2.9859,3.2679,3.5066,3.7861,4.0723,4.3444,4.6066,4.8675,5.1393,5.2462,5.3209,5.425,5.458,5.4808,5.5165,5.4813,5.4497,5.4497,5.4497,5.4497,5.4497,5.4497,5.4497,5.4497,5.4497,5.4497,0.0,0.0,0.0,5.4497,5.4497,5.4497,5.4497,5.4497,5.4497,5.4497,5.4497,5.4497,5.4497,5.4834,5.5207,5.5662,5.6166,5.6573,5.7008,5.7152,5.7185,5.7185,5.7185,5.7185,5.7247,5.7898,5.8332,5.8684,5.9305,5.9719,5.9988,5.9988,5.9988,5.9947,5.9636,5.9533,5.9533,5.9533,5.9533,5.9595,5.9906,5.9988,5.9988,5.9988,5.9988,5.9988,5.9988,5.9988,5.9988,5.9988,5.9988,5.9988,5.9988,5.9988,5.9988,5.9988,5.9988,6.0154,6.0609,6.0671,6.0837,6.1239,6.1301,6.1301,6.1301,6.1425,6.1653,6.1963,6.2108,6.2369,6.2679,6.2679,6.2679,6.2679,6.2679,6.2679,6.2679,6.2679,6.2679,6.2679,6.2679,6.2679,6.2679,6.2679,6.2679,0.0,0.0,0.0,3.1064,3.3283,3.5767,3.8303,4.1431,4.4603,4.7569,4.9684,5.1434,5.2809,5.3434,5.4074,5.4986,5.4813,5.4497,5.4497,5.4497,5.4497,5.4497,5.4497,5.4497,5.4497,5.4497,5.4497,0.0,5.4497,5.4497,5.4497,5.4497,5.4497,5.4497,5.4497,5.4497,5.4497,5.4497,5.4497,5.4497,5.4497,5.4772,5.5207,5.5711,5.6166,5.6643,5.7028,5.7185,5.7185,5.7185,5.7185,5.7268,5.8199,5.855,5.8674,5.9605,5.9936,5.9936,5.9936,5.9936,5.9936,5.9988,5.9988,5.9988,5.9988,5.9988,5.9988,5.9988,5.9988,5.9988,5.9988,5.9988,5.9988,5.9988,5.9988,5.9988,5.9988,5.9988,5.9988,5.9988,5.9988,5.9988,6.0009,6.0009,6.0175,6.0651,6.0713,6.0878,6.128,6.1322,6.1322,6.1322,6.1735,6.2004,6.2004,6.2452,6.2679,6.2679,6.2679,6.2679,6.2679,6.2679,6.2679,6.2679,6.2679,6.2679,6.2679,6.2679,6.2679,6.2679,6.2679,6.2679,2.4178,0.0,0.0,0.0,0.0,0.0,3.3548,3.7238,4.1178,4.478,4.7195,4.9346,5.1596,5.2143,5.265,5.3958,5.4368,5.4497,5.4497,5.4497,5.4497,5.4497,5.4497,5.4497,5.4497,5.4497,5.4497,0.0,5.4497,5.4497,5.4497,5.4497,5.4497,5.4497,5.4497,5.4497,5.4497,5.4497,5.4497,5.4497,5.4497,5.4772,5.5207,5.5711,5.6166,5.6643,5.7028,5.6985,5.6635,5.6635,5.6635,5.6666,5.7229,5.742,5.7542,5.8435,5.8759,5.8759,5.8759,5.8759,5.8812,5.9233,5.9338,5.9443,5.9884,5.9988,5.9988,5.9988,5.9988,5.9988,5.9988,5.9988,5.9988,5.9988,5.9988,5.9988,5.9988,5.9988,5.9988,5.9988,5.9988,6.0092,6.0423,6.0485,6.0754,6.1541,6.1665,6.181,6.2245,6.2307,6.2307,6.2307,6.2431,6.2493,6.2493,6.2617,6.2679,6.2679,6.2679,6.2679,6.2679,6.2679,6.2679,6.2679,6.2679,6.2679,6.2679,6.2679,6.2679,6.2679,6.2679,6.2679,0.0,0.0,0.0,0.0,0.0,0.0,3.0346,3.3755,3.7465,4.096,4.3713,4.626,4.8737,4.9497,5.0097,5.1138,5.1831,5.2781,5.429,5.4497,5.4414,5.4228,5.4207,5.4124,5.3985,5.3965,5.3965,5.3965,5.4104,5.429,5.4476,5.4497,5.4497,5.4497,5.4497,5.4497,5.4497,5.4497,5.4497,5.4497,5.4497,5.4621,5.4938,5.5385,5.572,5.6029,5.6348,5.6384,5.6031,5.583,5.588,5.6112,5.6768,5.7028,5.7128,5.7962,5.8284,5.8284,5.8284,5.8284,5.8389,5.8917,5.9128,5.9233,5.9831,5.9988,5.9988,5.9988,5.9988,5.9988,5.9988,5.9988,5.9988,5.9988,5.9988,5.9988,5.9988,5.9988,5.9988,5.9988,5.9988,6.0133,6.0609,6.0671,6.0982,6.1839,6.1984,6.2183,6.2617,6.2679,6.2679,6.2679,6.2679,6.2679,6.2679,6.2679,6.2679,6.2679,6.2679,6.2679,6.2679,6.2679,6.2679,6.2679,6.2679,6.2679,6.2679,6.2679,6.2679,6.2679,6.2679,6.2679,2.4608,0.0,0.0,0.0,0.0,0.0,2.8107,3.069,3.3696,3.6508,3.9502,4.2326,4.4725,4.578,4.6453,4.7,4.7901,4.9831,5.354,5.4124,5.4062,5.3773,5.3731,5.3566,5.322,5.3178,5.3178,5.3178,5.3592,5.4,5.4455,5.4497,5.4497,5.4497,5.4497,5.4497,5.4497,5.4497,5.4497,5.4497,5.4497,5.4497,5.4422,5.4873,5.5087,5.505,5.5446,5.5578,5.5476,5.499,5.5072,5.5627,5.646,5.6821,5.6921,5.7804,5.8125,5.8125,5.8125,5.8125,5.8231,5.8812,5.9023,5.9128,5.9779,5.9988,5.9988,5.9988,5.9988,5.9988,5.9988,5.9988,5.9988,5.9988,5.9988,5.9988,5.9988,5.9988,5.9988,5.9988,5.9988,6.0154,6.0671,6.0754,6.1065,6.1976,6.2046,6.2245,6.2672,6.2679,6.2679,6.2679,6.2679,6.2679,6.2679,6.2679,6.2679,6.2679,6.2679,6.2679,6.2679,6.2679,6.2679,6.2679,6.2679,6.2679,6.2679,6.2679,6.2679,6.2679,6.2679,6.2679,2.5976,2.5839,2.563,0.0,0.0,0.0,2.5365,2.7604,3.0332,3.2307,3.4877,3.7653,4.0543,4.119,4.158,4.244,4.388,4.6379,5.06,5.1874,5.2578,5.324,5.3302,5.3282,5.3199,5.3178,5.3178,5.3178,5.3592,5.4,5.4455,5.4497,5.4497,5.4497,5.4497,5.4497,5.4497,5.4497,5.4497,5.4497,5.4497,5.4285,5.3972,5.4727,5.4841,5.4508,5.5246,5.5375,5.4939,5.4818,5.4869,5.5019,5.5427,5.5626,5.5724,5.6588,5.6956,5.6956,5.6956,5.6956,5.7116,5.8125,5.8442,5.8654,5.9674,5.9988,5.9988,5.9988,5.9988,5.9988,5.9988,5.9988,5.9988,5.9988,5.9988,5.9988,5.9988,5.9988,5.9988,5.9988,5.9988,6.0257,6.1032,6.1156,6.152,6.241,6.2555,6.2617,6.2679,6.2679,6.2679,6.2679,6.2679,6.2679,6.2679,6.2679,6.2679,6.2679,6.2679,6.2679,6.2679,6.2679,6.2679,6.2679,6.2679,6.2679,6.2679,6.2679,6.2679,6.2679,6.2679,6.2679,2.7337,2.7031,2.6641,2.6401,0.0,0.0,0.0,2.6738,2.8711,3.0234,3.2296,3.4453,3.6601,3.7168,3.7445,3.7937,3.9463,4.1657,4.4738,4.8213,5.0957,5.2313,5.2436,5.2446,5.2516,5.2495,5.2599,5.2826,5.3054,5.3421,5.4104,5.4145,5.4249,5.4476,5.4497,5.4497,5.4497,5.4285,5.4142,5.4142,5.3856,5.3616,5.3417,5.4016,5.4172,5.3916,5.4562,5.4635,5.438,5.438,5.438,5.4459,5.5065,5.5312,5.541,5.6269,5.6582,5.6582,5.6582,5.6582,5.6796,5.7913,5.8284,5.8495,5.9674,5.9988,5.9988,5.9988,5.9988,5.9988,5.9988,5.9988,5.9988,5.9988,5.9988,5.9988,5.9988,5.9988,6.005,6.0299,6.034,6.0547,6.1177,6.1301,6.1591,6.2555,6.2679,6.2679,6.2679,6.2679,6.2679,6.2679,6.2679,6.2679,6.2679,6.2679,6.2679,6.2679,6.2679,6.2679,6.2679,6.2679,6.2679,6.2679,6.2679,6.2679,6.2679,6.2679,6.2679,6.2679,6.2679,6.2679,0.0,0.0,0.0,0.0,0.0,2.6465,0.0,0.0,0.0,2.864,3.0048,3.1455,3.2648,3.3125,3.3368,3.3344,3.4893,3.6694,0.0,4.3315,0.0,5.0266,5.0699,5.092,5.125,5.1439,5.1729,5.2185,5.2226,5.2619,5.3483,5.3711,5.3959,5.4352,5.4435,5.4449,5.4401,5.3999,5.376,5.3664,5.3185,5.3005,5.3009,5.332,5.347,5.3509,5.3843,5.3972,5.3972,5.3972,5.3972,5.407,5.498,5.5312,5.541,5.6269,5.6582,5.6582,5.6582,5.6582,5.6742,5.7807,5.8231,5.8442,5.9411,5.9674,5.9674,5.9674,5.9726,5.9831,5.9831,5.9936,5.9988,5.9988,5.9988,5.9988,5.9988,5.9988,6.0133,6.0589,6.0671,6.0858,6.1322,6.1425,6.1694,6.2555,6.2679,6.2679,6.2679,6.2679,6.2679,6.2679,6.2679,6.2679,6.2679,6.2679,6.2679,6.2679,6.2679,6.2679,6.2679,6.2679,6.2679,6.2679,6.2679,6.2679,6.2679,6.2679,6.2679,6.2679,6.2679,6.2679,0.0,0.0,0.0,0.0,2.7858,0.0,0.0,0.0,2.5971,2.6128,0.0,0.0,0.0,0.0,0.0,0.0,0.0,0.0,3.431,3.644,3.9981,4.578,4.717,4.8074,4.9307,5.0094,5.0777,5.1232,5.1274,5.1667,5.2599,5.3359,5.3814,5.3876,5.4269,5.4285,5.3904,5.3856,5.3569,5.3089,5.3041,5.2972,5.2933,5.3311,5.3498,5.3421,5.3808,5.3972,5.3972,5.3972,5.3972,5.407,5.498,5.5312,5.541,5.6269,5.6582,5.6582,5.6582,5.6582,5.6689,5.7329,5.786,5.8337,5.8442,5.8495,5.8495,5.8495,5.8812,5.9181,5.9181,5.9601,5.9988,5.9988,5.9988,5.9988,5.9988,5.9988,6.0133,6.0589,6.0671,6.0961,6.1756,6.1901,6.212,6.2617,6.2679,6.2679,6.2679,6.2679,6.2679,6.2679,6.2679,6.2679,6.2679,6.2679,6.2679,6.2679,6.2679,6.2679,6.2679,6.2679,6.2679,6.2679,6.2679,6.2679,6.2679,6.2679,6.2679,6.2679,6.2679,6.2679,0.0,0.0,0.0,0.0,0.0,0.0,0.0,0.0,2.6518,0.0,0.0,0.0,0.0,0.0,0.0,0.0,2.9246,0.0,0.0,0.0,3.5812,4.1933,0.0,0.0,4.7338,4.8162,4.8592,4.8777,4.8765,4.9287,5.047,5.1842,5.2816,5.3396,5.3602,5.3733,5.3808,5.3165,5.278,5.2539,5.2201,5.2196,5.2453,5.2836,5.3149,5.3429,5.3828,5.3972,5.3972,5.3972,5.3972,5.407,5.498,5.5312,5.541,5.6269,5.6582,5.6582,5.6582,5.6582,5.6689,5.7222,5.7807,5.8284,5.8284,5.8284,5.8284,5.8284,5.8706,5.9128,5.9128,5.9548,5.9988,5.9988,5.9988,5.9988,5.9988,5.9988,6.0195,6.092,6.1065,6.1355,6.2245,6.2203,6.2183,6.2617,6.2679,6.2679,6.2679,6.2679,6.2679,6.2679,6.2679,6.2679,6.2679,6.2679,6.2679,6.2679,6.2679,6.2679,6.2679,6.2679,6.2679,6.2679,6.2679,6.2679,6.2679,6.2679,6.2679,6.2679,6.2679,6.2679,3.5703,0.0,0.0,0.0,0.0,0.0,0.0,0.0,0.0,0.0,0.0,0.0,0.0,0.0,0.0,0.0,0.0,2.9231,0.0,3.0108,0.0,0.0,0.0,0.0,0.0,4.5637,4.6066,4.6024,4.612,4.6841,4.8292,5.027,5.1734,5.2491,5.2897,5.3196,5.3357,5.2587,5.2153,5.2008,5.1689,5.1836,5.2266,5.2695,5.3125,5.3555,5.3887,5.3972,5.3972,5.3972,5.4101,5.4277,5.5019,5.5371,5.5566,5.6308,5.6582,5.6582,5.6582,5.6582,5.6635,5.7062,5.7488,5.7807,5.7807,5.7807,5.7807,5.7807,5.8231,5.8654,5.8654,5.9181,5.9779,5.9779,5.9884,5.9988,5.9988,5.9988,6.0257,6.1115,6.1301,6.157,6.2555,6.2431,6.2327,6.2672,6.2679,6.2679,6.2679,6.2679,6.2679,6.2679,6.2679,6.2679,6.2679,6.2679,6.2679,6.2679,6.2679,6.2679,6.2679,6.2679,6.2679,6.2679,6.2679,6.2679,6.2679,6.2679,6.2679,6.2679,6.2679,6.2679,0.0,0.0,0.0,0.0,0.0,0.0,0.0,0.0,2.7682,0.0,0.0,0.0,0.0,0.0,0.0,0.0,0.0,0.0,0.0,0.0,0.0,0.0,0.0,0.0,0.0,4.2482,4.3272,0.0,4.3696,4.4664,4.6375,4.9054,5.0681,5.1067,5.2383,5.2816,5.2229,5.2249,5.1959,5.1426,5.1855,5.2285,5.2695,5.3144,5.3574,5.3953,5.3972,5.3972,5.3972,5.3972,5.4277,5.4707,5.5137,5.5566,5.5924,5.6426,5.6582,5.6582,5.6582,5.6582,5.6582,5.6635,5.6635,5.6635,5.6635,5.6635,5.6635,5.6635,5.7062,5.7415,5.7415,5.8284,5.9128,5.9128,5.9569,5.9988,5.9988,5.9988,6.0257,6.1115,6.1301,6.157,6.2555,6.2679,6.2679,6.2679,6.2679,6.2679,6.2679,6.2679,6.2679,6.2679,6.2679,6.2679,6.2679,6.2679,6.2679,6.2679,6.2679,6.2679,6.2679,6.2679,6.2679,6.2679,6.2679,6.2679,6.2679,6.2679,6.2679,6.2679,6.2679,6.2679,0.0,0.0,3.8437,3.6992,0.0,0.0,0.0,0.0,0.0,0.0,0.0,0.0,0.0,0.0,0.0,0.0,0.0,0.0,0.0,0.0,0.0,0.0,0.0,0.0,0.0,0.0,0.0,3.9685,4.0105,0.0,4.3257,4.6174,4.8506,5.0039,5.1096,5.1848,5.2181,5.1862,5.1728,5.1855,5.2012,5.2461,5.3144,5.3351,5.3613,5.3972,5.3972,5.3972,5.3992,5.4336,5.4551,5.4746,5.5449,5.5748,5.5943,5.6426,5.6582,5.6582,5.6582,5.6582,5.6582,5.6582,5.6582,5.6582,5.6582,5.6582,5.6582,5.6582,5.7009,5.7468,5.7913,5.8548,5.9181,5.9601,5.9831,5.9988,5.9988,5.9988,6.0257,6.1115,6.1301,6.157,6.2555,6.2679,6.2679,6.2679,6.2679,6.2679,6.2679,6.2679,6.2679,6.2679,6.2679,6.2679,6.2679,6.2679,6.2679,6.2679,6.2679,6.2679,6.2679,6.2679,6.2679,6.2679,6.2679,6.2679,6.2679,6.2679,6.2679,6.2679,6.2679,6.2679,4.4219,4.3065,0.0,4.0684,3.8789,0.0,3.4492,0.0,0.0,0.0,0.0,0.0,0.0,0.0,0.0,0.0,0.0,0.0,0.0,2.6443,0.0,0.0,0.0,0.0,0.0,3.568,3.6428,3.6522,3.697,3.8281,0.0,4.381,4.6508,4.8821,5.0185,5.1214,5.1891,5.1571,5.166,5.209,5.2246,5.2676,5.341,5.3535,5.375,5.3972,5.3972,5.3972,5.4011,5.4512,5.4765,5.498,5.5664,5.5982,5.6211,5.6484,5.6582,5.6582,5.6582,5.6582,5.6582,5.6582,5.6582,5.6582,5.6582,5.6582,5.6582,5.6582,5.7009,5.7468,5.786,5.8548,5.9181,5.9621,5.9831,5.9988,5.9988,5.9988,6.0257,6.1115,6.1301,6.157,6.2555,6.2679,6.2679,6.2679,6.2679,6.2679,6.2679,6.2679,6.2679,6.2679,6.2679,6.2679,6.2679,6.2679,6.2679,6.2679,6.2679,6.2679,6.2679,6.2679,6.2679,6.2679,6.2679,6.2679,6.2679,6.2679,6.2679,6.2679,6.2679,6.2679]},{"header":{"parameterUnit":"m.s-1","parameterCategory":1,"la1":30.6,"la2":29.2853,"lo1":-89.7004,"lo2":-87.6739,"dy":0.0162,"dx":0.0183,"nx":112,"ny":82,"refTime":"2026-04-02T12:00:00:Z","depth":0,"parameterNumber":3,"parameterNumberName":"V-component_of_WINDS"},"data":[0.0,0.0,0.0,0.0,0.0,0.0,0.0,0.0,0.0,0.0,0.0,0.0,0.0,0.0,0.0,0.0,0.0,0.0,0.0,0.0,0.0,0.0,0.0,0.0,0.0,0.0,0.0,0.0,0.0,0.0,0.0,0.0,0.0,0.0,0.0,0.0,0.0,0.0,0.0,0.0,0.0,0.0,0.0,0.0,0.0,0.0,0.0,0.0,0.0,0.0,0.0,0.0,0.0,0.0,0.0,0.0,0.0,0.0,0.0,0.0,0.0,0.0,0.0,0.0,0.0,0.0,0.0,0.0,0.0,0.0,0.0,0.0,0.0,0.0,0.0,0.0,0.0,0.0,0.0,0.0,0.0,0.0,0.0,0.0,0.0,0.0,0.0,0.0,0.0,0.0,0.0,3.7685,4.3361,4.6214,4.4796,4.3673,4.1249,3.7036,0.0,0.0,0.0,0.0,0.0,0.0,0.0,0.0,0.0,0.0,0.0,0.0,0.0,0.0,0.0,0.0,0.0,0.0,0.0,0.0,0.0,0.0,0.0,0.0,0.0,0.0,0.0,0.0,0.0,0.0,0.0,0.0,0.0,0.0,0.0,0.0,0.0,0.0,0.0,0.0,0.0,0.0,0.0,0.0,0.0,0.0,0.0,0.0,0.0,0.0,0.0,0.0,0.0,0.0,0.0,0.0,0.0,0.0,0.0,0.0,0.0,0.0,0.0,0.0,0.0,0.0,0.0,0.0,0.0,0.0,0.0,0.0,0.0,0.0,0.0,0.0,0.0,0.0,0.0,0.0,0.0,0.0,0.0,0.0,0.0,0.0,0.0,0.0,0.0,0.0,0.0,0.0,0.0,0.0,0.0,0.0,0.0,0.0,0.0,0.0,0.0,0.0,0.0,0.0,3.54,4.187,4.5453,4.7112,4.6415,4.4941,4.2465,3.8668,0.0,0.0,0.0,0.0,0.0,0.0,0.0,0.0,0.0,0.0,0.0,0.0,0.0,0.0,0.0,0.0,0.0,0.0,0.0,0.0,0.0,0.0,0.0,0.0,0.0,0.0,0.0,0.0,0.0,0.0,0.0,0.0,0.0,0.0,0.0,0.0,0.0,0.0,0.0,0.0,0.0,0.0,0.0,0.0,0.0,0.0,0.0,0.0,0.0,0.0,0.0,0.0,0.0,0.0,0.0,0.0,0.0,0.0,0.0,0.0,0.0,0.0,0.0,0.0,0.0,0.0,0.0,0.0,0.0,0.0,0.0,0.0,0.0,0.0,0.0,0.0,0.0,0.0,0.0,0.0,0.0,0.0,0.0,0.0,0.0,0.0,0.0,0.0,0.0,0.0,0.0,0.0,0.0,0.0,0.0,0.0,0.0,0.0,0.0,0.0,0.0,0.0,0.0,3.6097,4.0687,4.4388,4.668,4.7377,4.595,4.4395,4.1774,3.7757,3.2827,0.0,0.0,0.0,0.0,0.0,0.0,0.0,0.0,0.0,0.0,0.0,0.0,0.0,0.0,0.0,0.0,0.0,0.0,0.0,0.0,0.0,0.0,0.0,0.0,0.0,0.0,0.0,0.0,0.0,0.0,0.0,0.0,0.0,0.0,0.0,0.0,0.0,0.0,0.0,0.0,0.0,0.0,0.0,0.0,0.0,0.0,0.0,0.0,0.0,0.0,0.0,0.0,0.0,0.0,0.0,0.0,0.0,0.0,0.0,0.0,0.0,0.0,0.0,0.0,0.0,0.0,0.0,0.0,0.0,0.0,0.0,0.0,0.0,0.0,0.0,0.0,0.0,0.0,0.0,0.0,0.0,0.0,0.0,0.0,0.0,0.0,0.0,0.0,0.0,0.0,0.0,0.0,0.0,0.0,0.0,0.0,0.0,0.0,0.0,0.0,0.0,0.0,4.148,4.5085,4.6142,4.7497,4.7425,4.5277,4.3433,4.0551,3.6097,3.1985,0.0,0.0,0.0,0.0,0.0,0.0,0.0,0.0,0.0,0.0,0.0,0.0,0.0,0.0,0.0,0.0,0.0,0.0,0.0,0.0,0.0,0.0,0.0,0.0,0.0,0.0,0.0,0.0,0.0,0.0,0.0,0.0,0.0,0.0,0.0,0.0,0.0,0.0,0.0,0.0,0.0,0.0,0.0,0.0,0.0,0.0,0.0,0.0,0.0,0.0,0.0,0.0,0.0,0.0,0.0,0.0,0.0,0.0,0.0,0.0,0.0,0.0,0.0,0.0,0.0,0.0,0.0,0.0,0.0,0.0,0.0,0.0,0.0,0.0,0.0,0.0,0.0,0.0,0.0,0.0,0.0,0.0,0.0,0.0,0.0,0.0,0.0,0.0,0.0,0.0,0.0,0.0,0.0,0.0,0.0,0.0,0.0,0.0,0.0,0.0,0.0,0.0,4.2802,4.619,4.7281,4.793,4.7425,4.5277,4.2784,3.9272,3.4487,3.0665,0.0,0.0,0.0,0.0,0.0,0.0,0.0,0.0,0.0,0.0,0.0,0.0,0.0,0.0,0.0,0.0,0.0,0.0,0.0,0.0,0.0,0.0,0.0,0.0,0.0,0.0,0.0,0.0,0.0,0.0,0.0,0.0,0.0,0.0,0.0,0.0,0.0,0.0,0.0,0.0,0.0,0.0,0.0,0.0,0.0,0.0,0.0,0.0,0.0,0.0,0.0,0.0,0.0,0.0,0.0,0.0,0.0,0.0,0.0,0.0,0.0,0.0,0.0,0.0,0.0,0.0,0.0,0.0,0.0,0.0,0.0,0.0,0.0,0.0,0.0,0.0,0.0,0.0,0.0,0.0,0.0,0.0,0.0,0.0,0.0,0.0,0.0,0.0,0.0,0.0,0.0,0.0,0.0,0.0,0.0,0.0,0.0,0.0,0.0,0.0,0.0,0.0,4.4034,4.7545,0.0,4.8459,4.7786,4.5301,4.2711,3.9272,3.4775,0.0,0.0,0.0,0.0,0.0,0.0,0.0,0.0,0.0,0.0,0.0,0.0,0.0,0.0,0.0,0.0,0.0,0.0,0.0,0.0,0.0,0.0,0.0,0.0,0.0,0.0,0.0,0.0,0.0,0.0,0.0,0.0,0.0,0.0,0.0,0.0,0.0,0.0,0.0,0.0,0.0,0.0,0.0,0.0,0.0,0.0,0.0,0.0,0.0,0.0,0.0,0.0,0.0,0.0,0.0,0.0,0.0,0.0,0.0,0.0,0.0,0.0,0.0,0.0,0.0,0.0,0.0,0.0,0.0,0.0,0.0,0.0,0.0,0.0,0.0,0.0,0.0,0.0,0.0,0.0,0.0,0.0,0.0,0.0,0.0,0.0,0.0,0.0,0.0,0.0,0.0,0.0,0.0,0.0,0.0,0.0,0.0,0.0,0.0,0.0,0.0,0.0,3.9465,4.49,4.8411,0.0,4.9143,4.8267,4.5565,4.2952,3.9465,3.4847,0.0,0.0,0.0,0.0,0.0,0.0,0.0,0.0,0.0,0.0,0.0,0.0,0.0,0.0,0.0,0.0,0.0,0.0,0.0,0.0,0.0,0.0,0.0,0.0,0.0,0.0,0.0,0.0,0.0,0.0,0.0,0.0,0.0,0.0,0.0,0.0,0.0,0.0,0.0,0.0,0.0,0.0,0.0,0.0,0.0,0.0,0.0,0.0,0.0,0.0,0.0,0.0,0.0,0.0,0.0,0.0,0.0,0.0,0.0,0.0,0.0,0.0,0.0,0.0,0.0,0.0,0.0,0.0,0.0,0.0,0.0,0.0,0.0,0.0,0.0,0.0,0.0,0.0,0.0,0.0,0.0,0.0,0.0,0.0,0.0,0.0,0.0,0.0,0.0,0.0,0.0,0.0,0.0,0.0,0.0,0.0,0.0,0.0,0.0,0.0,0.0,0.0,4.0455,4.5357,4.8734,4.9793,4.9913,4.883,4.6142,4.3529,3.9729,0.0,0.0,0.0,0.0,0.0,0.0,0.0,0.0,0.0,0.0,0.0,0.0,0.0,0.0,0.0,0.0,0.0,0.0,0.0,0.0,0.0,0.0,0.0,0.0,0.0,0.0,0.0,0.0,0.0,0.0,0.0,0.0,0.0,0.0,0.0,0.0,0.0,0.0,0.0,0.0,0.0,0.0,0.0,0.0,0.0,0.0,0.0,0.0,0.0,0.0,0.0,0.0,0.0,0.0,0.0,0.0,0.0,0.0,0.0,0.0,0.0,0.0,0.0,0.0,0.0,0.0,0.0,0.0,0.0,0.0,0.0,0.0,0.0,0.0,0.0,0.0,0.0,0.0,0.0,0.0,0.0,0.0,0.0,0.0,0.0,0.0,0.0,0.0,0.0,0.0,0.0,0.0,0.0,0.0,0.0,0.0,0.0,0.0,0.0,0.0,0.0,0.0,0.0,0.0,4.5701,4.9143,4.9841,4.9913,4.9143,4.7185,4.4917,4.1672,3.7108,0.0,0.0,0.0,0.0,0.0,0.0,0.0,0.0,0.0,0.0,0.0,0.0,0.0,0.0,0.0,0.0,0.0,0.0,0.0,0.0,0.0,0.0,0.0,0.0,0.0,0.0,0.0,0.0,0.0,0.0,0.0,0.0,0.0,0.0,0.0,0.0,0.0,0.0,0.0,0.0,0.0,0.0,0.0,0.0,0.0,0.0,0.0,0.0,0.0,0.0,0.0,0.0,0.0,0.0,0.0,0.0,0.0,0.0,0.0,0.0,0.0,0.0,0.0,0.0,0.0,0.0,0.0,0.0,0.0,0.0,0.0,0.0,0.0,0.0,0.0,0.0,0.0,0.0,0.0,0.0,0.0,0.0,0.0,0.0,0.0,0.0,0.0,0.0,0.0,0.0,0.0,0.0,0.0,0.0,0.0,0.0,0.0,0.0,0.0,0.0,0.0,0.0,4.1448,4.6665,5.0146,5.0898,5.1049,5.0543,4.9131,4.7406,4.4412,3.9726,0.0,0.0,0.0,0.0,0.0,0.0,0.0,0.0,0.0,0.0,0.0,0.0,0.0,0.0,0.0,0.0,0.0,0.0,0.0,0.0,0.0,0.0,0.0,0.0,0.0,0.0,0.0,0.0,0.0,0.0,0.0,0.0,0.0,0.0,0.0,0.0,0.0,0.0,0.0,0.0,0.0,0.0,0.0,0.0,0.0,0.0,0.0,0.0,0.0,0.0,0.0,0.0,0.0,0.0,0.0,0.0,0.0,0.0,0.0,0.0,0.0,0.0,0.0,0.0,0.0,0.0,0.0,0.0,0.0,0.0,0.0,0.0,0.0,0.0,0.0,0.0,0.0,0.0,0.0,0.0,0.0,0.0,0.0,0.0,0.0,0.0,0.0,0.0,0.0,0.0,0.0,0.0,0.0,0.0,0.0,0.0,0.0,0.0,0.0,0.0,0.0,0.0,4.2843,4.7961,5.1413,5.2495,5.2752,5.2475,5.1439,5.0322,4.7442,4.2214,0.0,0.0,0.0,0.0,0.0,0.0,0.0,0.0,0.0,0.0,0.0,0.0,0.0,0.0,0.0,0.0,0.0,0.0,0.0,0.0,0.0,0.0,0.0,0.0,0.0,0.0,0.0,0.0,0.0,0.0,0.0,0.0,0.0,0.0,0.0,0.0,0.0,0.0,0.0,0.0,0.0,0.0,0.0,0.0,0.0,0.0,0.0,0.0,0.0,0.0,0.0,0.0,0.0,0.0,0.0,0.0,0.0,0.0,0.0,0.0,3.2993,0.0,0.0,0.0,0.0,0.0,0.0,0.0,0.0,0.0,0.0,0.0,0.0,0.0,0.0,0.0,0.0,0.0,0.0,0.0,0.0,0.0,0.0,0.0,0.0,0.0,0.0,0.0,0.0,0.0,0.0,0.0,0.0,0.0,0.0,0.0,0.0,0.0,0.0,0.0,0.0,0.0,4.2922,4.7961,5.1413,5.2495,5.2752,5.2582,5.1765,5.0801,4.8417,4.4238,0.0,0.0,0.0,0.0,0.0,0.0,0.0,0.0,0.0,0.0,0.0,0.0,0.0,0.0,0.0,0.0,0.0,0.0,0.0,0.0,0.0,0.0,0.0,0.0,0.0,0.0,0.0,0.0,0.0,0.0,0.0,0.0,0.0,0.0,0.0,0.0,0.0,0.0,0.0,0.0,0.0,0.0,0.0,0.0,0.0,0.0,0.0,0.0,0.0,0.0,0.0,0.0,0.0,0.0,0.0,0.0,0.0,0.0,0.0,0.0,0.0,3.5504,0.0,0.0,0.0,0.0,0.0,0.0,0.0,0.0,0.0,0.0,0.0,0.0,0.0,0.0,0.0,0.0,0.0,0.0,0.0,0.0,0.0,0.0,0.0,0.0,0.0,0.0,0.0,0.0,0.0,0.0,0.0,0.0,0.0,0.0,0.0,0.0,0.0,0.0,0.0,0.0,4.3805,4.9097,5.2625,5.347,5.393,5.3933,5.331,5.2284,5.0158,4.6563,4.2185,0.0,0.0,0.0,0.0,0.0,0.0,0.0,0.0,0.0,0.0,0.0,0.0,0.0,0.0,0.0,0.0,0.0,0.0,0.0,0.0,0.0,0.0,0.0,0.0,0.0,0.0,0.0,0.0,0.0,0.0,0.0,0.0,0.0,0.0,0.0,0.0,0.0,0.0,0.0,0.0,0.0,0.0,0.0,0.0,0.0,0.0,0.0,0.0,0.0,0.0,0.0,0.0,0.0,0.0,4.6095,4.622,4.728,4.8058,4.8303,4.4217,4.158,4.015,0.0,0.0,0.0,0.0,0.0,0.0,0.0,0.0,0.0,0.0,0.0,0.0,0.0,0.0,0.0,0.0,0.0,0.0,0.0,0.0,0.0,0.0,0.0,0.0,0.0,4.5389,4.4559,0.0,0.0,0.0,0.0,0.0,0.0,0.0,0.0,0.0,0.0,0.0,0.0,4.5345,5.0778,5.4344,5.5062,5.5663,5.5822,5.5368,5.4369,5.2466,4.9325,4.5431,4.1512,0.0,0.0,0.0,0.0,0.0,0.0,0.0,0.0,0.0,0.0,0.0,0.0,0.0,0.0,0.0,0.0,0.0,0.0,0.0,0.0,0.0,0.0,0.0,0.0,0.0,0.0,0.0,0.0,0.0,0.0,0.0,0.0,3.0181,3.0803,0.0,0.0,0.0,0.0,0.0,0.0,0.0,0.0,0.0,0.0,0.0,0.0,0.0,0.0,4.5995,4.7682,4.9038,5.0125,5.1272,5.2042,5.2528,5.3215,5.3818,5.426,5.3607,0.0,4.5271,4.4719,0.0,0.0,0.0,0.0,0.0,0.0,0.0,0.0,0.0,0.0,0.0,0.0,0.0,0.0,0.0,0.0,0.0,0.0,0.0,0.0,0.0,0.0,4.9538,5.1196,5.2527,5.2983,0.0,4.651,4.1815,3.9826,0.0,0.0,0.0,0.0,0.0,0.0,0.0,0.0,4.7893,5.2698,5.6054,5.7181,5.7478,5.7526,5.7301,5.6848,5.5503,5.2965,5.0218,4.6797,4.2599,3.8585,0.0,0.0,0.0,0.0,0.0,0.0,0.0,0.0,0.0,0.0,0.0,0.0,0.0,0.0,0.0,0.0,0.0,0.0,0.0,0.0,0.0,0.0,0.0,0.0,0.0,0.0,0.0,0.0,0.0,3.1039,3.3244,3.4095,3.3922,3.3498,0.0,0.0,0.0,0.0,0.0,0.0,0.0,0.0,0.0,4.4593,4.6602,4.8843,5.1297,5.3582,5.5114,5.5917,5.7349,5.8152,5.8378,5.8956,5.9332,5.9583,5.991,5.8001,5.4386,5.072,4.7606,4.4895,0.0,0.0,0.0,0.0,0.0,4.3263,4.4669,4.4794,0.0,0.0,0.0,0.0,0.0,0.0,0.0,0.0,0.0,0.0,0.0,0.0,0.0,5.5578,5.6889,5.756,5.6511,5.3893,5.0419,0.0,4.3776,4.177,3.8463,0.0,0.0,0.0,0.0,0.0,5.0508,5.5237,5.8273,5.8807,5.9195,5.94,5.9334,5.8883,5.8038,5.6608,5.4306,5.1573,4.8415,4.4566,4.0917,0.0,0.0,0.0,0.0,0.0,0.0,0.0,0.0,0.0,0.0,0.0,0.0,0.0,0.0,0.0,0.0,0.0,0.0,0.0,0.0,0.0,0.0,0.0,0.0,0.0,0.0,0.0,0.0,3.4971,3.7157,3.8453,3.8328,3.7946,0.0,0.0,0.0,0.0,0.0,0.0,4.3927,4.5759,4.782,5.0155,5.2317,5.4505,5.6743,5.8906,6.0391,6.1268,6.2498,6.3184,6.3311,6.3742,6.392,6.3945,6.4402,6.3691,6.1864,5.6426,5.2804,5.0419,4.7751,4.6722,4.6722,4.6722,4.7525,4.8862,5.0368,5.0594,5.0142,4.9432,0.0,4.6116,4.4266,0.0,0.0,0.0,0.0,4.8596,5.2644,0.0,5.8213,5.9683,6.0966,6.154,6.0082,5.9511,5.7463,0.0,4.9107,4.7339,4.408,0.0,0.0,0.0,0.0,4.9059,5.3624,5.7816,6.0411,6.0575,6.0953,6.1193,6.1193,6.0816,6.0328,5.9731,5.7793,5.5603,5.3241,4.9858,4.6317,0.0,0.0,0.0,0.0,0.0,0.0,0.0,0.0,0.0,0.0,0.0,0.0,0.0,0.0,0.0,0.0,0.0,0.0,0.0,0.0,0.0,0.0,0.0,0.0,0.0,0.0,0.0,0.0,0.0,0.0,4.436,4.5042,0.0,0.0,0.0,0.0,4.6069,4.8353,5.0165,5.129,5.3547,5.5358,5.649,5.8271,6.0279,6.2571,6.324,6.4378,6.5984,6.6023,6.6376,6.6965,6.6991,6.6951,6.6951,6.7017,6.6324,6.4886,6.137,5.8303,5.5616,5.3347,5.2468,5.2468,5.2468,5.3532,5.5089,5.6182,5.6559,5.6358,5.5315,5.2649,4.9894,4.9997,4.8981,0.0,0.0,5.1942,5.3675,5.7221,5.9986,6.2308,6.4205,6.5664,6.6041,6.4119,6.3182,6.0984,0.0,5.3673,5.2246,4.9387,0.0,4.689,4.9411,5.0879,5.3219,5.7461,6.0293,6.2118,6.2707,6.2758,6.2786,6.2786,6.2763,6.2511,6.1893,6.0602,5.8684,5.6009,5.3497,5.037,4.6409,4.2731,0.0,0.0,0.0,0.0,0.0,0.0,0.0,0.0,0.0,0.0,0.0,0.0,0.0,0.0,0.0,0.0,0.0,0.0,0.0,0.0,0.0,0.0,0.0,0.0,0.0,0.0,0.0,0.0,5.0543,5.1711,0.0,0.0,5.1178,5.1749,5.3667,5.634,5.8332,5.942,6.1356,6.2777,6.3549,6.4463,6.5517,6.6726,6.7228,6.7967,6.9026,6.9361,6.9656,6.9844,6.9844,6.9844,6.9844,6.9844,6.9388,6.8557,6.6911,6.376,5.9824,5.8311,5.7752,5.7752,5.7752,5.8311,5.9282,6.0418,6.0573,6.0157,5.9538,5.7736,5.5927,5.6557,5.5841,5.5154,5.6747,5.7749,5.8871,6.1132,6.2786,6.4234,6.5577,6.6413,6.6552,6.5195,6.4193,6.2827,6.0459,5.878,5.7179,5.5392,5.4166,5.3886,5.5212,5.6161,5.7657,6.0414,6.2595,6.4002,6.4232,6.426,6.426,6.426,6.426,6.4174,6.3945,6.2739,6.1416,6.0035,5.7541,5.4789,5.173,4.7949,4.4099,0.0,0.0,0.0,0.0,0.0,0.0,0.0,0.0,0.0,0.0,0.0,0.0,0.0,0.0,0.0,0.0,0.0,0.0,0.0,0.0,0.0,0.0,0.0,0.0,0.0,0.0,5.334,5.5831,5.7415,5.8198,5.7813,5.7848,5.8483,6.0028,6.2539,6.429,6.4985,6.6522,6.7534,6.791,6.8441,6.9081,6.9917,7.0445,7.105,7.1694,7.2067,7.2192,7.2192,7.2192,7.2192,7.2192,7.2192,7.1902,7.1364,7.0873,6.8661,6.5329,6.3351,6.2704,6.2836,6.2651,6.2943,6.3516,6.4247,6.4179,6.3708,6.3755,6.2883,6.1991,6.2794,6.2397,6.1839,6.2637,6.2975,6.3407,6.4659,6.5458,6.6116,6.6978,6.7384,6.7223,6.6124,6.503,6.4092,6.346,6.1918,6.0441,5.957,5.8956,5.8842,5.948,5.9974,6.0845,6.2529,6.4067,6.4996,6.4996,6.4996,6.4996,6.4996,6.4793,6.4677,6.4677,6.3283,6.2151,6.1483,5.9422,5.71,5.4575,5.0001,4.5502,4.1141,0.0,0.0,0.0,0.0,0.0,0.0,0.0,0.0,0.0,0.0,0.0,0.0,0.0,0.0,0.0,0.0,0.0,0.0,0.0,0.0,0.0,0.0,0.0,4.8399,5.3358,5.7789,6.0241,6.2191,6.3353,6.3353,6.3381,6.3856,6.5035,6.684,6.7876,6.7813,6.8903,6.9551,6.9551,7.0105,7.0969,7.2178,7.2864,7.3483,7.4074,7.4074,7.4074,7.4074,7.4074,7.4074,7.4074,7.4074,7.3764,7.3201,7.3173,7.2807,7.1924,6.8446,6.7382,6.7778,6.7273,6.7409,6.7833,6.7833,6.7518,6.7169,6.7956,6.7926,6.7672,6.844,6.8308,6.7932,6.7932,6.7438,6.7028,6.7729,6.7932,6.8073,6.8712,6.8852,6.8538,6.7231,6.5954,6.4851,6.4181,6.298,6.2002,6.1743,6.1474,6.1513,6.2093,6.218,0.0,6.3861,6.4619,6.4996,6.5025,6.5025,6.5025,6.5025,6.4444,6.4007,6.3978,6.2209,6.0874,6.0206,5.8958,5.7071,5.4519,4.8716,4.3452,3.8897,0.0,0.0,0.0,0.0,0.0,0.0,0.0,0.0,0.0,0.0,0.0,0.0,0.0,0.0,0.0,0.0,0.0,0.0,0.0,0.0,0.0,0.0,5.2236,5.3936,5.9099,6.3481,6.5552,6.7483,6.8607,6.8607,6.9039,6.9644,7.0451,7.1834,7.2432,7.1964,7.2251,7.2453,7.2453,7.2129,7.2791,7.4554,7.4756,7.5188,7.5792,7.5792,7.5792,7.5792,7.5792,7.5792,7.5792,7.5792,7.5744,7.5542,7.5044,7.4756,7.4347,7.1747,7.0823,7.0935,7.0796,7.0823,7.0963,7.0963,7.0851,7.0732,7.0773,7.0614,7.0299,6.984,6.9177,6.8479,6.8015,6.7438,6.7028,6.7729,6.8218,6.8741,6.935,6.9873,6.981,6.8533,6.7289,6.6157,6.5515,6.472,6.3988,6.3444,6.3685,6.4009,6.4154,0.0,0.0,6.4677,6.488,6.517,6.5602,6.5631,6.5631,6.5631,6.5083,6.4328,0.0,6.1542,6.0206,5.9568,5.829,5.6374,5.3822,5.0349,4.679,0.0,0.0,0.0,0.0,0.0,0.0,0.0,0.0,0.0,0.0,0.0,0.0,0.0,0.0,0.0,0.0,0.0,0.0,0.0,0.0,0.0,0.0,5.3384,5.7594,6.0032,6.3516,6.6538,6.8484,7.0366,7.1528,7.1528,7.234,7.3008,7.3385,7.4343,7.4547,7.3676,7.3618,7.3618,7.3618,7.3501,7.4227,7.5882,7.6462,7.6898,7.7313,7.7313,7.7313,7.7313,7.7023,7.6907,0.0,7.6616,7.65,7.6471,7.6093,7.5911,0.0,0.0,0.0,0.0,0.0,7.3186,7.3186,7.3186,7.3186,7.3109,7.2666,7.2493,7.2165,7.1111,6.9875,6.8649,6.8073,6.7032,6.6335,6.7231,6.7957,6.8654,6.9588,7.025,7.0453,6.9437,6.7986,6.6767,6.6389,0.0,0.0,6.4819,6.5373,6.5812,6.5812,6.5812,6.5812,0.0,6.5812,6.5925,6.6302,6.6331,6.6215,6.5922,6.5344,0.0,0.0,0.0,5.98,5.8929,5.7855,0.0,0.0,0.0,0.0,0.0,0.0,0.0,0.0,4.1896,4.3376,0.0,0.0,0.0,0.0,0.0,0.0,0.0,0.0,0.0,0.0,0.0,0.0,0.0,0.0,0.0,0.0,5.829,6.2616,6.5776,6.6999,6.816,6.9936,7.1702,7.2834,7.2834,7.385,7.4547,7.4634,7.5185,7.4982,7.3792,0.0,0.0,0.0,0.0,7.5251,7.6587,7.7798,7.8407,7.8407,7.8407,7.8407,7.8378,7.7798,7.7507,7.7478,7.6965,7.6703,7.6703,7.6703,7.6703,7.6587,7.5243,7.4721,7.4721,7.4721,7.4721,0.0,0.0,0.0,0.0,7.4024,7.3792,7.3472,7.2166,7.0453,6.8799,6.816,6.6651,6.5489,6.6767,6.7609,6.8455,6.9733,7.0482,7.0773,7.0134,6.8629,6.7322,6.7231,6.6302,6.5693,6.6154,6.6593,6.6916,6.6916,6.6916,6.6916,6.6916,6.6916,6.6945,6.7003,0.0,0.0,6.6154,6.5489,6.4561,6.3283,6.1251,5.9568,5.8348,5.7739,5.7448,5.7536,5.6432,5.501,5.3352,5.3411,5.3366,5.3126,4.9691,4.9831,0.0,0.0,0.0,0.0,0.0,0.0,0.0,0.0,0.0,0.0,0.0,0.0,0.0,0.0,0.0,5.7507,6.1134,6.4587,6.7778,7.0134,7.1644,7.2021,7.3298,7.414,7.4235,7.4372,7.4721,7.5272,7.5446,7.5156,7.4372,7.3879,0.0,7.4314,7.4459,7.5388,7.7217,7.8001,7.8407,7.8407,0.0,0.0,7.8407,7.8262,7.8204,7.8204,7.8088,7.803,7.803,7.803,7.803,7.7885,7.6645,7.6122,7.6122,7.6122,7.6122,7.6122,7.6122,7.6122,7.6006,7.5359,7.4779,7.4111,7.2834,7.1092,0.0,6.8828,6.7609,6.6825,6.8102,6.8915,6.9762,7.104,7.1789,7.2079,7.1476,7.0599,6.9815,6.9355,6.9065,6.8741,6.8301,6.7492,6.6916,6.6916,6.6916,6.6916,6.6916,6.6916,6.7119,6.7671,6.7729,6.7638,6.7522,6.6418,6.5167,6.392,6.1106,5.9132,5.8348,5.8174,5.8348,5.89,5.8668,5.8377,5.8,5.8493,5.8958,5.9364,5.5568,5.488,0.0,0.0,0.0,0.0,0.0,0.0,0.0,0.0,0.0,0.0,0.0,4.9031,5.2216,0.0,5.7926,6.1175,6.41,6.6964,6.9893,7.2526,7.3904,7.3189,7.4227,7.5011,7.504,7.5301,7.5621,7.5969,7.6288,7.6172,7.5504,7.5504,7.565,7.594,7.6288,7.7072,7.8349,7.9017,7.9365,7.9365,7.9365,7.9365,7.9336,7.9017,7.8843,7.8843,7.8524,7.8407,7.8407,7.8407,7.8407,7.8349,7.7682,7.742,7.742,7.742,7.742,7.7391,7.7043,7.6927,7.6782,7.5824,7.5272,7.4779,7.3501,7.1992,7.0633,6.996,6.8823,6.8073,6.906,6.9757,7.0482,7.1476,7.2166,7.2544,7.2224,7.1644,7.1092,7.0808,7.0453,7.0134,6.981,6.8973,6.8218,6.7899,6.7841,6.7841,6.7841,6.7841,6.7986,6.8305,6.8363,6.8218,6.7932,6.668,6.537,6.4094,6.2267,6.0903,6.0235,6.0526,6.1019,6.1627,6.1977,6.2151,6.2151,6.2441,6.2935,6.3516,6.154,6.0755,0.0,0.0,0.0,0.0,0.0,0.0,0.0,0.0,4.4988,4.8603,5.162,5.4521,5.7539,5.9673,6.1821,6.4446,6.6686,6.9011,7.1638,7.4144,7.5285,7.4139,7.5144,7.5901,7.5901,7.6404,7.6754,7.69,7.7366,7.7482,7.7103,7.7494,7.7767,7.7883,7.833,7.8872,7.9481,8.0033,8.0294,8.0294,8.0294,8.0294,8.0265,7.9743,7.9481,7.9481,7.8988,7.8785,7.8785,7.8785,7.8785,7.8785,7.8785,7.8785,7.8727,7.8494,7.8407,7.8291,7.7624,7.7391,7.7217,7.6056,7.5621,7.533,7.4285,7.3066,7.1934,7.144,7.0419,6.9664,7.0366,7.0802,7.1266,7.1905,7.2427,7.2776,7.266,7.2311,7.2056,7.1911,7.144,7.1034,7.0918,7.0482,6.9873,6.9118,6.8881,6.8794,6.8794,6.8794,6.8794,6.8794,6.8794,6.8567,6.7928,6.6912,6.5718,6.4442,6.3922,6.3341,6.2674,6.3283,6.3893,6.4355,6.5025,6.5344,6.5344,6.5344,6.5606,6.6096,6.6357,6.5834,3.5108,3.7535,4.1889,4.506,4.6743,4.799,0.0,0.0,5.1399,5.439,5.7075,5.9649,6.2057,6.3119,6.4536,6.7162,6.8251,6.9693,7.2316,7.4439,7.5641,7.5481,7.6593,7.7387,7.7387,7.7446,7.7711,7.8337,7.8425,7.869,7.9228,7.8997,7.9061,7.9587,7.9356,7.9511,8.0178,8.0265,8.0294,8.0294,8.0294,8.0294,8.0294,8.0207,8.0178,8.0178,8.012,8.0091,8.0091,8.0091,8.0091,8.0091,8.0091,8.0091,7.9946,7.8814,7.8407,7.8291,7.7624,7.7391,7.7275,7.6616,7.5969,7.5475,7.533,7.4401,7.3385,7.3327,7.2747,7.234,7.3008,7.2805,7.2573,7.324,7.3443,7.3327,7.2747,7.3037,7.3211,7.2631,7.2456,7.2224,7.1708,7.1534,7.1098,6.9878,6.9176,6.8794,6.8794,6.8794,6.8794,6.8794,6.8794,6.8567,6.7928,6.7754,6.7115,6.5776,6.5631,6.5283,6.4677,6.5286,6.5602,6.5689,6.636,6.6712,6.6712,6.6712,6.6741,6.6796,6.7957,6.8131,3.9537,4.2412,4.6746,5.0329,5.3052,5.519,5.651,5.7596,5.8914,6.085,6.3178,6.5161,6.6113,6.6654,6.7433,0.0,6.9662,7.0852,7.3142,7.4803,7.5814,7.5814,7.5606,7.5726,7.6421,7.6503,7.6915,7.7947,7.8743,7.9451,8.0137,8.0129,8.022,8.0483,8.0084,8.0004,8.0294,8.0294,8.0294,8.0294,8.0294,8.0294,8.0294,8.0294,8.0294,8.0294,8.0294,8.0294,8.0294,8.0294,8.0294,8.0294,8.0294,8.0294,8.0236,7.9714,7.9511,7.9423,7.8727,7.8524,7.8349,7.7333,7.684,7.655,7.6172,7.5716,7.5309,7.5309,7.5106,7.4837,7.475,7.4518,7.4285,7.4169,7.414,7.4053,7.3792,7.3937,7.3966,7.3327,7.3182,7.2979,7.234,7.194,7.1534,7.0982,7.0337,6.9897,6.9897,6.9897,6.9897,6.9897,6.9897,6.9781,6.9554,6.9525,6.9147,6.8218,6.816,6.7899,6.726,6.7841,6.816,6.816,6.8799,6.9118,6.9118,6.9118,6.9118,6.9118,6.967,6.9989,4.3822,4.6977,5.0897,5.4768,5.8071,6.0727,6.1968,6.3149,6.4272,6.5278,6.6976,6.8233,6.8328,6.8696,6.9273,7.0111,7.1068,7.2355,7.418,7.5587,7.6305,7.5946,7.4719,7.4185,7.485,7.5259,7.6177,7.7798,7.9197,8.0292,8.1159,8.124,8.1204,8.1204,8.0844,8.0648,8.0648,8.0648,8.0648,8.0648,8.0648,8.0648,8.0648,8.0648,8.057,8.0452,8.0452,8.0412,8.0294,8.0294,8.0294,8.0294,8.0294,8.0294,8.0294,8.0294,8.0294,8.0207,7.954,7.9307,7.9075,7.7827,7.7391,7.7275,7.6674,7.65,7.65,7.65,7.65,7.6384,7.5882,7.565,7.5388,7.4895,7.4779,7.475,7.4547,7.4663,7.4605,7.3995,7.3734,7.3472,7.2979,7.2369,7.1934,7.1934,7.1528,7.1086,7.0738,7.068,7.068,7.068,7.068,7.068,7.068,7.068,7.0512,7.0076,7.0047,6.9815,6.9316,6.9786,7.0047,7.0047,7.0482,7.068,7.068,7.068,7.068,7.068,7.0889,7.1237,4.7169,5.0809,5.4288,5.8189,6.1113,6.3414,6.4684,6.554,6.6105,6.6414,6.7011,6.7641,6.7985,6.8555,6.9423,7.0679,7.2505,7.427,7.5647,7.6933,7.7293,7.6066,7.4719,7.3672,0.0,7.4146,7.5971,7.8573,8.0009,8.1325,8.2649,8.2321,8.2053,8.2053,8.1669,8.1437,8.1437,8.1437,8.1437,8.1437,8.1437,8.1437,8.1437,8.1437,8.1243,8.0883,8.0883,8.0648,8.0294,8.0294,8.0294,8.0294,8.0294,8.0294,8.0294,8.0294,8.0294,8.0207,7.954,7.9307,7.9075,7.7827,7.7391,7.7275,7.6674,7.65,7.65,7.65,7.65,7.65,7.6471,7.5969,7.5504,7.5475,7.5475,7.5301,7.4663,7.5011,7.5301,7.4699,7.4024,7.3618,7.3552,7.3037,7.2573,7.2573,7.2573,7.2108,7.0854,7.068,7.068,7.068,7.068,7.068,7.068,7.068,7.068,7.0651,7.0651,7.0651,7.0622,7.0651,7.0651,7.0651,7.068,7.068,7.068,7.068,7.068,7.0744,7.1353,7.1679,4.9512,5.3932,5.805,6.1567,6.5083,6.7944,6.8778,6.9464,6.9734,6.8995,6.795,6.7324,6.7897,6.8197,6.9034,7.1188,7.3253,7.4869,7.5766,7.6599,7.6664,7.5377,7.4061,0.0,0.0,0.0,0.0,7.7263,7.8729,8.0255,8.2058,8.2112,8.2091,8.2091,8.1707,8.1476,8.1476,8.1476,8.1476,8.1476,8.1476,8.1476,8.1476,8.1476,8.1311,8.0922,8.0922,8.0687,8.0294,8.0294,8.0294,8.0294,8.0294,8.0294,8.0294,8.0294,8.0294,8.0265,8.0033,7.9975,7.983,7.893,7.8669,7.8553,7.7943,7.774,7.774,7.774,7.774,7.774,7.774,7.7595,7.7304,7.6869,7.6782,7.6579,7.594,7.6006,7.594,7.5301,7.5011,7.4721,7.4285,7.4024,7.3879,7.3879,7.3153,7.2456,7.205,7.1957,7.1957,7.1957,7.1957,7.1957,7.1957,7.1957,7.1957,7.1957,7.1957,7.1957,7.1957,7.1957,7.1957,7.1957,7.1957,7.1957,7.1957,7.1957,7.1957,7.1992,7.266,7.295,5.3133,5.7766,6.1972,6.5024,6.8256,7.0769,7.1158,7.1398,7.1038,6.9273,6.6969,6.5443,6.6131,6.6431,6.7508,7.038,7.3313,7.5467,7.6125,7.6993,7.7053,7.5736,7.4629,7.3462,0.0,0.0,0.0,7.5587,7.7203,7.9058,8.1302,8.1996,8.2321,8.2321,8.2091,8.1938,8.1938,8.1938,8.2057,8.2294,8.2294,8.2294,8.2294,8.2294,8.1944,8.1321,8.1321,8.1117,8.0727,8.0727,8.0727,8.0727,8.0727,8.0727,8.0727,8.0727,8.0727,8.0687,8.0412,8.0294,8.0178,7.9511,7.9307,7.9191,7.8582,7.8407,7.8407,7.8407,7.8407,7.8407,7.8407,7.8407,7.8233,7.7566,7.7391,7.7217,7.6645,7.65,7.6384,7.594,7.565,7.5359,7.4953,7.4663,7.4518,7.4518,7.3821,7.3298,7.3298,7.3298,7.3298,7.3298,7.3298,7.3298,7.3298,7.3298,7.3298,7.3298,7.3298,7.3298,7.3298,7.3298,7.3298,7.3298,7.3298,7.3298,7.3298,7.3298,7.3298,7.3298,7.3734,7.3937,5.7909,6.2242,6.5861,6.8495,7.059,7.1966,7.1936,7.1398,7.0141,6.7448,6.4186,6.2002,0.0,0.0,6.4784,6.8315,7.2774,7.6036,7.6689,7.7951,7.831,0.0,0.0,0.0,0.0,0.0,0.0,7.3851,0.0,7.7945,8.0674,8.2088,8.2806,8.2806,8.2806,8.2806,8.2806,8.2836,8.3128,8.3688,8.3718,8.3718,8.3688,8.3688,8.3099,8.2091,8.2091,8.1861,8.1476,8.1476,8.1476,8.1476,8.1476,8.1476,8.1476,8.1476,8.1476,8.136,8.0648,8.0373,8.0257,7.9647,7.9414,7.9327,7.8746,7.8533,7.8533,7.8533,7.8533,7.8533,7.8533,7.8533,7.8397,7.7729,7.7546,7.7371,7.677,7.6587,7.6587,7.6587,7.6056,7.565,7.565,7.5098,7.4663,7.4663,7.4634,7.4576,7.4518,7.4518,7.4518,7.4518,7.4518,7.4518,7.4518,7.4547,7.4583,7.4518,7.4518,7.4518,7.4518,7.4518,7.4518,7.4518,7.4518,7.4518,7.4518,7.4518,7.4518,7.4518,7.4547,7.4576,6.2063,6.6011,6.9032,7.0739,7.2265,7.3253,7.2774,7.1757,6.9871,6.625,6.1343,5.8048,0.0,0.0,0.0,6.655,7.1398,0.0,7.6569,7.7951,0.0,7.7652,0.0,7.6604,7.4809,7.3881,0.0,0.0,7.6006,7.7945,8.0674,8.2088,8.2806,8.2806,8.2806,8.2806,8.2806,8.3247,8.3538,8.3688,8.4196,8.4166,8.3688,8.3688,8.3099,8.2091,8.2091,8.1861,8.1476,8.1476,8.1476,8.1476,8.1476,8.1476,8.1476,8.1476,8.1476,8.1476,8.1273,8.1166,8.1166,8.0989,8.0931,8.0901,8.0764,8.0502,8.0269,8.0269,8.0269,8.0269,8.0269,8.0464,8.0558,7.9912,7.9507,7.9101,7.8488,7.8143,7.7914,7.7914,7.7769,7.7653,7.7653,7.7101,7.6666,7.6666,7.6259,7.5658,7.4634,7.4518,7.4518,7.4518,7.4518,7.4547,7.4518,7.4518,7.4518,7.4518,7.4518,7.4518,7.4518,7.4518,7.4518,7.4518,7.4518,7.4518,7.4518,7.4518,7.4518,7.4518,7.5011,7.5243,6.5532,6.8912,7.1487,7.2505,7.3343,7.3616,7.249,7.0607,6.7846,6.3636,5.8249,5.4723,5.6022,5.6495,5.8719,6.5048,0.0,0.0,7.6155,7.754,7.8303,0.0,7.8195,0.0,7.6793,7.6368,7.6584,0.0,7.7109,7.7825,8.0225,8.1938,8.2806,8.2806,8.3038,8.3337,8.3606,8.3965,8.4286,8.4594,8.4983,8.4803,8.4136,8.4136,8.3483,8.2427,0.0,8.2312,8.2053,8.2053,8.2053,8.2053,8.2053,8.2053,8.2053,8.2053,8.2053,8.2053,8.2053,8.2053,8.2015,8.1592,8.1476,8.1476,8.1476,8.1234,8.0961,8.1088,8.1039,8.0961,8.1117,8.1321,8.1367,8.0757,8.0235,7.9723,7.9138,7.8676,7.8407,7.8407,7.8407,7.8407,7.8407,7.7856,7.7391,7.7391,7.6907,7.6239,7.5446,7.5359,7.5359,7.5359,7.5425,7.5425,7.5359,7.5359,7.5475,7.5766,7.5766,7.5911,7.6201,7.623,7.623,7.623,7.623,7.623,7.623,7.623,7.623,7.623,7.6608,7.6782,6.8645,7.1248,7.3193,7.3762,7.3821,7.3293,7.1459,6.8484,6.479,6.0263,5.4947,5.16,5.3034,5.4581,5.7613,6.3624,6.9609,7.4011,7.5537,7.6871,7.7859,7.8393,7.889,7.9251,7.9504,7.9754,8.0406,8.155,7.9385,7.8724,8.0284,8.2117,8.3101,8.3078,8.3541,8.4094,8.4714,8.4803,8.5132,8.5701,8.5791,8.5432,8.4714,8.4714,8.3995,8.2806,0.0,0.0,8.2806,8.2806,8.2806,8.2806,8.2806,8.2806,8.2806,8.2806,8.2806,8.2806,8.2806,8.2806,8.2693,8.19,8.1669,8.1669,8.1669,8.136,8.1156,8.1476,8.1321,8.1156,8.1476,8.163,8.1551,8.1028,8.0506,8.0052,7.9525,7.9101,7.8794,7.8794,7.8794,7.8794,7.8717,7.8165,7.7729,7.7653,7.713,7.6761,7.6761,7.6616,7.65,7.65,7.65,7.65,7.65,7.65,7.6761,7.7362,7.7391,7.7711,7.8378,7.8407,7.8407,7.8407,7.8407,7.8407,7.8407,7.8407,7.8407,7.8407,7.8407,7.8407,7.1487,7.2954,7.3762,7.3881,7.3492,7.2427,6.9843,6.5967,6.1629,5.7167,5.1495,4.7966,4.9895,5.1963,5.5499,6.2028,6.8016,7.2638,7.4694,7.6071,7.7345,0.0,7.9841,8.1017,8.2184,8.3415,0.0,0.0,0.0,8.4186,8.3409,8.419,8.4662,8.454,8.4321,8.437,8.4714,8.5252,8.5581,8.5701,8.624,8.5881,8.4714,8.4714,8.3995,8.2806,0.0,0.0,8.2806,8.2806,8.2806,8.2806,8.2806,8.2806,8.2806,8.2806,8.2806,8.2806,8.2806,8.2806,8.2769,8.2617,8.2579,8.2579,8.2579,8.2244,8.19,8.1976,8.1938,8.19,8.1976,8.2282,8.2549,8.243,8.2057,8.1692,8.1603,8.1229,8.0959,8.0959,8.0959,8.0843,8.0493,7.9899,7.9346,7.8998,7.8465,7.8059,7.8059,7.7168,7.65,7.65,7.65,7.65,7.65,7.65,7.6761,7.7362,7.7391,7.7711,7.8378,7.8407,7.8407,7.8407,7.8407,7.8407,7.8407,7.8407,7.8407,7.8407,7.8407,7.8407,7.3097,7.4285,7.4818,7.429,7.3211,7.1403,6.7832,6.301,5.8009,5.3477,4.8475,4.5447,4.7158,4.9592,5.3403,5.9768,6.5553,7.0153,7.2756,7.4593,7.6338,7.8154,7.9883,8.1659,8.3451,8.5276,8.6494,0.0,0.0,8.6754,8.5279,8.5814,8.6291,8.6529,8.5949,8.5662,8.5731,8.606,8.621,8.621,8.6578,8.6,8.4714,8.4714,8.3995,8.2806,8.2806,0.0,8.2806,8.2806,8.2806,8.2806,8.2806,8.2806,8.2806,8.2806,8.2806,8.2806,8.2806,8.2806,8.2806,8.2806,8.2806,8.2806,8.2806,8.2473,8.2168,8.2655,8.2739,8.2852,8.3236,8.3647,8.4012,8.4012,8.3647,8.3274,8.3018,8.283,8.2717,8.2717,8.2565,8.2405,8.2176,8.1451,8.0817,8.0626,8.0057,7.9569,7.9342,7.8783,7.8206,7.7555,7.7478,7.7478,7.7478,7.7478,7.774,7.8349,7.8378,7.8698,7.9365,7.9394,7.9394,7.9394,7.9394,7.9394,7.9394,7.9394,7.9394,7.9394,7.9714,7.9859,7.4058,7.5398,7.6014,7.4601,7.2952,7.0506,6.574,5.9948,5.4394,5.0054,4.5841,4.3385,4.4904,4.7456,5.1296,5.7317,6.2818,6.7381,7.0414,7.2883,7.5239,7.7569,7.9954,0.0,8.4628,8.694,0.0,0.0,0.0,0.0,8.7235,8.7487,8.7931,8.8502,8.7803,8.7332,8.7211,8.7211,8.7211,8.7211,8.7211,8.6519,8.5215,8.5215,8.4531,8.3266,8.3266,0.0,0.0,8.3266,8.3266,8.3266,8.3266,8.3266,8.3266,8.3266,8.3266,8.3266,8.3266,8.3266,8.3266,8.3266,8.3071,8.2806,8.2806,8.2511,8.2435,8.3296,8.3573,8.384,8.4649,8.5194,8.5554,8.5554,8.5303,8.4983,8.4594,8.4521,8.4521,8.4521,8.4301,8.4112,8.4038,8.3354,8.28,8.2689,8.2193,8.1647,8.1352,8.1391,8.1071,8.012,7.9225,7.8647,7.8647,7.8647,7.8871,7.9405,7.9541,7.9832,8.0383,8.053,8.057,8.057,8.0648,8.0687,8.0687,8.0776,8.0902,8.1049,8.1516,8.1809,7.4475,7.6299,7.7143,7.4439,7.265,6.9871,6.3556,5.6898,5.1127,4.7773,4.3686,4.1314,4.3412,4.5642,4.904,5.4712,6.0196,6.4834,6.7905,7.1284,7.4466,7.7296,8.0631,8.3866,8.6743,8.9554,9.1241,0.0,0.0,0.0,9.0284,8.9641,8.9556,9.0171,8.9468,8.9035,8.8892,8.8854,8.8854,8.8854,8.8854,8.8178,8.6851,8.6851,8.6152,8.4893,8.4893,0.0,0.0,8.4893,8.4893,8.4893,8.4893,8.4893,8.4893,8.4893,8.4893,8.4893,8.4893,8.4893,8.4893,8.4893,8.3938,8.2806,8.2806,8.2769,8.292,8.364,8.432,8.5024,8.5779,8.649,8.7017,8.7017,8.6983,8.6948,8.6882,8.6882,8.6882,8.6882,8.6847,8.6708,8.6358,8.6221,8.6017,8.5668,8.525,8.4968,8.4932,8.5229,8.5409,8.5299,8.1826,7.9493,7.9493,7.9493,7.9606,7.983,8.0235,8.0597,8.0854,8.1195,8.136,8.136,8.1755,8.1947,8.1947,8.2291,8.278,8.3415,8.3445,8.3803,7.4798,7.7017,7.7904,7.4997,7.2213,6.8446,6.209,5.4931,4.876,4.583,4.2817,4.1105,4.2378,4.4446,4.7528,5.2359,5.6729,6.0921,6.4807,6.8412,7.1817,7.4938,7.8236,8.1426,0.0,0.0,9.0337,0.0,0.0,0.0,9.3171,9.2479,9.2161,9.2368,9.1659,9.0996,9.0411,9.0411,9.0224,8.9749,8.9749,8.9062,8.7749,8.7749,8.7253,8.635,8.635,0.0,0.0,8.635,8.635,8.635,8.635,8.635,8.635,8.635,8.635,8.635,8.635,8.635,8.635,8.635,8.5925,8.5282,8.446,8.4197,8.4344,8.508,8.5841,8.6557,8.7288,8.8008,8.8582,8.8582,8.8582,8.8582,8.8582,8.8582,8.8582,8.8582,8.8414,8.818,8.801,8.7806,8.7632,8.7463,8.7326,8.7049,8.6596,8.705,8.7239,8.6773,8.5164,8.4099,8.4099,8.368,8.3196,8.2744,8.2718,8.2827,8.3121,8.3538,8.4114,8.488,8.5,8.5225,8.5418,8.5567,8.5912,8.6349,8.6779,8.708,7.4177,7.7329,7.8763,7.5417,7.1958,6.7598,6.0827,5.3376,4.7209,4.486,4.2428,4.1048,4.1968,4.3414,4.583,4.9952,5.3245,5.692,6.1545,6.5453,6.9064,7.2249,7.536,7.8477,0.0,8.5798,8.9608,0.0,0.0,0.0,9.514,9.4749,9.435,9.4063,9.3443,9.2782,9.2045,9.2045,9.1659,9.0923,9.0923,9.0224,8.889,8.889,8.8508,8.7874,0.0,0.0,0.0,8.7874,8.7874,8.7874,8.7874,8.7874,8.7874,8.7874,8.7874,8.7874,8.7874,8.7874,8.7874,8.7874,8.7874,8.7703,8.6693,8.609,8.5845,8.6588,8.7527,8.8446,8.9148,8.974,9.0131,9.0131,9.0131,9.0131,9.0131,9.0131,9.0131,9.0131,8.9903,8.9708,8.9708,8.9511,8.9379,8.9379,8.9247,8.8982,8.848,8.9113,8.9381,8.8896,8.9193,8.8858,8.7567,8.6834,8.6084,8.5218,8.5078,8.504,8.5142,8.5706,8.646,8.7432,8.7688,8.7876,8.8135,8.8352,8.8734,8.9141,8.9609,9.0063,7.2365,7.711,7.9818,7.5402,7.2033,6.7711,5.9661,5.2175,4.651,4.5002,4.2417,4.0812,4.2255,4.2506,4.3746,4.7421,4.9889,5.3153,5.8237,6.2688,6.6529,6.95,7.244,7.5662,7.9279,8.4875,8.984,0.0,0.0,0.0,9.5902,9.6001,9.564,9.4908,9.447,9.413,9.3752,9.3752,9.3428,9.2648,9.2648,9.1903,9.0481,9.0481,9.0124,0.0,0.0,0.0,0.0,8.9477,8.9477,8.9477,8.9477,8.9477,8.9477,8.9477,8.9477,8.9477,8.9477,8.9477,8.9477,8.9477,8.9477,8.9477,8.9444,8.838,8.7328,8.8078,8.9379,9.0711,9.1408,9.1596,9.1596,9.1596,9.1596,9.1596,9.1596,9.1596,9.1596,9.1596,9.1596,9.1596,9.1596,9.1596,9.1596,9.1596,9.1249,9.1093,9.1061,9.1989,9.2647,9.2647,9.3957,9.3034,8.8675,8.7897,8.7346,8.6529,8.6926,8.6963,8.6491,8.7236,8.786,8.826,8.8984,8.9375,8.941,9.0181,9.0912,9.1549,9.1549,9.2318,6.824,7.2435,7.4761,7.1067,6.7344,6.3029,5.6945,5.0684,4.5715,4.4242,4.2818,4.1957,4.2421,4.2918,4.3977,4.6146,4.8365,5.1578,5.668,6.1616,6.6154,7.0096,7.49,7.9339,0.0,0.0,0.0,0.0,0.0,0.0,9.4445,9.4511,9.4844,9.564,9.5541,9.5408,9.5309,9.5309,9.4683,9.3434,9.3434,9.2709,9.1262,9.1262,0.0,0.0,0.0,0.0,0.0,9.0933,9.0933,9.0933,9.0933,9.0933,9.0933,9.0933,9.0933,9.0933,9.0933,9.0933,9.0933,9.0933,9.0933,9.0933,9.0933,8.9936,8.8915,8.9675,9.0389,9.1061,9.1502,9.1627,9.1627,9.1627,9.1627,9.1627,9.1627,9.1627,9.1627,9.1627,9.1993,9.2324,9.2324,9.2755,9.3086,9.3086,9.2991,9.2864,9.2607,9.3367,9.3763,9.3499,9.4317,9.4341,9.2933,9.2178,9.1443,9.0631,9.0514,9.0514,9.0595,9.1092,9.1828,9.28,9.304,9.3279,9.3482,9.3751,9.4117,9.4614,9.4614,9.4846,6.2766,6.6771,6.8842,6.6176,6.2812,5.892,5.4328,4.9193,4.5119,4.4209,4.3216,4.2587,4.2851,4.3267,4.3977,4.52,4.6775,4.9823,5.5487,6.0742,6.6342,7.2614,7.755,0.0,0.0,8.6494,0.0,0.0,0.0,0.0,9.3749,9.3782,9.4213,9.514,9.5173,9.5173,9.5173,9.5173,9.4577,9.3384,9.3384,9.2755,9.1627,9.1627,0.0,0.0,0.0,0.0,0.0,9.1627,9.1627,9.1627,9.1627,9.1627,9.1627,9.1627,9.1627,9.1627,9.1627,9.1627,9.1627,9.1627,9.1627,9.1627,9.1627,9.0996,9.0389,9.087,9.1124,9.1345,9.1564,9.1627,9.1627,9.1627,9.1627,9.1627,9.1627,9.1627,9.1627,9.1627,9.2192,9.2689,9.2689,9.3318,9.3782,9.3782,9.3782,9.3718,9.3526,9.4121,9.4485,9.4256,9.4881,9.5309,9.5309,9.447,9.3653,9.2998,9.2782,9.2782,9.2928,9.3344,9.3995,9.4874,9.5009,9.5176,9.5408,9.5574,9.5739,9.6001,9.6001,9.6001,0.0,6.0245,6.2399,6.0986,5.8469,5.5407,5.1861,4.7752,0.0,4.4637,4.3529,4.2785,4.3466,4.3631,4.3911,4.467,4.5532,4.8398,5.4906,6.0721,6.7701,7.6788,8.0366,0.0,8.4175,0.0,0.0,0.0,0.0,0.0,9.3616,9.3649,9.3649,9.3649,9.3649,9.3683,9.3782,9.3782,9.3418,9.2689,9.2689,9.2291,9.1627,9.1627,0.0,0.0,0.0,0.0,0.0,9.1627,9.1627,9.1627,9.1627,9.1627,9.1627,9.1627,9.1627,9.1627,9.1627,9.1627,9.1627,9.1627,9.1627,9.1627,9.1627,9.1627,9.1627,9.1627,9.166,9.1693,9.1693,9.1726,9.1759,9.1759,9.1759,9.1759,9.1759,9.1759,9.1759,9.1759,9.2324,9.2854,9.2854,9.3451,9.3948,9.3948,9.3948,9.3948,9.3948,9.4544,9.4975,9.4975,9.5604,9.6001,9.6001,9.5042,9.4266,9.3957,9.3957,9.3957,9.3957,9.4232,9.4572,9.4942,9.5276,9.5442,9.5442,9.5804,9.6001,9.6001,9.6001,9.6001,4.6262,0.0,5.719,5.6263,5.4295,5.1894,0.0,4.6643,4.4538,4.3977,4.358,4.34,4.3565,4.4044,4.4688,4.5432,4.757,5.128,5.7276,6.7347,7.6192,8.179,8.4043,8.5728,8.7157,0.0,0.0,0.0,0.0,9.1927,9.2124,9.2093,9.2093,9.2093,9.2093,9.2656,9.3782,9.3782,9.3418,9.2689,9.2689,9.2291,9.1627,9.1627,0.0,0.0,0.0,0.0,9.1627,9.1627,9.1627,9.1627,9.1627,9.1627,9.1627,9.1627,9.1627,9.1627,9.1627,9.1627,9.1627,9.1627,9.1627,9.1627,9.1627,9.1627,9.1627,9.1627,9.1993,9.2424,9.2424,9.2854,9.3285,9.3285,9.3285,9.3285,9.3285,9.3285,9.3285,9.3285,9.3881,9.4378,9.4378,9.5008,9.5471,9.5471,9.5471,9.5471,9.5471,9.5637,9.5736,9.5736,9.5902,9.6001,9.6001,9.5739,9.5805,9.6265,9.5804,9.5738,9.6298,9.5838,9.564,9.5739,9.5838,9.587,9.587,9.5969,9.6001,9.6001,9.6001,9.6001,4.3429,4.7521,5.1097,5.1031,5.0121,4.8879,4.7338,4.5284,4.3661,4.3613,4.3333,4.3315,4.3977,4.4721,4.5664,4.7073,4.9756,5.4872,6.4133,7.3807,8.1558,8.5964,8.7786,8.8976,0.0,0.0,0.0,0.0,0.0,9.1627,9.1627,9.1627,9.1627,9.1627,9.1627,9.1991,9.2755,9.2788,9.2589,9.2192,9.2192,9.196,9.1627,9.1627,9.1627,0.0,0.0,0.0,9.1627,9.1627,9.1627,9.1627,9.1627,9.1627,9.1627,9.1627,9.1627,9.1627,9.1627,9.1627,9.1627,9.1627,9.1627,9.1627,9.1627,9.1859,9.2026,9.1726,9.2126,9.2689,9.2689,9.3252,9.3782,9.3782,9.3782,9.3782,9.3782,9.3782,9.3782,9.3782,9.4411,9.4908,9.4908,9.5505,9.6001,9.6001,9.6001,9.6001,9.6001,9.6001,9.6001,9.6001,9.6001,9.6001,9.6001,9.6001,9.6333,9.7062,9.6432,9.6333,9.7095,9.6399,9.6001,9.6001,9.6001,9.6001,9.6001,9.6001,9.6001,9.6001,9.6001,9.6001,4.361,4.5167,4.6179,4.7007,4.7239,4.7073,4.6444,4.4787,4.3481,4.4011,4.3613,4.358,4.4968,4.5996,4.7438,4.9889,5.3515,6.027,7.2415,7.9372,8.4805,8.9048,9.0767,0.0,0.0,0.0,0.0,0.0,0.0,9.1627,9.1627,9.1627,9.1627,9.1627,9.1627,9.1627,9.1627,9.1627,9.1627,9.1627,9.1627,9.1627,9.1627,9.1627,9.1627,0.0,0.0,0.0,9.1627,9.1627,9.1627,9.1627,9.1627,9.1627,9.1627,9.1627,9.1627,9.1627,9.1627,9.1627,9.1627,9.1627,9.1627,9.1627,9.1627,9.2093,9.2556,9.1927,9.2358,9.302,9.302,9.3583,9.4146,9.4146,9.4146,9.4146,9.4146,9.4146,9.4146,9.4146,9.4643,9.5074,9.5074,9.5604,9.6001,9.6001,9.6001,9.6001,9.6001,9.6001,9.6001,9.6001,9.6001,9.6001,9.6001,9.6001,9.6366,9.7227,9.6465,9.63,9.6929,9.6333,9.6001,9.6001,9.6001,9.6001,9.6001,9.6001,9.6001,9.6001,9.6001,9.6001,4.2222,4.4754,4.7073,4.8431,4.8746,4.8713,4.863,4.7868,4.7007,4.651,4.6311,4.6477,4.7338,4.9111,5.1563,5.4976,6.2676,7.0659,7.7623,8.2188,8.6163,8.9875,0.0,9.1627,0.0,0.0,0.0,0.0,0.0,9.1627,9.1627,9.1627,9.1627,9.1627,9.1627,9.1627,9.1627,9.1627,9.1627,9.1627,9.1627,9.1627,9.1627,9.1627,9.1627,0.0,0.0,9.1627,9.1627,9.1627,9.1627,9.1627,9.1627,9.1627,9.1627,9.1627,9.1627,9.1627,9.1627,9.1627,9.1627,9.1627,9.1627,9.1627,9.1627,9.2093,9.2656,9.2556,9.3517,9.4577,9.4577,9.5107,9.567,9.567,9.567,9.567,9.567,9.567,9.567,9.567,9.577,9.5836,9.5836,9.5935,9.6001,9.6001,9.6001,9.6001,9.6001,9.6001,9.6001,9.6001,9.6001,9.6001,9.6001,9.6001,9.6565,9.7956,9.6763,9.6068,9.6167,9.6068,9.6001,9.6001,9.6001,9.6001,9.6001,9.6001,9.6001,9.6001,9.6001,9.6001,4.2024,4.4092,4.6344,4.9028,5.0865,5.2024,5.2024,5.1428,5.0717,5.0039,4.9226,4.916,5.0651,5.2705,5.66,6.3802,7.0626,7.6629,8.1299,8.4805,8.7723,0.0,0.0,0.0,0.0,0.0,0.0,0.0,0.0,0.0,9.1627,9.1627,9.1627,9.1627,9.1627,9.1627,9.1627,9.1627,9.1627,9.1627,9.1627,9.1627,9.1627,9.1627,9.1627,9.1627,0.0,9.1627,9.1627,9.1627,9.1627,9.1627,9.1627,9.1627,9.1627,9.1627,9.1627,9.1627,9.1627,9.1861,9.2192,9.2192,9.2457,9.2788,9.2788,9.3285,9.3881,9.3881,9.4378,9.4908,9.4908,9.5438,9.6001,9.6001,9.6001,9.6001,9.6001,9.6001,9.6001,9.6001,9.6001,9.6001,9.6001,9.6001,9.6001,9.6001,9.6001,9.6001,9.6001,9.6001,9.6001,9.6001,9.6001,9.6001,9.6001,9.6001,9.63,9.6962,9.7095,9.683,9.6035,9.6001,9.6001,9.6001,9.6001,9.6001,9.6001,9.6001,9.62,9.6598,9.6598,9.6797,4.2322,4.3727,4.5598,4.9293,5.2223,5.4376,5.4906,5.4972,5.4759,5.4063,5.3169,5.3051,5.4872,5.7707,6.261,7.1355,7.6424,8.0564,8.4241,8.6958,0.0,0.0,0.0,0.0,0.0,0.0,0.0,0.0,0.0,0.0,9.1627,9.1627,9.1627,9.1627,9.1627,9.1627,9.1627,9.1627,9.1627,9.1627,9.1627,9.1627,9.1627,9.1627,9.1627,9.1627,9.1627,9.1627,9.1627,9.1627,9.1627,9.1627,9.1627,9.1627,9.1627,9.1627,9.1627,9.1627,9.1627,9.2059,9.2689,9.2689,9.3186,9.3782,9.3782,9.4312,9.4908,9.4908,9.5008,9.5173,9.5173,9.5571,9.6001,9.6001,9.6001,9.6001,9.6001,9.6001,9.6001,9.6001,9.6001,9.6001,9.6001,9.6001,9.6001,9.6001,9.6001,9.6001,9.6001,9.6001,9.6001,9.6001,9.6001,9.6001,9.6001,9.6333,9.6432,9.6266,9.7625,9.7824,9.6333,9.6266,9.62,9.6001,9.6001,9.6001,9.6001,9.6167,9.6565,9.7095,9.7293,9.7658,4.2951,4.4092,4.5598,4.9293,5.1859,5.4011,5.6051,5.8071,5.933,5.8568,5.8899,5.9562,6.037,6.5094,7.022,7.4395,7.8709,8.285,8.6557,0.0,0.0,0.0,0.0,0.0,0.0,0.0,0.0,0.0,0.0,0.0,9.1627,9.1627,9.1627,9.1627,9.1627,9.1627,9.1627,9.1627,9.1627,9.1627,9.1627,9.1627,9.1627,9.1627,9.1627,9.1627,9.1627,9.1627,9.1627,9.1627,9.1627,9.1627,9.1627,9.1627,9.1627,9.1627,9.1627,9.1627,9.1627,9.2059,9.2689,9.2689,9.3186,9.3782,9.3782,9.4312,9.4908,9.4908,9.5405,9.5935,9.5935,9.5968,9.6001,9.6001,9.6001,9.6001,9.6001,9.6001,9.6001,9.6001,9.6001,9.6001,9.6001,9.6001,9.6001,9.6001,9.6001,9.6001,9.6001,9.6001,9.6001,9.6001,9.6001,9.6001,9.6001,9.7227,9.7724,9.7062,9.8387,9.8552,9.7095,9.7028,9.6697,9.6001,9.6001,9.6001,9.6001,9.6697,9.7062,9.7128,9.779,9.8155,4.2719,4.3448,4.4905,4.858,5.1826,5.5005,5.8634,6.1848,6.4233,6.4862,6.5591,6.5889,6.5271,6.8814,7.3045,7.6722,8.0995,8.497,8.815,8.984,0.0,0.0,0.0,0.0,0.0,0.0,0.0,0.0,0.0,0.0,9.1627,9.1627,9.1627,9.1627,9.1627,9.1627,9.1627,9.1627,9.1627,9.1627,9.1627,9.1627,9.1627,9.1627,9.1828,9.2258,9.2258,9.2258,9.2258,9.2258,9.1993,9.1627,9.1627,9.1627,9.1627,9.1627,9.1627,9.1627,9.1627,9.2358,9.3384,9.3384,9.4179,9.5173,9.5173,9.5372,9.5571,9.5571,9.577,9.6001,9.6001,9.6001,9.6001,9.6001,9.6001,9.6001,9.6001,9.6001,9.6001,9.6001,9.6001,9.6001,9.6001,9.6001,9.6001,9.6001,9.6001,9.6001,9.6001,9.6001,9.6001,9.6001,9.6001,9.6001,9.6001,9.7327,9.8089,9.779,9.8751,9.8618,9.7161,9.7095,9.6763,9.6001,9.6001,9.6233,9.6697,9.6962,9.7558,9.8453,9.8751,9.9116,4.2785,4.3035,4.4209,4.8117,5.166,5.5601,6.1164,6.5436,6.8672,7.0153,7.1189,7.1355,6.9642,7.1927,7.5139,0.0,8.2358,8.613,8.8981,9.0668,0.0,0.0,0.0,0.0,0.0,0.0,0.0,0.0,0.0,0.0,0.0,9.1627,9.1627,9.1627,9.1627,9.1627,9.1627,9.1627,9.1627,9.1627,9.1627,9.1627,9.1627,9.1627,9.1993,9.2689,9.2689,9.2689,9.2689,9.2689,9.229,9.1627,9.1627,9.1627,9.1627,9.1627,9.1627,9.1627,9.1627,9.2556,9.3782,9.3782,9.4809,9.6001,9.6001,9.6001,9.6001,9.6001,9.6001,9.6001,9.6001,9.6001,9.6001,9.6001,9.6001,9.6001,9.6001,9.6001,9.6001,9.6001,9.6001,9.6001,9.6001,9.6001,9.6001,9.6001,9.6001,9.6001,9.6001,9.6001,9.6001,9.6001,9.6001,9.6001,9.6001,9.7128,9.7823,9.7823,9.8553,9.8585,9.7823,9.779,9.7459,9.6697,9.6697,9.6929,9.7459,9.7691,9.832,9.9315,9.9513,9.9844,4.3414,4.3069,4.3613,4.8017,5.1329,5.5568,6.3615,6.8847,7.2448,7.3964,7.5397,7.5695,7.3541,7.49,0.0,7.9245,8.2689,8.613,8.8981,9.0668,9.1627,0.0,0.0,0.0,0.0,0.0,0.0,0.0,0.0,0.0,0.0,9.1627,9.1627,9.1627,9.1627,9.1627,9.1627,9.1627,9.1627,9.1627,9.1627,9.1627,9.1627,9.1627,9.1993,9.2689,9.2689,9.2689,9.2689,9.2689,9.2258,9.1596,9.1627,9.1627,9.1627,9.1627,9.1627,9.1627,9.1627,9.2556,9.3782,9.3782,9.4809,9.6001,9.6001,9.6001,9.6001,9.6001,9.6001,9.6001,9.6001,9.6001,9.6001,9.6001,9.6001,9.6001,9.6001,9.6001,9.6001,9.6001,9.6001,9.6001,9.6001,9.6001,9.6001,9.6001,9.6001,9.6001,9.6001,9.6001,9.6001,9.6001,9.6001,9.6001,9.6001,9.6697,9.7095,9.7095,9.779,9.852,9.9249,9.9282,9.895,9.8188,9.8188,9.8188,9.8221,9.895,9.9315,9.9348,9.9977,10.0308,4.4688,4.5384,4.6775,5.166,5.5866,6.0523,6.7016,7.1114,7.4991,8.0034,8.0598,7.9339,7.6596,7.749,0.0,0.0,0.0,0.0,8.9078,9.0668,9.1627,0.0,0.0,0.0,0.0,0.0,0.0,0.0,0.0,0.0,0.0,9.1627,9.1627,9.1627,9.1627,9.1627,9.1627,9.1627,9.1627,9.1627,9.1627,9.1627,9.1627,9.1627,9.1993,9.2689,9.2689,9.2987,9.3418,9.2888,9.2556,9.2291,9.1794,9.1627,9.1627,9.1627,9.1627,9.1627,9.1627,9.2556,9.3782,9.3782,9.4809,9.6001,9.6001,9.6001,9.6001,9.6001,9.6001,9.6001,9.6001,9.6001,9.6001,9.6001,9.6001,9.6001,9.6001,9.6001,9.6001,9.6001,9.6001,9.6001,9.6001,9.6001,9.6001,9.6001,9.6001,9.6001,9.6001,9.6001,9.6001,9.6001,9.6001,9.6001,9.6001,9.6697,9.7095,9.7095,9.779,9.8089,9.7757,9.7757,9.7393,9.6664,9.6664,9.7161,9.8221,9.842,9.9016,10.001,10.0209,10.0308,4.5119,4.6974,4.9591,5.527,6.0423,6.6187,7.4072,7.6788,7.9034,8.3877,8.3943,8.2386,8.0034,8.0332,0.0,8.1299,0.0,0.0,0.0,9.0436,9.1264,0.0,0.0,0.0,0.0,0.0,0.0,0.0,0.0,0.0,0.0,9.1627,9.1627,9.1627,9.1627,9.1627,9.1627,9.1627,9.1627,9.1627,9.1627,9.1627,9.1627,9.1627,9.1993,9.2722,9.2987,9.3384,9.3749,9.2987,9.2689,9.2623,9.1892,9.1627,9.1627,9.1627,9.1627,9.1627,9.1627,9.2358,9.3351,9.3351,9.4345,9.5571,9.5571,9.577,9.6001,9.6001,9.6001,9.6001,9.6001,9.6001,9.6001,9.6001,9.6001,9.6001,9.6001,9.6001,9.6001,9.6001,9.6001,9.6001,9.6001,9.6001,9.6001,9.6001,9.6001,9.6001,9.6001,9.6001,9.6001,9.6001,9.6001,9.6001,9.6001,9.6432,9.6797,9.7095,9.7525,9.7691,9.7525,9.7525,9.7327,9.6863,9.6863,9.7459,9.8652,9.8652,9.9182,10.0308,10.0308,10.0308,4.5218,4.8299,5.219,5.8933,6.5227,7.2481,8.2751,8.4109,8.3811,8.606,8.5964,8.5037,8.3579,8.3347,8.3579,8.4109,0.0,0.0,0.0,0.0,9.0668,0.0,0.0,0.0,0.0,0.0,0.0,0.0,0.0,0.0,0.0,9.1627,9.1594,9.1496,9.1529,9.1594,9.1496,9.1594,9.1627,9.1627,9.1627,9.1627,9.1627,9.1627,9.1991,9.2623,9.3384,9.3683,9.3649,9.2987,9.2689,9.2623,9.1892,9.1627,9.1627,9.1627,9.1629,9.1726,9.1726,9.2225,9.2888,9.2888,9.3848,9.5008,9.5008,9.5471,9.6001,9.6001,9.6001,9.6001,9.6001,9.6001,9.6001,9.6001,9.6001,9.6001,9.6001,9.6001,9.6001,9.6001,9.6001,9.6001,9.6001,9.6001,9.6001,9.6001,9.6001,9.6001,9.6001,9.6001,9.6001,9.6001,9.6001,9.6001,9.6001,9.6001,9.6333,9.7062,9.7095,9.7426,9.8188,9.8155,9.8122,9.8221,9.8122,9.852,9.9315,9.9315,9.9645,10.0308,10.0308,10.0308,4.6974,5.0932,5.5435,6.3151,7.1653,7.9339,8.4043,8.5302,8.6097,8.8283,8.8614,8.8051,8.6623,8.6792,8.6825,8.5894,8.6925,0.0,0.0,0.0,0.0,0.0,0.0,0.0,0.0,0.0,0.0,0.0,0.0,0.0,9.1627,9.1627,9.1331,9.0767,9.1297,9.1297,9.0767,9.1297,9.1627,0.0,9.1627,9.1627,9.1627,9.1627,9.1662,9.1861,9.2623,9.2921,9.2921,9.2755,9.2689,9.2623,9.1892,9.1627,9.1627,9.1627,9.1991,9.2457,9.2457,9.3318,9.4411,9.4411,9.5041,9.577,9.577,9.5869,9.6001,9.6001,9.6001,9.6001,9.6001,9.6001,9.6001,9.6001,9.6001,9.6001,9.6001,9.6001,9.6001,9.6001,9.6001,9.6001,9.6001,9.6001,9.6001,9.6001,9.6001,9.6001,9.6001,9.6001,9.6001,9.6001,9.6001,9.6001,9.6001,9.6001,9.6333,9.7062,9.7095,9.7426,9.8188,9.7625,9.7592,9.8188,9.7625,9.7989,9.9315,9.9315,9.9645,10.0308,10.0308,10.0308,4.7438,5.2753,5.9297,7.0494,7.7815,8.3049,8.5964,8.6925,8.772,8.9575,8.9346,8.8647,8.7919,8.8051,8.7952,8.6921,8.7322,8.7919,0.0,0.0,0.0,0.0,0.0,0.0,0.0,0.0,0.0,0.0,0.0,9.1627,9.1627,9.1264,9.09,9.0505,9.0536,9.037,8.9975,9.037,9.0734,9.1066,9.1066,9.1264,9.1627,9.1627,9.1627,9.1629,9.2358,9.2689,9.2689,9.2689,9.2689,9.2623,9.1892,9.1627,9.1627,9.1627,9.2059,9.2689,9.2689,9.3418,9.4378,9.4378,9.4875,9.5471,9.5471,9.5736,9.6001,9.6001,9.6001,9.6001,9.6001,9.6001,9.6001,9.6001,9.6001,9.6001,9.6001,9.6001,9.6001,9.6001,9.6001,9.6001,9.6001,9.6001,9.6001,9.6001,9.6001,9.6001,9.6001,9.6001,9.6001,9.6001,9.6001,9.6134,9.6498,9.6532,9.6995,9.8088,9.8155,9.8453,9.9182,9.8519,9.8155,9.8221,9.7459,9.7823,9.9315,9.9315,9.9645,10.0308,10.0308,10.0308,4.7438,5.509,6.4332,7.7583,8.2552,8.4871,8.7521,8.815,8.8548,9.0008,8.9412,8.8647,8.8515,8.8515,8.825,8.7451,8.7319,8.7488,8.8051,0.0,0.0,0.0,0.0,0.0,0.0,0.0,0.0,0.0,0.0,9.1198,9.1198,9.0635,9.024,9.0107,8.9644,8.9313,8.918,8.9313,8.9741,9.0306,9.0438,9.09,9.1627,9.1627,9.1627,9.166,9.2225,9.249,9.249,9.249,9.249,9.2424,9.1859,9.1693,9.1793,9.1793,9.2324,9.3053,9.3053,9.355,9.4179,9.4179,9.4577,9.5074,9.5074,9.5505,9.6001,9.6001,9.6001,9.6001,9.6001,9.6001,9.6001,9.6001,9.6001,9.6001,9.6001,9.6001,9.6001,9.6001,9.6001,9.6001,9.6001,9.6001,9.6001,9.6001,9.6001,9.6001,9.6001,9.6001,9.6001,9.6001,9.6001,9.63,9.7062,9.7095,9.7724,9.9215,9.9315,9.9579,10.0308,9.9645,9.9083,9.8586,9.7857,9.8122,9.9447,9.9447,9.9745,10.0308,10.0308,10.0308,4.7918,5.9947,7.2084,7.9736,8.3314,8.5401,8.7024,8.7451,8.7819,8.9277,8.9875,9.0008,8.9346,8.9246,8.8813,8.7518,8.7319,8.7352,8.7418,8.7451,8.7485,0.0,0.0,0.0,0.0,0.0,0.0,0.0,8.9707,8.9707,8.9707,8.9608,8.9246,8.8614,8.9144,8.9111,8.8449,8.9081,8.9445,8.9544,9.0174,9.09,9.1627,9.1627,9.1627,9.1627,9.1695,9.1759,9.1759,9.1759,9.1759,9.1759,9.166,9.196,9.2556,9.2556,9.3418,9.461,9.461,9.5074,9.5703,9.5703,9.577,9.5869,9.5869,9.5935,9.6001,9.6001,9.6001,9.6001,9.6001,9.6001,9.6001,9.6001,9.6001,9.6001,9.6001,9.6001,9.6001,9.6001,9.6001,9.6001,9.6001,9.6001,9.6001,9.6001,9.6001,9.6001,9.6001,9.6001,9.6001,9.6001,9.6001,9.63,9.7062,9.7095,9.7724,9.9215,9.9315,9.9579,10.0308,9.9645,9.9513,10.001,9.9347,9.938,10.0209,10.0209,10.0209,10.0308,10.0308,10.0308,5.1397,6.2465,7.2448,7.9438,8.285,8.4871,8.6358,8.7021,8.7687,8.9111,8.9644,8.9909,8.9975,8.9677,8.9078,8.8018,8.7551,8.7319,8.7319,8.7319,8.7319,8.7319,0.0,0.0,0.0,0.0,0.0,0.0,8.9379,8.9379,8.9379,8.9012,8.8647,8.8316,8.825,8.8051,8.772,8.8051,8.8415,8.8813,8.9942,9.0701,9.0999,9.1397,9.1627,9.1627,9.1627,9.1627,9.1627,9.1627,9.1627,9.1627,9.1627,9.2026,9.2689,9.2689,9.3616,9.4908,9.4908,9.5372,9.5935,9.5505,9.5372,9.5372,9.5372,9.5372,9.5471,9.5902,9.6001,9.6001,9.6001,9.6001,9.6001,9.6001,9.6001,9.6001,9.6001,9.6001,9.6001,9.6001,9.6001,9.6001,9.6001,9.6001,9.6001,9.6001,9.6001,9.6001,9.6001,9.6001,9.6001,9.6001,9.6001,9.6465,9.7625,9.7724,9.832,9.9778,9.9844,9.9977,10.0308,10.001,10.001,10.0308,9.9645,9.9612,10.0308,10.0308,10.0308,10.0308,10.0308,10.0308,5.3319,6.2146,6.9798,7.6755,8.0266,8.2519,8.4403,8.5662,8.6925,8.8548,8.9012,8.9346,9.0074,8.9776,8.9147,8.8449,8.772,8.7319,8.7319,8.7319,8.7319,8.7319,8.7319,0.0,0.0,0.0,0.0,0.0,8.8879,8.8879,8.8879,8.8349,8.8051,8.8051,8.7584,8.7319,8.7319,8.7319,8.762,8.8316,8.9412,9.014,9.0505,9.1066,9.1397,9.1627,9.1627,9.1627,9.1627,9.1627,9.1627,9.1627,9.1826,9.2324,9.2987,9.3186,9.408,9.5173,9.5173,9.5538,9.5902,9.5372,9.5173,9.5173,9.5173,9.5173,9.5306,9.5869,9.6001,9.6001,9.6001,9.6001,9.6001,9.6001,9.6001,9.6001,9.6001,9.6001,9.6001,9.6001,9.6001,9.6001,9.6001,9.6001,9.6001,9.6001,9.6001,9.6001,9.6001,9.6001,9.6001,9.6001,9.6167,9.6797,9.8089,9.8387,9.8983,10.0174,10.0308,10.0308,10.0308,10.0308,10.0308,10.0308,9.9811,9.9778,10.0308,10.0308,10.0308,10.0308,10.0308,10.0308,5.1364,5.8025,6.505,7.0991,7.4602,7.745,8.0332,8.2651,8.4805,8.6987,8.7919,8.8581,8.9313,8.9412,8.9147,8.8449,8.772,8.7319,8.7319,8.7319,8.7319,8.7319,8.7319,8.7319,0.0,0.0,0.0,0.0,8.7418,8.7418,8.7418,8.7385,8.7352,8.7352,8.7319,8.7319,8.7319,8.7319,8.762,8.8316,8.8382,8.9177,9.0505,9.0538,9.0933,9.1627,9.1627,9.1627,9.1627,9.1627,9.1627,9.1693,9.2358,9.3086,9.3815,9.4511,9.5273,9.5935,9.5935,9.5968,9.6001,9.5968,9.5935,9.5935,9.5935,9.5935,9.5968,9.6001,9.6001,9.6001,9.6001,9.6001,9.6001,9.6001,9.6001,9.6001,9.6001,9.6001,9.6001,9.6001,9.6001,9.6001,9.6001,9.6001,9.6001,9.6001,9.6001,9.6001,9.6001,9.6001,9.6001,9.6001,9.6631,9.736,9.8122,9.8851,9.9546,10.0308,10.0308,10.0308,10.0308,10.0308,10.0308,10.0308,10.0308,10.0308,10.0308,10.0308,10.0308,10.0308,10.0308,10.0308,4.7089,5.244,5.8257,6.3755,6.8427,7.2703,7.6506,7.9826,8.3142,8.6821,8.7752,8.8283,8.9513,8.9133,8.8614,8.8349,8.772,8.7319,8.7319,8.7319,8.7319,8.7319,8.7319,8.7319,8.7319,0.0,0.0,0.0,0.0,8.7319,8.7319,8.7319,8.7319,8.7319,8.7319,8.7319,8.7319,8.7319,8.7418,8.7654,8.8084,8.8846,8.9809,9.0273,9.09,9.1627,9.1627,9.1627,9.1627,9.1627,9.1627,9.1662,9.2391,9.3153,9.3881,9.4643,9.5372,9.6001,9.6001,9.6001,9.5935,9.5438,9.5306,9.5306,9.5306,9.5306,9.5405,9.5869,9.6001,9.6001,9.6001,9.6001,9.6001,9.6001,9.6001,9.6001,9.6001,9.6001,9.6001,9.6001,9.6001,9.6001,9.6001,9.6001,9.6167,9.6631,9.673,9.6896,9.7327,9.7426,9.7426,9.7426,9.7658,9.8088,9.8851,9.9149,9.9579,10.0308,10.0308,10.0308,10.0308,10.0308,10.0308,10.0308,10.0308,10.0308,10.0308,10.0308,10.0308,10.0308,10.0308,10.0308,4.3529,4.7901,5.2679,5.6944,6.1783,6.6535,7.0548,7.4989,7.9528,8.3865,8.5821,8.715,8.8528,8.8416,8.8138,8.8283,8.772,8.7319,8.7319,8.7319,8.7319,8.7319,8.7319,8.7319,8.7319,8.7319,8.7319,0.0,0.0,0.0,8.7319,8.7319,8.7319,8.7319,8.7319,8.7319,8.7319,8.7319,8.7319,8.7319,8.7753,8.8349,8.9078,8.9776,9.0536,9.1231,9.1463,9.1627,9.1627,9.1627,9.1627,9.1726,9.2656,9.3351,9.3914,9.4908,9.5571,9.6001,9.6001,9.6001,9.5935,9.5438,9.5273,9.5273,9.5273,9.5273,9.5372,9.5869,9.6001,9.6001,9.6001,9.6001,9.6001,9.6001,9.6001,9.6001,9.6001,9.6001,9.6001,9.6001,9.6001,9.6001,9.6001,9.6001,9.6266,9.6995,9.7095,9.736,9.8122,9.8221,9.8221,9.8221,9.842,9.8785,9.9282,9.9514,9.9811,10.0308,10.0308,10.0308,10.0308,10.0308,10.0308,10.0308,10.0308,10.0308,10.0308,10.0308,10.0308,10.0308,10.0308,10.0308,0.0,0.0,0.0,5.0692,5.4646,5.8942,6.2428,6.8025,7.3684,7.8007,8.1978,8.5074,8.6387,8.7196,8.7811,8.821,8.772,8.7319,8.7319,8.7319,8.7319,8.7319,8.7319,8.7319,8.7319,8.7319,8.7319,0.0,8.7319,8.7319,8.7319,8.7319,8.7319,8.7319,8.7319,8.7319,8.7319,8.7319,8.7319,8.7319,8.7319,8.7654,8.8349,8.9048,8.9776,9.0538,9.1264,9.1627,9.1627,9.1627,9.1627,9.1759,9.3251,9.3814,9.4013,9.5504,9.6034,9.6034,9.6034,9.6034,9.6034,9.6001,9.6001,9.6001,9.6001,9.6001,9.6001,9.6001,9.6001,9.6001,9.6001,9.6001,9.6001,9.6001,9.6001,9.6001,9.6001,9.6001,9.6001,9.6001,9.6001,9.6001,9.6035,9.6035,9.63,9.7062,9.7161,9.7426,9.8188,9.8254,9.8254,9.8254,9.8917,9.9348,9.9348,9.9944,10.0308,10.0308,10.0308,10.0308,10.0308,10.0308,10.0308,10.0308,10.0308,10.0308,10.0308,10.0308,10.0308,10.0308,10.0308,10.0308,3.9747,0.0,0.0,0.0,0.0,0.0,5.5901,6.2205,6.9043,7.5082,7.9327,8.3047,8.6617,8.7428,8.7625,8.7836,8.7537,8.7319,8.7319,8.7319,8.7319,8.7319,8.7319,8.7319,8.7319,8.7319,8.7319,0.0,8.7319,8.7319,8.7319,8.7319,8.7319,8.7319,8.7319,8.7319,8.7319,8.7319,8.7319,8.7319,8.7319,8.7654,8.8349,8.9048,8.9776,9.0538,9.1264,9.1751,9.1968,9.1968,9.1968,9.2132,9.3849,9.451,9.471,9.6179,9.6713,9.6713,9.6713,9.6713,9.6681,9.6423,9.6359,9.6294,9.6067,9.6001,9.6001,9.6001,9.6001,9.6001,9.6001,9.6001,9.6001,9.6001,9.6001,9.6001,9.6001,9.6001,9.6001,9.6001,9.6001,9.6167,9.6697,9.6797,9.7227,9.8486,9.8685,9.8917,9.9612,9.9712,9.9712,9.9712,9.991,10.001,10.001,10.0209,10.0308,10.0308,10.0308,10.0308,10.0308,10.0308,10.0308,10.0308,10.0308,10.0308,10.0308,10.0308,10.0308,10.0308,10.0308,10.0308,0.0,0.0,0.0,0.0,0.0,0.0,5.1261,5.7233,6.3842,6.9536,7.4488,7.8927,8.2636,8.382,8.41,8.3654,8.3962,8.4982,8.6987,8.7319,8.7186,8.6888,8.6855,8.6722,8.6395,8.6362,8.6362,8.6362,8.6689,8.6987,8.7286,8.7319,8.7319,8.7319,8.7319,8.7319,8.7319,8.7319,8.7319,8.7319,8.7319,8.7518,8.7919,8.9067,8.9824,9.0322,9.1503,9.2122,9.2337,9.2459,9.2429,9.2471,9.4128,9.4793,9.496,9.6465,9.7,9.7,9.7,9.7,9.6937,9.6617,9.6488,9.6423,9.6099,9.6001,9.6001,9.6001,9.6001,9.6001,9.6001,9.6001,9.6001,9.6001,9.6001,9.6001,9.6001,9.6001,9.6001,9.6001,9.6001,9.6233,9.6995,9.7095,9.7592,9.9083,9.9315,9.9513,10.0209,10.0308,10.0308,10.0308,10.0308,10.0308,10.0308,10.0308,10.0308,10.0308,10.0308,10.0308,10.0308,10.0308,10.0308,10.0308,10.0308,10.0308,10.0308,10.0308,10.0308,10.0308,10.0308,10.0308,4.1312,0.0,0.0,0.0,0.0,0.0,4.7775,5.269,5.8217,6.2366,6.799,7.3035,7.6023,7.7622,7.8177,7.7073,7.8262,8.1019,8.589,8.6722,8.6623,8.6159,8.6093,8.5828,8.5169,8.5103,8.5103,8.5103,8.5765,8.6524,8.7253,8.7319,8.7319,8.7319,8.7319,8.7319,8.7319,8.7319,8.7319,8.7319,8.7319,8.7319,8.7411,8.9108,8.9893,9.0053,9.1824,9.2611,9.2671,9.3006,9.2913,9.2809,9.4314,9.4917,9.5085,9.6559,9.7096,9.7096,9.7096,9.7096,9.7032,9.6681,9.6552,9.6488,9.6132,9.6001,9.6001,9.6001,9.6001,9.6001,9.6001,9.6001,9.6001,9.6001,9.6001,9.6001,9.6001,9.6001,9.6001,9.6001,9.6001,9.6266,9.7095,9.7227,9.7724,9.9182,9.9414,9.9612,10.0174,10.0308,10.0308,10.0308,10.0308,10.0308,10.0308,10.0308,10.0308,10.0308,10.0308,10.0308,10.0308,10.0308,10.0308,10.0308,10.0308,10.0308,10.0308,10.0308,10.0308,10.0308,10.0308,10.0308,4.4541,4.453,4.4336,0.0,0.0,0.0,4.3767,4.7752,5.2536,5.5817,6.0332,6.5134,6.987,7.0985,7.121,7.1247,7.3572,7.6902,8.1371,8.3016,8.4142,8.5202,8.5302,8.5268,8.5136,8.5103,8.5103,8.5103,8.5765,8.6524,8.7253,8.7319,8.7319,8.7319,8.7319,8.7319,8.7319,8.7319,8.7319,8.7319,8.7319,8.7404,8.7644,8.9197,9.0043,9.0382,9.1944,9.2732,9.3036,9.3062,9.3033,9.3171,9.4924,9.5622,9.5791,9.7277,9.7786,9.7786,9.7786,9.7786,9.7693,9.7096,9.6905,9.6777,9.6197,9.6001,9.6001,9.6001,9.6001,9.6001,9.6001,9.6001,9.6001,9.6001,9.6001,9.6001,9.6001,9.6001,9.6001,9.6001,9.6001,9.6432,9.779,9.7989,9.8453,9.9877,10.0109,10.0209,10.0308,10.0308,10.0308,10.0308,10.0308,10.0308,10.0308,10.0308,10.0308,10.0308,10.0308,10.0308,10.0308,10.0308,10.0308,10.0308,10.0308,10.0308,10.0308,10.0308,10.0308,10.0308,10.0308,10.0308,4.7229,4.6819,4.6143,4.5785,0.0,0.0,0.0,4.6312,4.9729,5.2367,5.5868,5.9674,6.3396,6.4377,6.4532,6.4244,6.6745,6.9759,7.2916,7.8483,8.2849,8.4537,8.4736,8.4546,8.4043,8.401,8.4175,8.454,8.4904,8.5596,8.6689,8.6756,8.6921,8.7286,8.7319,8.7319,8.7319,8.7404,8.7493,8.7493,8.767,8.7816,8.8029,8.9676,9.0493,9.0737,9.2397,9.3216,9.3364,9.3364,9.3364,9.3499,9.5135,9.5804,9.5973,9.7461,9.8003,9.8003,9.8003,9.8003,9.7879,9.7222,9.7,9.6873,9.6197,9.6001,9.6001,9.6001,9.6001,9.6001,9.6001,9.6001,9.6001,9.6001,9.6001,9.6001,9.6001,9.6001,9.6101,9.6498,9.6565,9.6896,9.8022,9.8221,9.8685,10.0109,10.0308,10.0308,10.0308,10.0308,10.0308,10.0308,10.0308,10.0308,10.0308,10.0308,10.0308,10.0308,10.0308,10.0308,10.0308,10.0308,10.0308,10.0308,10.0308,10.0308,10.0308,10.0308,10.0308,10.0308,10.0308,10.0308,0.0,0.0,0.0,0.0,0.0,4.5838,0.0,0.0,0.0,4.9544,5.1979,5.4414,5.6477,5.7374,5.7504,5.6749,5.9237,6.1984,0.0,7.2089,0.0,8.2127,8.2733,8.2688,8.2116,8.232,8.2784,8.3513,8.3579,8.4208,8.5695,8.606,8.6457,8.7087,8.7219,8.7349,8.7378,8.7582,8.7728,8.7787,8.8078,8.8324,8.8549,9.0182,9.1,9.1295,9.2908,9.3601,9.3601,9.3601,9.3601,9.377,9.5229,9.5804,9.5973,9.7461,9.8003,9.8003,9.8003,9.8003,9.791,9.7285,9.7032,9.6905,9.636,9.6197,9.6197,9.6197,9.6165,9.6099,9.6099,9.6034,9.6001,9.6001,9.6001,9.6001,9.6001,9.6001,9.6233,9.6962,9.7095,9.7393,9.8254,9.842,9.8851,10.0109,10.0308,10.0308,10.0308,10.0308,10.0308,10.0308,10.0308,10.0308,10.0308,10.0308,10.0308,10.0308,10.0308,10.0308,10.0308,10.0308,10.0308,10.0308,10.0308,10.0308,10.0308,10.0308,10.0308,10.0308,10.0308,10.0308,0.0,0.0,0.0,0.0,4.8191,0.0,0.0,0.0,4.5041,4.5311,0.0,0.0,0.0,0.0,0.0,0.0,0.0,0.0,5.8175,6.1862,6.7119,7.4706,7.6786,7.7972,7.8908,8.0167,8.126,8.1989,8.2055,8.2684,8.4175,8.5496,8.6225,8.6325,8.6954,8.7404,8.764,8.767,8.7846,8.8136,8.8165,8.8707,8.9639,9.0505,9.1391,9.2295,9.3199,9.3601,9.3601,9.3601,9.3601,9.377,9.5229,9.5804,9.5973,9.7461,9.8003,9.8003,9.8003,9.8003,9.7941,9.7568,9.7254,9.6969,9.6905,9.6873,9.6873,9.6873,9.6681,9.6456,9.6456,9.6197,9.6001,9.6001,9.6001,9.6001,9.6001,9.6001,9.6233,9.6962,9.7095,9.7558,9.895,9.9182,9.9414,10.0209,10.0308,10.0308,10.0308,10.0308,10.0308,10.0308,10.0308,10.0308,10.0308,10.0308,10.0308,10.0308,10.0308,10.0308,10.0308,10.0308,10.0308,10.0308,10.0308,10.0308,10.0308,10.0308,10.0308,10.0308,10.0308,10.0308,0.0,0.0,0.0,0.0,0.0,0.0,0.0,0.0,4.5988,0.0,0.0,0.0,0.0,0.0,0.0,0.0,5.0592,0.0,0.0,0.0,6.0872,6.9273,0.0,0.0,7.6591,7.7734,7.8525,7.8823,7.9382,8.0528,8.246,8.4185,8.5558,8.6393,8.6725,8.7149,8.7699,8.8045,8.8276,8.842,8.862,8.9166,9.0056,9.0828,9.1595,9.2426,9.3233,9.3601,9.3601,9.3601,9.3601,9.377,9.5229,9.5804,9.5973,9.7461,9.8003,9.8003,9.8003,9.8003,9.7941,9.763,9.7285,9.7,9.7,9.7,9.7,9.7,9.6745,9.6488,9.6488,9.6229,9.6001,9.6001,9.6001,9.6001,9.6001,9.6001,9.6333,9.7492,9.7724,9.8188,9.9612,9.9546,9.9513,10.0209,10.0308,10.0308,10.0308,10.0308,10.0308,10.0308,10.0308,10.0308,10.0308,10.0308,10.0308,10.0308,10.0308,10.0308,10.0308,10.0308,10.0308,10.0308,10.0308,10.0308,10.0308,10.0308,10.0308,10.0308,10.0308,10.0308,6.1839,0.0,0.0,0.0,0.0,0.0,0.0,0.0,0.0,0.0,0.0,0.0,0.0,0.0,0.0,0.0,0.0,5.0375,0.0,5.1628,0.0,0.0,0.0,0.0,0.0,7.4381,7.4989,7.5289,7.6191,7.7763,8.0173,8.2537,8.4526,8.6078,8.6425,8.7021,8.7929,8.8391,8.8648,8.8733,8.919,8.9782,9.0527,9.1271,9.2015,9.2759,9.3334,9.3601,9.3601,9.3601,9.3706,9.4011,9.5296,9.5905,9.6244,9.7529,9.8003,9.8003,9.8003,9.8003,9.7972,9.7724,9.7474,9.7285,9.7285,9.7285,9.7285,9.7285,9.7032,9.6777,9.6777,9.6456,9.6132,9.6132,9.6067,9.6001,9.6001,9.6001,9.6432,9.7923,9.8221,9.8652,10.0109,9.991,9.9745,10.0174,10.0308,10.0308,10.0308,10.0308,10.0308,10.0308,10.0308,10.0308,10.0308,10.0308,10.0308,10.0308,10.0308,10.0308,10.0308,10.0308,10.0308,10.0308,10.0308,10.0308,10.0308,10.0308,10.0308,10.0308,10.0308,10.0308,0.0,0.0,0.0,0.0,0.0,0.0,0.0,0.0,4.7887,0.0,0.0,0.0,0.0,0.0,0.0,0.0,0.0,0.0,0.0,0.0,0.0,0.0,0.0,0.0,0.0,6.958,7.0699,0.0,7.2453,7.415,7.7086,8.0442,8.311,8.4885,8.6007,8.7252,8.8558,8.8591,8.8762,8.9072,8.9816,9.056,9.1271,9.2049,9.2793,9.3567,9.3601,9.3601,9.3601,9.3601,9.4011,9.4755,9.5499,9.6244,9.6985,9.7732,9.8003,9.8003,9.8003,9.8003,9.8003,9.7972,9.7972,9.7972,9.7972,9.7972,9.7972,9.7972,9.7724,9.7472,9.7472,9.7,9.6488,9.6488,9.6262,9.6001,9.6001,9.6001,9.6432,9.7923,9.8221,9.8652,10.0109,10.0308,10.0308,10.0308,10.0308,10.0308,10.0308,10.0308,10.0308,10.0308,10.0308,10.0308,10.0308,10.0308,10.0308,10.0308,10.0308,10.0308,10.0308,10.0308,10.0308,10.0308,10.0308,10.0308,10.0308,10.0308,10.0308,10.0308,10.0308,10.0308,0.0,0.0,6.6576,6.4072,0.0,0.0,0.0,0.0,0.0,0.0,0.0,0.0,0.0,0.0,0.0,0.0,0.0,0.0,0.0,0.0,0.0,0.0,0.0,0.0,0.0,0.0,0.0,6.6705,6.8,0.0,7.3804,7.7707,8.1228,8.4317,8.5778,8.7149,8.8586,8.8818,8.9258,8.9816,9.0087,9.0865,9.2049,9.229,9.2861,9.3601,9.3601,9.3601,9.3634,9.4112,9.4485,9.4823,9.6041,9.668,9.7018,9.7732,9.8003,9.8003,9.8003,9.8003,9.8003,9.8003,9.8003,9.8003,9.8003,9.8003,9.8003,9.8003,9.7755,9.744,9.7222,9.6841,9.6456,9.6197,9.6099,9.6001,9.6001,9.6001,9.6432,9.7923,9.8221,9.8652,10.0109,10.0308,10.0308,10.0308,10.0308,10.0308,10.0308,10.0308,10.0308,10.0308,10.0308,10.0308,10.0308,10.0308,10.0308,10.0308,10.0308,10.0308,10.0308,10.0308,10.0308,10.0308,10.0308,10.0308,10.0308,10.0308,10.0308,10.0308,10.0308,10.0308,7.6589,7.4684,0.0,7.0466,6.7184,0.0,5.9742,0.0,0.0,0.0,0.0,0.0,0.0,0.0,0.0,0.0,0.0,0.0,0.0,4.5173,0.0,0.0,0.0,0.0,0.0,6.0496,6.1688,6.2312,6.3633,6.6305,0.0,7.4748,7.9053,8.3402,8.541,8.7161,8.8756,8.8988,8.9478,9.0222,9.0493,9.1237,9.2392,9.2725,9.3098,9.3601,9.3601,9.3601,9.3668,9.4417,9.4857,9.5229,9.6413,9.7086,9.736,9.7834,9.8003,9.8003,9.8003,9.8003,9.8003,9.8003,9.8003,9.8003,9.8003,9.8003,9.8003,9.8003,9.7755,9.744,9.7254,9.6841,9.6456,9.623,9.6099,9.6001,9.6001,9.6001,9.6432,9.7923,9.8221,9.8652,10.0109,10.0308,10.0308,10.0308,10.0308,10.0308,10.0308,10.0308,10.0308,10.0308,10.0308,10.0308,10.0308,10.0308,10.0308,10.0308,10.0308,10.0308,10.0308,10.0308,10.0308,10.0308,10.0308,10.0308,10.0308,10.0308,10.0308,10.0308,10.0308,10.0308]}]]